[[{"header":{"parameterUnit":"m.s-1","parameterCategory":1,"la1":31.0,"la2":29.5877,"lo1":-88.7671,"lo2":-86.6584,"dy":0.0162,"dx":0.0185,"nx":115,"ny":88,"refTime":"2026-05-24T00:00:00:Z","depth":0,"parameterNumber":2,"parameterNumberName":"U-component_of_WINDS"},"data":[0.0,0.0,0.0,0.0,0.0,0.0,0.0,0.0,0.0,0.0,0.0,0.0,0.0,0.0,0.0,0.0,0.0,0.0,0.0,0.0,0.0,0.0,0.0,0.0,0.0,0.0,0.0,0.0,0.0,0.0,0.0,0.0,0.0,0.0,0.0,0.0,0.0,0.0,0.0,0.0,0.0,0.0,0.0,0.0,0.0,0.0,0.0,0.0,0.0,0.0,0.0,0.0,0.0,0.0,0.0,0.0,0.0,0.0,0.0,0.0,0.0,0.0,0.0,0.0,0.0,0.0,0.0,0.0,0.0,0.0,0.0,0.0,0.0,0.0,0.0,0.0,0.0,0.0,0.0,0.0,0.0,0.0,0.0,0.0,0.0,0.0,0.0,0.0,0.0,0.0,0.0,0.0,0.0,0.0,0.0,0.0,0.0,0.0,0.0,0.0,0.0,0.0,0.0,0.0,0.0,0.0,0.0,0.0,0.0,0.0,0.0,0.0,0.0,0.0,0.0,0.0,0.0,0.0,0.0,0.0,0.0,0.0,0.0,0.0,0.0,0.0,0.0,0.0,0.0,0.0,0.0,0.0,0.0,0.0,0.0,0.0,0.0,0.0,0.0,0.0,0.0,0.0,0.0,0.0,0.0,0.0,0.0,0.0,0.0,0.0,0.0,0.0,0.0,0.0,0.0,0.0,0.0,0.0,0.0,0.0,0.0,0.0,0.0,0.0,0.0,0.0,0.0,0.0,0.0,0.0,0.0,0.0,0.0,0.0,0.0,0.0,0.0,0.0,0.0,0.0,0.0,0.0,0.0,0.0,0.0,0.0,0.0,0.0,0.0,0.0,0.0,0.0,0.0,0.0,0.0,0.0,0.0,0.0,0.0,0.0,0.0,0.0,0.0,0.0,0.0,0.0,0.0,0.0,0.0,0.0,0.0,0.0,0.0,0.0,0.0,0.0,0.0,0.0,0.0,0.0,0.0,0.0,0.0,0.0,0.0,0.0,0.0,0.0,0.0,0.0,0.0,0.0,0.0,0.0,0.0,0.0,0.0,0.0,0.0,0.0,0.0,0.0,0.0,0.0,0.0,0.0,0.0,0.0,0.0,0.0,0.0,0.0,0.0,0.0,0.0,0.0,0.0,0.0,0.0,0.0,0.0,0.0,0.0,0.0,0.0,0.0,0.0,0.0,0.0,0.0,0.0,0.0,0.0,0.0,0.0,0.0,0.0,0.0,0.0,0.0,0.0,0.0,0.0,0.0,0.0,0.0,0.0,0.0,0.0,0.0,0.0,0.0,0.0,0.0,0.0,0.0,0.0,0.0,0.0,0.0,0.0,0.0,0.0,0.0,0.0,0.0,0.0,0.0,0.0,0.0,0.0,0.0,0.0,0.0,0.0,0.0,0.0,0.0,0.0,0.0,0.0,0.0,0.0,0.0,0.0,0.0,0.0,0.0,0.0,0.0,0.0,0.0,0.0,0.0,0.0,0.0,0.0,0.0,0.0,0.0,0.0,0.0,0.0,0.0,0.0,0.0,0.0,0.0,0.0,0.0,0.0,0.0,0.0,0.0,0.0,0.0,0.0,0.0,0.0,0.0,0.0,0.0,0.0,0.0,0.0,0.0,0.0,0.0,0.0,0.0,0.0,0.0,0.0,0.0,0.0,0.0,0.0,0.0,0.0,0.0,0.0,0.0,0.0,0.0,0.0,0.0,0.0,0.0,0.0,0.0,0.0,0.0,0.0,0.0,0.0,0.0,0.0,0.0,0.0,0.0,0.0,0.0,0.0,0.0,0.0,0.0,0.0,0.0,0.0,0.0,0.0,0.0,0.0,0.0,0.0,0.0,0.0,0.0,0.0,0.0,0.0,0.0,0.0,0.0,0.0,0.0,0.0,0.0,0.0,0.0,0.0,0.0,0.0,0.0,0.0,0.0,0.0,0.0,0.0,0.0,0.0,0.0,0.0,0.0,0.0,0.0,0.0,0.0,0.0,0.0,0.0,0.0,0.0,0.0,0.0,0.0,0.0,0.0,0.0,0.0,0.0,0.0,0.0,0.0,0.0,0.0,0.0,0.0,0.0,0.0,0.0,0.0,0.0,0.0,0.0,0.0,0.0,0.0,0.0,0.0,0.0,0.0,0.0,0.0,0.0,0.0,0.0,0.0,0.0,0.0,0.0,0.0,0.0,0.0,0.0,0.0,0.0,0.0,0.0,0.0,0.0,0.0,0.0,0.0,0.0,0.0,0.0,0.0,0.0,0.0,0.0,0.0,0.0,0.0,0.0,0.0,0.0,0.0,0.0,0.0,0.0,0.0,0.0,0.0,0.0,0.0,0.0,0.0,0.0,0.0,0.0,0.0,0.0,0.0,0.0,0.0,0.0,0.0,0.0,0.0,0.0,0.0,0.0,0.0,0.0,0.0,0.0,0.0,0.0,0.0,0.0,0.0,0.0,0.0,0.0,0.0,0.0,0.0,0.0,0.0,0.0,0.0,0.0,0.0,0.0,0.0,0.0,0.0,0.0,0.0,0.0,0.0,0.0,0.0,0.0,0.0,0.0,0.0,0.0,0.0,0.0,0.0,0.0,0.0,0.0,0.0,0.0,0.0,0.0,0.0,0.0,0.0,0.0,0.0,0.0,0.0,0.0,0.0,0.0,0.0,0.0,0.0,0.0,0.0,0.0,0.0,0.0,0.0,0.0,0.0,0.0,0.0,0.0,0.0,0.0,0.0,0.0,0.0,0.0,0.0,0.0,0.0,0.0,0.0,0.0,0.0,0.0,0.0,0.0,0.0,0.0,0.0,0.0,0.0,0.0,0.0,0.0,0.0,0.0,0.0,0.0,0.0,0.0,0.0,0.0,0.0,0.0,0.0,0.0,0.0,0.0,0.0,0.0,0.0,0.0,0.0,0.0,0.0,0.0,0.0,0.0,0.0,0.0,0.0,0.0,0.0,0.0,0.0,0.0,0.0,0.0,0.0,0.0,0.0,0.0,0.0,0.0,0.0,0.0,0.0,0.0,0.0,0.0,0.0,0.0,0.0,0.0,0.0,0.0,0.0,0.0,0.0,0.0,0.0,0.0,0.0,0.0,0.0,0.0,0.0,0.0,0.0,0.0,0.0,0.0,0.0,0.0,0.0,0.0,0.0,0.0,0.0,0.0,0.0,0.0,0.0,0.0,0.0,0.0,0.0,0.0,0.0,0.0,0.0,0.0,0.0,0.0,0.0,0.0,0.0,0.0,0.0,0.0,0.0,0.0,0.0,0.0,0.0,0.0,0.0,0.0,0.0,0.0,0.0,0.0,0.0,0.0,0.0,0.0,0.0,0.0,0.0,0.0,0.0,0.0,0.0,0.0,0.0,0.0,0.0,0.0,0.0,0.0,0.0,0.0,0.0,0.0,0.0,0.0,0.0,0.0,0.0,0.0,0.0,0.0,0.0,0.0,0.0,0.0,0.0,0.0,0.0,0.0,0.0,0.0,0.0,0.0,0.0,0.0,0.0,0.0,0.0,0.0,0.0,0.0,0.0,0.0,0.0,0.0,0.0,0.0,0.0,0.0,0.0,0.0,0.0,0.0,0.0,0.0,0.0,0.0,0.0,0.0,0.0,0.0,0.0,0.0,0.0,0.0,0.0,0.0,0.0,0.0,0.0,0.0,0.0,0.0,0.0,0.0,0.0,0.0,0.0,0.0,0.0,0.0,0.0,0.0,0.0,0.0,0.0,0.0,0.0,0.0,0.0,0.0,0.0,0.0,0.0,0.0,0.0,0.0,0.0,0.0,0.0,0.0,0.0,0.0,0.0,0.0,0.0,0.0,0.0,0.0,0.0,0.0,0.0,0.0,0.0,0.0,0.0,0.0,0.0,0.0,0.0,0.0,0.0,0.0,0.0,0.0,0.0,0.0,0.0,0.0,0.0,0.0,0.0,0.0,0.0,0.0,0.0,0.0,0.0,0.0,0.0,0.0,0.0,0.0,0.0,0.0,0.0,0.0,0.0,0.0,0.0,0.0,0.0,0.0,0.0,0.0,0.0,0.0,0.0,0.0,0.0,0.0,0.0,0.0,0.0,0.0,0.0,0.0,0.0,0.0,0.0,0.0,0.0,0.0,0.0,0.0,0.0,0.0,0.0,0.0,0.0,0.0,0.0,0.0,0.0,0.0,0.0,0.0,0.0,0.0,0.0,0.0,0.0,0.0,0.0,0.0,0.0,0.0,0.0,0.0,0.0,0.0,0.0,0.0,0.0,0.0,0.0,0.0,0.0,0.0,0.0,0.0,0.0,-0.5913,0.0,0.0,0.0,0.0,0.0,0.0,0.0,0.0,0.0,0.0,0.0,0.0,0.0,0.0,0.0,0.0,0.0,0.0,0.0,0.0,0.0,0.0,0.0,0.0,0.0,0.0,0.0,0.0,0.0,0.0,0.0,0.0,0.0,0.0,0.0,0.0,0.0,0.0,0.0,0.0,0.0,0.0,0.0,0.0,0.0,0.0,0.0,0.0,0.0,0.0,0.0,0.0,0.0,0.0,0.0,0.0,0.0,0.0,0.0,0.0,0.0,0.0,0.0,0.0,0.0,0.0,0.0,0.0,0.0,0.0,0.0,0.0,0.0,0.0,0.0,0.0,0.0,0.0,0.0,0.0,0.0,0.0,0.0,0.0,0.0,0.0,0.0,0.0,0.0,0.0,0.0,0.0,0.0,0.0,0.0,0.0,0.0,0.0,0.0,0.0,0.0,0.0,0.0,0.0,0.0,0.0,0.0,0.0,0.0,0.0,-0.5944,-0.6942,-0.6996,-0.6987,-0.6996,0.0,0.0,0.0,0.0,0.0,0.0,0.0,0.0,0.0,0.0,0.0,0.0,0.0,0.0,0.0,0.0,0.0,0.0,0.0,0.0,0.0,0.0,0.0,0.0,0.0,0.0,0.0,0.0,0.0,0.0,0.0,0.0,0.0,0.0,0.0,0.0,0.0,0.0,0.0,0.0,0.0,0.0,0.0,0.0,0.0,0.0,0.0,0.0,0.0,0.0,0.0,0.0,0.0,0.0,0.0,0.0,0.0,0.0,0.0,0.0,0.0,0.0,0.0,0.0,0.0,0.0,0.0,0.0,0.0,0.0,0.0,0.0,0.0,0.0,0.0,0.0,0.0,0.0,0.0,0.0,0.0,0.0,0.0,0.0,0.0,0.0,0.0,0.0,0.0,0.0,0.0,0.0,0.0,0.0,0.0,0.0,0.0,0.0,0.0,0.0,0.0,0.0,0.0,0.0,0.0,0.0,0.0,0.0,0.0,0.0,0.0,0.0,-0.7906,-0.7906,-0.7906,0.0,0.0,0.0,0.0,0.0,0.0,0.0,0.0,0.0,0.0,0.0,0.0,0.0,0.0,0.0,0.0,0.0,0.0,0.0,0.0,0.0,0.0,0.0,0.0,0.0,0.0,0.0,0.0,0.0,0.0,0.0,0.0,0.0,0.0,0.0,0.0,0.0,0.0,0.0,0.0,0.0,0.0,0.0,0.0,0.0,0.0,0.0,0.0,0.0,0.0,0.0,0.0,0.0,0.0,0.0,0.0,0.0,0.0,0.0,0.0,0.0,0.0,0.0,0.0,0.0,0.0,0.0,0.0,0.0,0.0,0.0,0.0,0.0,0.0,0.0,0.0,0.0,0.0,0.0,0.0,0.0,0.0,0.0,0.0,0.0,0.0,0.0,0.0,0.0,0.0,0.0,0.0,0.0,0.0,0.0,0.0,0.0,0.0,0.0,0.0,0.0,0.0,0.0,0.0,0.0,0.0,0.0,0.0,0.0,0.0,-0.6535,-0.7861,-0.7906,0.0,-0.7906,0.0,0.0,0.0,0.0,0.0,0.0,0.0,0.0,0.0,0.0,0.0,0.0,0.0,0.0,0.0,0.0,0.0,0.0,0.0,0.0,0.0,0.0,0.0,0.0,0.0,0.0,0.0,0.0,0.0,0.0,0.0,0.0,0.0,0.0,0.0,0.0,0.0,0.0,0.0,0.0,0.0,0.0,0.0,0.0,0.0,0.0,0.0,0.0,0.0,0.0,0.0,0.0,0.0,0.0,0.0,0.0,0.0,0.0,0.0,0.0,0.0,0.0,0.0,0.0,0.0,0.0,0.0,0.0,0.0,0.0,0.0,0.0,0.0,0.0,0.0,0.0,0.0,0.0,0.0,0.0,0.0,0.0,0.0,0.0,0.0,0.0,0.0,0.0,0.0,0.0,0.0,0.0,0.0,0.0,0.0,0.0,0.0,0.0,0.0,0.0,0.0,0.0,0.0,0.0,0.0,0.0,0.0,0.0,0.0,0.0,-0.6714,-0.8462,-0.8492,-0.8499,0.0,0.0,0.0,0.0,0.0,0.0,0.0,0.0,0.0,0.0,0.0,0.0,0.0,0.0,0.0,0.0,0.0,0.0,0.0,0.0,0.0,0.0,0.0,0.0,0.0,0.0,0.0,0.0,0.0,0.0,0.0,0.0,0.0,0.0,0.0,0.0,0.0,0.0,0.0,0.0,0.0,0.0,0.0,0.0,0.0,0.0,0.0,0.0,0.0,0.0,0.0,0.0,0.0,0.0,0.0,0.0,0.0,0.0,0.0,0.0,0.0,0.0,0.0,0.0,0.0,0.0,0.0,0.0,0.0,0.0,0.0,0.0,0.0,0.0,0.0,0.0,0.0,0.0,0.0,0.0,0.0,0.0,0.0,0.0,0.0,0.0,0.0,0.0,0.0,0.0,0.0,0.0,0.0,0.0,0.0,0.0,0.0,0.0,0.0,0.0,0.0,0.0,0.0,0.0,0.0,0.0,0.0,0.0,0.0,0.0,-0.5799,-0.6771,-0.8499,-0.8627,-0.8537,-0.8349,0.0,0.0,0.0,0.0,0.0,0.0,0.0,0.0,0.0,0.0,0.0,0.0,0.0,0.0,0.0,0.0,0.0,0.0,0.0,0.0,0.0,0.0,0.0,0.0,0.0,0.0,0.0,0.0,0.0,0.0,0.0,0.0,0.0,0.0,0.0,0.0,0.0,0.0,0.0,0.0,0.0,0.0,0.0,0.0,0.0,0.0,0.0,0.0,0.0,0.0,0.0,0.0,0.0,0.0,0.0,0.0,0.0,0.0,0.0,0.0,0.0,0.0,0.0,0.0,0.0,0.0,0.0,0.0,0.0,0.0,0.0,0.0,0.0,0.0,0.0,0.0,0.0,0.0,0.0,0.0,0.0,0.0,0.0,0.0,0.0,0.0,0.0,0.0,0.0,0.0,0.0,0.0,0.0,0.0,0.0,0.0,0.0,0.0,0.0,0.0,0.0,0.0,0.0,0.0,0.0,0.0,0.0,0.0,0.0,-0.5591,-0.6544,-0.7884,-0.7959,-0.7652,0.0,0.0,0.0,0.0,0.0,0.0,0.0,0.0,0.0,0.0,0.0,0.0,0.0,0.0,0.0,0.0,0.0,0.0,0.0,0.0,0.0,0.0,0.0,0.0,0.0,0.0,0.0,0.0,0.0,0.0,0.0,0.0,0.0,0.0,0.0,0.0,0.0,0.0,0.0,0.0,0.0,0.0,0.0,0.0,0.0,0.0,0.0,0.0,0.0,0.0,0.0,0.0,0.0,0.0,0.0,0.0,0.0,0.0,0.0,0.0,0.0,0.0,0.0,0.0,0.0,0.0,0.0,0.0,0.0,0.0,0.0,0.0,0.0,0.0,0.0,0.0,0.0,0.0,0.0,0.0,0.0,0.0,0.0,0.0,0.0,0.0,0.0,0.0,0.0,0.0,0.0,0.0,0.0,0.0,0.0,0.0,0.0,0.0,0.0,0.0,0.0,0.0,0.0,0.0,0.0,0.0,0.0,0.0,0.0,-0.4922,-0.638,-0.7197,-0.7278,-0.7674,-0.7578,0.0,0.0,0.0,0.0,0.0,0.0,0.0,0.0,0.0,0.0,0.0,0.0,0.0,0.0,0.0,0.0,0.0,0.0,0.0,0.0,0.0,0.0,0.0,0.0,0.0,0.0,0.0,0.0,0.0,0.0,0.0,0.0,0.0,0.0,0.0,0.0,0.0,0.0,0.0,0.0,0.0,0.0,0.0,0.0,0.0,0.0,0.0,0.0,0.0,0.0,0.0,0.0,0.0,0.0,0.0,0.0,0.0,0.0,0.0,0.0,0.0,0.0,0.0,0.0,0.0,0.0,0.0,0.0,0.0,0.0,0.0,0.0,0.0,0.0,0.0,0.0,0.0,0.0,0.0,0.0,0.0,0.0,0.0,0.0,0.0,0.0,0.0,0.0,0.0,0.0,0.0,0.0,0.0,0.0,0.0,0.0,0.0,0.0,0.0,0.0,0.0,0.0,0.0,0.0,0.0,0.0,0.0,0.0,0.0,-0.5626,0.0,-0.7539,-0.7329,-0.7736,-0.7547,0.0,0.0,0.0,0.0,0.0,0.0,0.0,0.0,0.0,0.0,0.0,0.0,0.0,0.0,0.0,0.0,0.0,0.0,0.0,0.0,0.0,0.0,0.0,0.0,0.0,0.0,0.0,0.0,0.0,0.0,0.0,0.0,0.0,0.0,0.0,0.0,0.0,0.0,0.0,0.0,0.0,0.0,0.0,0.0,0.0,0.0,0.0,0.0,0.0,0.0,0.0,0.0,0.0,0.0,0.0,0.0,0.0,0.0,0.0,0.0,0.0,0.0,0.0,0.0,0.0,0.0,0.0,0.0,0.0,0.0,0.0,0.0,0.0,0.0,0.0,0.0,0.0,0.0,0.0,0.0,0.0,0.0,0.0,0.0,0.0,0.0,0.0,0.0,0.0,0.0,0.0,0.0,0.0,0.0,0.0,0.0,0.0,0.0,0.0,0.0,0.0,0.0,0.0,0.0,0.0,0.0,0.0,0.0,-0.5794,-0.7017,-0.7162,-0.7533,-0.8054,-0.8085,-0.7477,0.0,0.0,0.0,0.0,0.0,0.0,0.0,0.0,0.0,0.0,0.0,0.0,0.0,0.0,0.0,0.0,0.0,0.0,0.0,0.0,0.0,0.0,0.0,0.0,0.0,0.0,0.0,0.0,0.0,0.0,0.0,0.0,0.0,0.0,0.0,0.0,0.0,0.0,0.0,0.0,0.0,0.0,0.0,0.0,0.0,0.0,0.0,0.0,0.0,0.0,0.0,0.0,0.0,0.0,0.0,0.0,0.0,0.0,0.0,0.0,0.0,0.0,0.0,0.0,0.0,0.0,0.0,0.0,0.0,0.0,0.0,0.0,0.0,0.0,0.0,0.0,0.0,0.0,0.0,0.0,0.0,0.0,0.0,0.0,0.0,0.0,0.0,0.0,0.0,0.0,0.0,0.0,0.0,0.0,0.0,0.0,0.0,0.0,0.0,0.0,0.0,0.0,0.0,0.0,0.0,0.0,0.0,0.0,0.0,-0.7415,-0.8863,-0.9025,-0.7777,-0.8144,-0.7698,0.0,0.0,0.0,0.0,0.0,0.0,0.0,0.0,0.0,0.0,0.0,0.0,0.0,0.0,0.0,0.0,0.0,0.0,0.0,0.0,0.0,0.0,0.0,0.0,0.0,0.0,0.0,0.0,0.0,0.0,0.0,0.0,0.0,0.0,0.0,0.0,0.0,0.0,0.0,0.0,0.0,0.0,0.0,0.0,0.0,0.0,0.0,0.0,0.0,0.0,0.0,0.0,0.0,0.0,0.0,0.0,0.0,0.0,0.0,0.0,0.0,0.0,0.0,0.0,0.0,0.0,0.0,0.0,0.0,0.0,0.0,0.0,0.0,0.0,0.0,0.0,0.0,0.0,0.0,0.0,0.0,0.0,0.0,0.0,0.0,0.0,0.0,0.0,0.0,0.0,0.0,0.0,0.0,0.0,0.0,0.0,0.0,0.0,0.0,0.0,0.0,0.0,0.0,0.0,0.0,0.0,0.0,0.0,0.0,-0.9769,-1.0968,-1.0864,-0.9205,-0.9297,-0.8665,-0.7227,0.0,0.0,0.0,0.0,0.0,0.0,0.0,0.0,0.0,0.0,0.0,0.0,0.0,0.0,0.0,0.0,0.0,0.0,0.0,0.0,0.0,0.0,0.0,0.0,0.0,0.0,0.0,0.0,0.0,0.0,0.0,0.0,0.0,0.0,0.0,0.0,0.0,0.0,0.0,0.0,0.0,0.0,0.0,0.0,0.0,0.0,0.0,0.0,0.0,0.0,0.0,0.0,0.0,0.0,0.0,0.0,0.0,0.0,0.0,0.0,0.0,0.0,0.0,0.0,0.0,0.0,0.0,0.0,0.0,0.0,0.0,0.0,0.0,0.0,0.0,0.0,0.0,0.0,0.0,0.0,0.0,0.0,0.0,0.0,0.0,0.0,0.0,0.0,0.0,0.0,0.0,0.0,0.0,0.0,0.0,0.0,0.0,0.0,0.0,0.0,0.0,0.0,0.0,0.0,0.0,0.0,0.0,0.0,-1.3515,-1.3417,-1.2954,-1.2066,-1.1315,-1.0229,0.0,0.0,0.0,0.0,0.0,0.0,0.0,0.0,0.0,0.0,0.0,0.0,0.0,0.0,0.0,0.0,0.0,0.0,0.0,0.0,0.0,0.0,0.0,0.0,0.0,0.0,0.0,0.0,0.0,0.0,0.0,0.0,0.0,0.0,0.0,0.0,0.0,0.0,0.0,0.0,0.0,0.0,0.0,0.0,0.0,0.0,0.0,0.0,0.0,0.0,0.0,0.0,0.0,0.0,0.0,0.0,0.0,0.0,0.0,0.0,0.0,0.0,0.0,0.0,0.0,0.0,0.0,0.0,0.0,0.0,0.0,0.0,0.0,0.0,0.0,0.0,0.0,0.0,0.0,0.0,0.0,0.0,0.0,0.0,0.0,0.0,0.0,0.0,0.0,0.0,0.0,0.0,0.0,0.0,0.0,0.0,0.0,0.0,0.0,0.0,0.0,0.0,0.0,0.0,0.0,0.0,0.0,0.0,0.0,-1.4986,-1.6035,-1.5442,-1.3152,-1.2823,-1.174,0.0,0.0,0.0,0.0,0.0,0.0,0.0,0.0,0.0,0.0,0.0,0.0,0.0,0.0,0.0,0.0,0.0,0.0,0.0,0.0,0.0,0.0,0.0,0.0,0.0,0.0,0.0,0.0,0.0,0.0,0.0,0.0,0.0,0.0,0.0,0.0,0.0,0.0,0.0,0.0,0.0,0.0,0.0,0.0,0.0,0.0,0.0,0.0,0.0,0.0,0.0,0.0,0.0,0.0,0.0,0.0,0.0,0.0,0.0,0.0,0.0,0.0,0.0,0.0,0.0,0.0,0.0,0.0,0.0,0.0,0.0,0.0,0.0,0.0,0.0,0.0,0.0,0.0,0.0,0.0,0.0,0.0,0.0,0.0,0.0,0.0,0.0,0.0,0.0,0.0,0.0,0.0,0.0,0.0,0.0,0.0,0.0,0.0,0.0,0.0,0.0,0.0,0.0,0.0,0.0,0.0,0.0,0.0,-1.4116,-1.5561,-1.7039,-1.683,-1.4843,-1.4174,-1.2915,0.0,0.0,0.0,0.0,0.0,0.0,0.0,0.0,0.0,0.0,0.0,0.0,0.0,0.0,0.0,0.0,0.0,0.0,0.0,0.0,0.0,0.0,0.0,0.0,0.0,0.0,0.0,0.0,0.0,0.0,0.0,0.0,0.0,0.0,0.0,0.0,0.0,0.0,0.0,0.0,0.0,0.0,0.0,0.0,0.0,0.0,0.0,0.0,0.0,0.0,0.0,0.0,0.0,0.0,0.0,0.0,0.0,0.0,0.0,0.0,0.0,0.0,0.0,0.0,0.0,0.0,0.0,0.0,0.0,0.0,0.0,0.0,0.0,0.0,0.0,0.0,0.0,0.0,0.0,0.0,0.0,0.0,0.0,0.0,0.0,0.0,0.0,0.0,0.0,0.0,0.0,0.0,0.0,0.0,0.0,0.0,0.0,0.0,0.0,0.0,0.0,0.0,0.0,0.0,0.0,0.0,0.0,0.0,-1.427,-1.5736,-1.7133,-1.7534,-1.6838,-1.547,-1.3979,0.0,0.0,0.0,0.0,0.0,0.0,0.0,0.0,0.0,0.0,0.0,0.0,0.0,0.0,0.0,0.0,0.0,0.0,0.0,0.0,0.0,0.0,0.0,0.0,0.0,0.0,0.0,0.0,0.0,0.0,0.0,0.0,0.0,0.0,0.0,0.0,0.0,0.0,0.0,0.0,0.0,0.0,0.0,0.0,0.0,0.0,0.0,0.0,0.0,0.0,0.0,0.0,0.0,0.0,0.0,0.0,0.0,0.0,0.0,0.0,0.0,0.0,0.0,0.0,0.0,0.0,0.0,0.0,0.0,0.0,0.0,0.0,0.0,0.0,0.0,0.0,0.0,0.0,0.0,0.0,0.0,0.0,0.0,0.0,0.0,0.0,0.0,0.0,0.0,0.0,0.0,0.0,0.0,0.0,0.0,0.0,0.0,0.0,0.0,0.0,0.0,0.0,0.0,0.0,0.0,0.0,0.0,0.0,-1.5226,-1.6679,-1.7621,-1.8012,-1.7808,-1.6778,-1.5266,0.0,0.0,0.0,0.0,0.0,0.0,0.0,0.0,0.0,0.0,0.0,0.0,0.0,0.0,0.0,0.0,0.0,0.0,0.0,0.0,0.0,0.0,0.0,0.0,0.0,0.0,0.0,0.0,0.0,0.0,0.0,0.0,0.0,0.0,0.0,0.0,0.0,0.0,0.0,0.0,0.0,0.0,0.0,0.0,0.0,0.0,0.0,0.0,-0.6277,0.0,0.0,0.0,0.0,0.0,0.0,0.0,0.0,0.0,0.0,0.0,0.0,0.0,0.0,0.0,0.0,0.0,0.0,0.0,0.0,0.0,0.0,0.0,0.0,0.0,0.0,0.0,0.0,0.0,0.0,0.0,0.0,0.0,0.0,0.0,0.0,0.0,0.0,0.0,0.0,0.0,0.0,0.0,0.0,0.0,0.0,0.0,0.0,0.0,0.0,0.0,0.0,0.0,0.0,0.0,0.0,0.0,0.0,0.0,-1.5687,-1.7183,-1.7976,-1.8345,-1.8222,-1.7704,-1.6314,0.0,0.0,0.0,0.0,0.0,0.0,0.0,0.0,0.0,0.0,0.0,0.0,0.0,0.0,0.0,0.0,0.0,0.0,0.0,0.0,0.0,0.0,0.0,0.0,0.0,0.0,0.0,0.0,0.0,0.0,0.0,0.0,0.0,0.0,0.0,0.0,0.0,0.0,0.0,0.0,0.0,0.0,0.0,0.0,0.0,0.0,0.0,0.0,0.0,0.0,0.0,0.0,0.0,0.0,0.0,0.0,0.0,0.0,0.0,0.0,0.0,0.0,0.0,0.0,0.0,0.0,0.0,0.0,0.0,0.0,0.0,0.0,0.0,0.0,0.0,0.0,0.0,0.0,0.0,0.0,0.0,0.0,0.0,0.0,0.0,0.0,0.0,0.0,0.0,0.0,0.0,0.0,0.0,0.0,0.0,0.0,0.0,0.0,0.0,0.0,0.0,0.0,0.0,0.0,0.0,0.0,0.0,-1.4852,-1.6401,-1.7835,-1.8634,-1.8905,-1.8639,-1.8393,-1.7132,-1.4743,0.0,0.0,0.0,0.0,0.0,0.0,0.0,0.0,0.0,0.0,0.0,0.0,0.0,0.0,0.0,0.0,0.0,0.0,0.0,0.0,0.0,0.0,0.0,0.0,0.0,0.0,0.0,0.0,0.0,0.0,0.0,0.0,0.0,0.0,0.0,0.0,0.0,0.0,-0.6475,-0.6377,0.0,0.0,0.0,0.0,0.0,0.0,0.0,0.0,-0.5079,0.0,0.0,0.0,0.0,0.0,0.0,0.0,0.0,0.0,0.0,0.0,0.0,0.0,0.0,0.0,0.0,0.0,0.0,0.0,0.0,0.0,0.0,0.0,0.0,0.0,0.0,0.0,0.0,0.0,0.0,0.0,0.0,0.0,0.0,0.0,0.0,0.0,0.0,0.0,0.0,0.0,0.0,0.0,0.0,0.0,0.0,0.0,0.0,0.0,0.0,0.0,0.0,0.0,0.0,0.0,0.0,-1.4937,-1.7213,-1.8796,-1.9668,-2.045,-2.052,-1.975,-1.8968,-1.738,-1.4984,0.0,0.0,0.0,0.0,0.0,0.0,0.0,0.0,0.0,0.0,0.0,0.0,0.0,0.0,0.0,0.0,0.0,0.0,0.0,0.0,0.0,0.0,0.0,0.0,0.0,0.0,0.0,0.0,0.0,0.0,0.0,0.0,0.0,0.0,0.0,0.0,0.0,0.0,0.0,-0.685,-0.686,0.0,0.0,0.0,0.0,0.0,0.0,0.0,0.0,-0.6888,0.0,0.0,0.0,0.0,0.0,0.0,0.0,0.0,0.0,0.0,0.0,0.0,0.0,0.0,0.0,0.0,0.0,0.0,0.0,0.0,0.0,0.0,0.0,0.0,0.0,0.0,0.0,0.0,0.0,0.0,0.0,0.0,0.0,0.0,0.0,0.0,0.0,0.0,0.0,0.0,0.0,0.0,0.0,0.0,0.0,0.0,0.0,0.0,0.0,0.0,0.0,0.0,0.0,0.0,0.0,-1.5521,-1.793,-1.9532,-2.0289,-2.1125,-2.1125,-2.0219,-1.9291,-1.763,0.0,0.0,0.0,0.0,0.0,0.0,0.0,0.0,0.0,0.0,0.0,0.0,0.0,0.0,0.0,0.0,0.0,0.0,0.0,0.0,0.0,0.0,0.0,0.0,0.0,0.0,0.0,0.0,0.0,0.0,0.0,0.0,0.0,0.0,0.0,0.0,0.0,0.0,0.0,0.0,-0.829,-0.8776,-0.8858,0.0,0.0,0.0,0.0,0.0,0.0,-0.7322,-0.767,0.0,0.0,0.0,0.0,0.0,0.0,0.0,0.0,0.0,0.0,0.0,0.0,0.0,0.0,0.0,0.0,0.0,0.0,0.0,0.0,0.0,0.0,0.0,0.0,0.0,0.0,0.0,0.0,0.0,0.0,0.0,0.0,0.0,0.0,0.0,0.0,0.0,0.0,0.0,0.0,0.0,0.0,0.0,0.0,0.0,0.0,0.0,0.0,0.0,0.0,0.0,0.0,0.0,0.0,0.0,-1.5912,-1.8489,-2.0105,-2.0768,-2.1757,-2.1778,-2.0685,-1.9592,-1.7776,0.0,0.0,0.0,0.0,0.0,0.0,0.0,0.0,0.0,0.0,0.0,0.0,0.0,0.0,0.0,0.0,0.0,0.0,0.0,0.0,0.0,0.0,0.0,0.0,0.0,0.0,0.0,0.0,0.0,0.0,0.0,0.0,0.0,0.0,0.0,0.0,0.0,0.0,0.0,0.0,0.0,-1.0536,-0.9766,-0.9368,0.0,0.0,0.0,0.0,-1.0389,-0.9055,0.0,0.0,0.0,0.0,0.0,0.0,0.0,0.0,0.0,0.0,0.0,0.0,0.0,0.0,0.0,0.0,0.0,0.0,0.0,0.0,0.0,0.0,0.0,0.0,0.0,0.0,0.0,0.0,0.0,0.0,0.0,0.0,0.0,0.0,0.0,0.0,0.0,0.0,0.0,0.0,0.0,0.0,0.0,0.0,0.0,0.0,0.0,0.0,0.0,0.0,0.0,0.0,0.0,0.0,0.0,0.0,-1.6762,-1.9903,-2.1555,-2.1702,-2.3125,-2.318,-2.1587,-2.0003,-1.7648,0.0,0.0,0.0,0.0,0.0,0.0,0.0,0.0,0.0,0.0,0.0,0.0,0.0,0.0,0.0,0.0,0.0,0.0,0.0,0.0,0.0,0.0,0.0,0.0,0.0,0.0,0.0,0.0,0.0,0.0,0.0,0.0,0.0,0.0,0.0,0.0,0.0,0.0,0.0,0.0,0.0,-1.1037,-1.143,-1.0275,-0.9271,0.0,0.0,-1.2324,-1.3509,-1.1141,0.0,0.0,0.0,0.0,0.0,0.0,0.0,0.0,0.0,0.0,0.0,0.0,0.0,0.0,0.0,0.0,0.0,0.0,0.0,0.0,0.0,0.0,0.0,0.0,0.0,0.0,0.0,0.0,0.0,0.0,0.0,0.0,0.0,0.0,0.0,0.0,0.0,0.0,0.0,0.0,0.0,0.0,0.0,0.0,0.0,0.0,0.0,0.0,0.0,0.0,0.0,0.0,0.0,0.0,0.0,-1.4934,-1.6938,-2.0142,-2.1794,-2.1831,-2.3373,-2.341,-2.1805,-2.058,-1.8377,0.0,0.0,0.0,0.0,0.0,0.0,0.0,0.0,0.0,0.0,0.0,0.0,0.0,0.0,0.0,0.0,0.0,0.0,0.0,0.0,0.0,0.0,0.0,0.0,0.0,0.0,0.0,0.0,0.0,0.0,0.0,0.0,0.0,0.0,0.0,0.0,0.0,0.0,0.0,0.0,0.0,0.0,-1.1823,-1.207,0.0,0.0,0.0,-1.4611,-1.4429,0.0,0.0,0.0,0.0,0.0,0.0,0.0,0.0,0.0,0.0,0.0,0.0,0.0,0.0,0.0,0.0,0.0,0.0,0.0,0.0,0.0,0.0,0.0,0.0,0.0,0.0,0.0,0.0,0.0,0.0,0.0,0.0,0.0,0.0,0.0,0.0,0.0,0.0,0.0,0.0,0.0,0.0,0.0,0.0,0.0,0.0,0.0,0.0,0.0,0.0,0.0,0.0,0.0,0.0,0.0,0.0,0.0,-1.722,-2.0225,-2.1904,-2.2125,-2.3465,-2.3446,-2.1849,-2.0951,0.0,0.0,0.0,0.0,0.0,0.0,0.0,0.0,0.0,0.0,0.0,0.0,0.0,0.0,0.0,0.0,0.0,0.0,0.0,0.0,0.0,0.0,0.0,0.0,0.0,0.0,0.0,-0.0713,0.0,0.0,0.0,0.0,0.0,0.0,0.0,0.0,0.0,0.0,0.0,0.0,0.0,0.0,-1.2535,-1.2542,-1.3604,-1.4344,0.0,0.0,-1.6568,-1.5808,-1.4977,-1.3772,0.0,0.0,0.0,0.0,0.0,0.0,0.0,0.0,0.0,0.0,0.0,0.0,0.0,0.0,0.0,0.0,0.0,0.0,0.0,0.0,0.0,0.0,0.0,0.0,0.0,0.0,0.0,0.0,0.0,0.0,0.0,0.0,0.0,0.0,0.0,0.0,0.0,0.0,0.0,0.0,0.0,0.0,0.0,0.0,0.0,0.0,0.0,0.0,0.0,0.0,0.0,0.0,0.0,0.0,-1.5649,-1.8023,-2.0527,-2.2161,-2.2914,-2.3768,-2.3428,-2.1849,-2.096,-1.8942,0.0,0.0,0.0,0.0,0.0,0.0,0.0,0.0,0.0,0.0,0.0,0.0,0.0,0.0,0.0,0.0,0.0,0.0,0.0,0.0,0.0,0.0,0.0,0.0,0.0,0.0,0.0,0.0,0.0,0.0,0.0,0.0,0.0,0.0,0.0,0.0,0.0,0.0,0.0,0.0,0.0,-1.4228,-1.4228,-1.4379,-1.45,0.0,-1.5837,-1.7367,-1.8757,-1.6445,-1.4067,-1.2884,0.0,0.0,0.0,0.0,0.0,0.0,0.0,0.0,0.0,0.0,0.0,0.0,0.0,0.0,0.0,0.0,0.0,0.0,0.0,0.0,0.0,0.0,0.0,0.0,0.0,0.0,0.0,0.0,0.0,0.0,0.0,0.0,0.0,0.0,0.0,0.0,0.0,0.0,0.0,0.0,0.0,0.0,0.0,0.0,0.0,0.0,0.0,0.0,0.0,0.0,0.0,0.0,0.0,-1.5692,-1.8089,-2.0546,-2.2198,-2.2988,-2.3786,-2.3419,-2.1831,-2.1473,-1.9711,0.0,0.0,0.0,0.0,0.0,0.0,0.0,0.0,0.0,0.0,0.0,0.0,0.0,0.0,0.0,0.0,0.0,0.0,0.0,0.0,0.0,0.0,0.0,0.0,0.0,0.0,0.0,0.0,-0.448,-0.448,-0.4482,0.0,0.0,0.0,0.0,0.0,0.0,0.0,0.0,0.0,0.0,-1.483,-1.5801,-1.596,0.0,0.0,-1.6695,-1.8574,-1.9205,-1.7429,-1.5515,-1.408,-1.2374,0.0,0.0,0.0,0.0,0.0,0.0,0.0,0.0,0.0,0.0,0.0,0.0,0.0,0.0,0.0,0.0,0.0,0.0,0.0,0.0,0.0,0.0,0.0,0.0,0.0,0.0,0.0,0.0,0.0,0.0,0.0,0.0,0.0,0.0,0.0,0.0,0.0,0.0,0.0,0.0,0.0,0.0,0.0,0.0,0.0,0.0,0.0,0.0,0.0,0.0,0.0,0.0,-1.5814,-1.8445,-2.0674,-2.2308,-2.3336,-2.3914,-2.3547,-2.2208,-2.1923,-2.0323,0.0,0.0,0.0,0.0,0.0,0.0,0.0,0.0,0.0,0.0,0.0,0.0,0.0,0.0,0.0,0.0,0.0,0.0,0.0,0.0,0.0,0.0,0.0,0.0,0.0,0.0,0.0,0.0,-0.4669,-0.4521,-0.4527,0.0,0.0,0.0,0.0,0.0,0.0,0.0,0.0,0.0,0.0,-1.5906,-1.678,-1.7312,-1.7227,-1.6089,-1.7839,-1.9279,-1.9279,-1.7961,-1.6358,-1.4744,0.0,0.0,0.0,0.0,0.0,0.0,0.0,0.0,0.0,0.0,0.0,0.0,0.0,0.0,0.0,0.0,0.0,0.0,0.0,0.0,0.0,0.0,0.0,0.0,0.0,0.0,0.0,-1.0889,0.0,0.0,-0.9805,0.0,0.0,0.0,0.0,0.0,0.0,0.0,0.0,0.0,0.0,0.0,0.0,0.0,0.0,0.0,0.0,0.0,0.0,0.0,0.0,0.0,0.0,-1.6096,-1.9242,-2.0968,-2.2584,-2.4107,-2.4199,-2.3804,-2.2988,-2.2216,-2.0588,-1.7967,0.0,0.0,0.0,0.0,0.0,0.0,0.0,0.0,0.0,0.0,0.0,0.0,0.0,0.0,0.0,0.0,0.0,0.0,0.0,0.0,0.0,0.0,0.0,0.0,0.0,0.0,-0.5839,-0.5073,-0.4595,0.0,0.0,0.0,0.0,0.0,0.0,0.0,0.0,0.0,-1.4568,-1.6553,-1.7748,-1.7048,-1.8236,-1.9132,-1.9106,-1.9224,-1.9279,-1.9279,-1.7961,-1.6358,0.0,0.0,0.0,0.0,0.0,0.0,0.0,0.0,0.0,0.0,0.0,0.0,0.0,0.0,0.0,0.0,0.0,0.0,0.0,0.0,0.0,0.0,0.0,0.0,0.0,0.0,0.0,-1.368,-1.3439,0.0,0.0,0.0,0.0,0.0,0.0,0.0,0.0,0.0,0.0,0.0,-2.0742,-2.0527,0.0,0.0,0.0,0.0,0.0,0.0,0.0,0.0,0.0,0.0,0.0,0.0,-1.7422,-2.0034,-2.174,-2.3125,-2.4163,-2.4199,-2.3823,-2.3006,-2.2235,-2.0075,-1.646,0.0,0.0,0.0,0.0,0.0,0.0,0.0,0.0,0.0,0.0,0.0,0.0,0.0,0.0,0.0,0.0,0.0,0.0,0.0,0.0,0.0,0.0,0.0,0.0,0.0,-0.6765,0.0,0.0,0.0,0.0,0.0,0.0,0.0,0.0,0.0,0.0,0.0,-1.5282,-1.7422,-1.777,-1.7997,-1.8445,-1.8948,-1.9279,0.0,0.0,0.0,0.0,0.0,0.0,0.0,0.0,0.0,0.0,0.0,0.0,0.0,0.0,-1.7515,-1.7621,-1.4932,-1.2745,-1.3039,0.0,0.0,0.0,0.0,0.0,0.0,0.0,0.0,0.0,0.0,0.0,0.0,0.0,0.0,-1.7216,0.0,-1.6637,0.0,0.0,0.0,0.0,0.0,0.0,0.0,0.0,-2.3566,-2.405,-2.385,-2.337,-2.2852,0.0,-2.2015,-2.046,0.0,0.0,0.0,0.0,0.0,0.0,0.0,0.0,-1.8451,-2.0547,-2.2186,-2.341,-2.4163,-2.4199,-2.3951,-2.341,-2.2052,-1.9774,-1.646,-1.4999,-1.346,0.0,0.0,0.0,0.0,0.0,0.0,0.0,0.0,0.0,0.0,0.0,0.0,0.0,0.0,0.0,0.0,0.0,0.0,0.0,0.0,0.0,0.0,0.0,-0.7955,0.0,0.0,0.0,0.0,0.0,0.0,0.0,0.0,0.0,-1.4402,-1.5148,-1.653,-1.8985,-1.8702,-1.8511,-1.9205,0.0,0.0,0.0,0.0,0.0,0.0,0.0,-1.7557,-1.6993,-1.7869,-1.8419,-1.7825,-1.642,-1.62,-1.8838,0.0,0.0,-1.9279,-1.7555,-1.6037,-1.6026,-1.5772,-1.5542,-1.5607,-1.5393,-1.5066,0.0,0.0,0.0,0.0,0.0,0.0,0.0,0.0,-2.2542,-2.2097,0.0,-2.0492,0.0,0.0,0.0,0.0,-1.8652,-2.1854,0.0,0.0,-2.6681,-2.7192,-2.6454,-2.6507,-2.5774,-2.4322,-2.4942,-2.4423,-2.2692,-1.9439,0.0,0.0,0.0,0.0,0.0,0.0,-1.9252,-2.0823,-2.2368,-2.35,-2.4192,-2.42,-2.419,-2.408,-2.1814,-1.9768,-1.8047,-1.5735,-1.4339,-1.4094,-1.1059,0.0,0.0,0.0,0.0,0.0,0.0,0.0,0.0,0.0,0.0,0.0,0.0,0.0,0.0,0.0,0.0,0.0,0.0,0.0,0.0,-0.8704,0.0,0.0,0.0,0.0,0.0,0.0,0.0,0.0,0.0,0.0,-1.4769,-1.6468,-1.8163,-1.926,0.0,0.0,0.0,0.0,-2.005,-2.1629,-2.0527,-1.9462,-1.9315,-1.9279,-1.8775,-1.7348,0.0,0.0,-1.9554,-1.8005,-1.7458,-1.9014,-1.9462,-1.9444,-1.9554,-1.9344,-1.9161,-1.9216,-1.8467,-1.7972,-1.8108,-1.7671,-1.7506,-2.8376,0.0,0.0,0.0,0.0,-2.4897,-2.538,-2.6143,-2.6123,-2.599,-2.5704,-2.4835,0.0,0.0,0.0,0.0,0.0,0.0,-2.58,-2.6792,-2.7415,-2.7579,-2.7407,-2.7489,-2.728,-2.6799,-2.6404,-2.5654,-2.4538,-2.3025,-2.1174,-1.9111,0.0,0.0,0.0,0.0,-2.1662,-2.2622,-2.3598,-2.4178,-2.4339,-2.4238,-2.3933,-2.3345,-2.2089,-2.0649,-1.8984,-1.7643,-1.6376,-1.5151,-1.3512,0.0,0.0,0.0,0.0,0.0,0.0,0.0,0.0,0.0,0.0,0.0,0.0,0.0,0.0,0.0,0.0,0.0,0.0,0.0,-1.069,-0.9992,-0.9435,0.0,0.0,0.0,0.0,0.0,0.0,0.0,0.0,0.0,-1.7784,-1.8445,-1.9407,0.0,0.0,-1.9279,-1.9279,-2.129,-2.2969,-2.3437,-2.3098,0.0,-1.9638,-1.9279,-1.9554,-2.0288,-2.1206,-2.1262,-1.9572,-1.8922,-1.8757,-1.9279,-2.1225,-2.2804,-2.2657,-2.0858,-1.9711,-2.0207,-2.0501,-2.0647,-2.0692,-2.0537,-2.0142,-3.3326,-3.0311,-2.8485,-2.8006,-2.8485,-2.851,-2.8964,-2.9711,-2.9685,-2.9711,-2.9647,-2.8785,-2.7611,-2.6179,-2.5175,0.0,0.0,0.0,-2.8493,-2.9159,-2.9564,-2.9774,-2.9796,-2.9538,-2.9236,-2.8852,-2.8005,-2.7159,-2.6332,-2.5837,-2.4812,-2.3217,0.0,0.0,-2.1075,-2.2618,-2.3606,-2.4033,-2.5008,-2.5323,-2.4921,-2.445,-2.3823,-2.3024,-2.2235,-2.1151,-1.9822,-1.8639,-1.7545,-1.6551,-1.5608,-1.3915,0.0,0.0,0.0,0.0,0.0,0.0,0.0,0.0,0.0,0.0,0.0,-0.3831,-0.1998,0.0,0.0,0.0,-0.9599,-1.1985,-1.2971,-1.1529,0.0,0.0,0.0,0.0,0.0,0.0,0.0,-1.9179,-1.8463,-1.8695,-2.0931,-2.1243,-2.1619,-2.2655,-2.1342,-2.0288,-2.0307,0.0,-2.4199,-2.4199,-2.4247,-2.3575,-2.1572,-2.0711,-2.0839,-2.2492,-2.2197,-2.1793,-2.139,-2.0747,-2.0546,-2.1298,-2.2868,-2.4199,-2.4199,-2.2547,-2.1408,-2.2069,-2.2483,-2.2547,-2.1959,-2.1794,-2.1482,-3.6962,-3.6622,-3.3577,-3.2237,-3.2102,-3.2096,-3.2564,-3.3295,-3.3237,-3.3218,-3.3135,-3.2205,-3.1225,-3.0239,-2.9254,0.0,-2.8984,-3.0729,-3.152,-3.1647,-3.2513,-3.2891,-3.2852,-3.2141,-3.1352,-3.0462,-2.9602,-2.878,-2.8011,-2.7915,-2.789,-2.7794,-2.4725,-2.3083,-2.3115,-2.4557,-2.526,-2.5165,-2.6419,-2.6652,-2.569,-2.4709,-2.3823,-2.3024,-2.2208,-2.1382,-2.0511,-1.901,-1.8159,-1.808,-1.7391,-1.6219,-1.4454,0.0,0.0,0.0,0.0,0.0,0.0,0.0,0.0,0.0,0.0,0.0,0.0,0.0,0.0,0.0,-1.2814,0.0,-1.475,-1.3374,0.0,0.0,0.0,-1.814,-1.5209,-1.7491,-1.9407,-1.9646,0.0,0.0,-2.4192,-2.4504,-2.4459,-2.4589,-2.3105,-2.1995,-2.2004,-2.329,-2.4237,-2.4266,-2.4374,-2.4381,-2.3952,-2.2911,-2.2515,-2.3787,-2.2977,-2.2627,-2.3639,-2.2969,-2.2712,-2.374,-2.4181,-2.4199,-2.4199,-2.4052,-2.4199,-2.4071,-2.4126,-2.3694,-2.2455,-2.2125,-2.2097,-3.9246,-3.8604,-3.7815,-3.6719,-3.5519,-3.5507,-3.5988,-3.6719,-3.6058,-3.5788,-3.5692,-3.4178,-3.2638,-3.1176,-3.0814,-3.0731,-3.0899,-3.1922,-3.2469,-3.2576,-3.2795,-3.2891,-3.2872,-3.2718,-3.2179,-3.1371,-3.05,-2.966,-2.8819,-2.8203,-2.789,-2.7857,-2.7052,-2.6638,-2.6647,-2.702,-2.7169,-2.7032,-2.7123,-2.6631,-2.5492,-2.4623,-2.3823,-2.3024,-2.2216,-2.1382,-2.0529,-1.9557,-1.9006,-1.8991,-1.8808,-1.7976,-1.6335,-1.4428,0.0,0.0,0.0,0.0,0.0,0.0,0.0,0.0,0.0,-0.7751,-0.8435,0.0,-1.0567,0.0,-1.5154,-1.6505,-1.6908,-1.623,0.0,0.0,-1.7876,-1.9022,-1.825,-1.8838,-2.0252,-2.2758,-2.0839,-2.1604,-2.7643,-2.713,-2.6507,-2.7058,-2.5168,-2.3721,-2.3782,-2.4207,-2.4588,-2.4604,-2.4738,-2.4778,-2.4591,-2.4345,-2.4092,-2.4256,-2.397,-2.3906,-2.4145,-2.3914,-2.3768,-2.4116,-2.4199,-2.4199,-2.4209,-2.4199,-2.4199,-2.4199,-2.4199,-2.4126,-2.3685,-2.3621,-2.3612,-4.0246,-3.9842,-3.9842,-3.9265,-3.8334,-3.7603,-3.7546,-3.795,-3.7488,-3.7288,-3.7192,-3.5851,-3.4721,-3.3815,-3.335,-3.3224,-3.3316,-3.3745,-3.3978,-3.405,-3.4051,-3.4058,-3.4045,-3.3641,-3.3237,-3.2776,-3.1923,-3.1256,-3.0756,-2.9973,-2.9583,-2.9563,-2.9198,-2.9008,-2.8946,-2.8582,-2.8312,-2.8129,-2.7415,-2.6702,-2.5935,-2.4795,-2.3988,-2.352,-2.2409,-2.1592,-2.1088,-1.9932,-1.9279,-1.9279,-1.9279,-1.8574,-1.6982,-1.5374,-1.3398,0.0,0.0,0.0,0.0,0.0,0.0,0.0,0.0,0.0,0.0,0.0,-1.3135,-1.6346,-1.8133,-1.9043,-1.8944,-1.8346,-1.8262,-1.9006,-2.0527,-2.15,-2.1482,-2.0178,-2.0564,-2.3786,-2.2663,-2.3406,-2.808,-2.85,-2.8116,-2.7837,-2.6512,-2.5347,-2.4778,-2.4814,-2.4949,-2.4974,-2.5062,-2.5025,-2.4761,-2.4872,-2.4855,-2.4602,-2.4513,-2.4419,-2.4237,-2.4199,-2.4199,-2.4199,-2.4199,-2.4266,-2.4384,-2.4284,-2.4218,-2.4312,-2.4303,-2.4257,-2.4218,-2.4228,-2.4247,-4.0785,-4.0662,-4.0669,-4.0612,-4.0381,-3.8931,-3.8315,-3.8315,-3.82,-3.8104,-3.795,-3.7212,-3.6865,-3.6808,-3.6135,-3.5827,-3.5827,-3.5692,-3.5635,-3.5654,-3.5538,-3.55,-3.5462,-3.4718,-3.4302,-3.4167,-3.343,-3.3006,-3.2872,-3.2199,-3.1795,-3.166,-3.0942,-3.0489,-3.0267,-2.9513,-2.8998,-2.8782,-2.752,-2.68,-2.6576,-2.5034,-2.4135,-2.3988,-2.2602,-2.1739,-2.1592,-2.0123,-1.9279,-1.9279,-1.9279,-1.8673,-1.7275,-1.5888,-1.4402,0.0,-1.3036,0.0,0.0,0.0,0.0,0.0,0.0,0.0,0.0,-1.3343,-1.6408,-1.9462,-2.1188,-2.1721,-2.0768,-2.0023,-2.0197,-2.1656,-2.3226,-2.4199,-2.4089,-2.1647,-2.1023,-2.3878,-2.4755,-2.5903,-2.7804,-2.9205,-2.9413,-2.8183,-2.774,-2.7153,-2.5929,-2.549,-2.5264,-2.5308,-2.5308,-2.5149,-2.4908,-2.5031,-2.5109,-2.4861,-2.4723,-2.4543,-2.4266,-2.4228,-2.4228,-2.4275,-2.4284,-2.4393,-2.47,-2.4461,-2.4348,-2.4503,-2.4526,-2.4432,-2.4284,-2.4312,-2.4348,-4.2181,-4.1577,-4.1546,-4.1143,-4.0477,-4.0169,-4.0035,-3.9996,-3.9342,-3.8661,-3.8007,-3.7834,-3.7757,-3.7738,-3.7603,-3.7526,-3.7488,-3.6788,-3.6462,-3.6442,-3.5808,-3.55,-3.55,-3.5327,-3.4891,-3.4225,-3.4052,-3.359,-3.2891,-3.2737,-3.2352,-3.1718,-3.1545,-3.1034,-3.024,0.0,0.0,0.0,-2.766,-2.6742,-2.6568,-2.5016,-2.3896,-2.3226,-2.2308,0.0,-2.0749,-1.9803,-1.9279,-1.9279,-1.9279,0.0,0.0,0.0,0.0,0.0,0.0,0.0,0.0,0.0,0.0,0.0,-1.7631,-1.7062,-1.5172,-1.705,-1.9389,-2.1739,-2.3061,-2.3144,-2.1702,-2.1435,-2.1454,-2.1812,-2.3235,-2.4199,-2.4171,-2.3621,-2.3566,-2.4126,-2.6833,-2.894,-2.9574,-3.0132,-3.012,-2.9594,-2.9502,-2.9417,-2.9225,-2.6998,-2.5423,-2.5308,-2.5462,-2.5288,-2.5201,-2.5315,-2.536,-2.4937,-2.4858,-2.4741,-2.4468,-2.4373,-2.4434,-2.4588,-2.4613,-2.4681,-2.494,-2.4764,-2.4634,-2.4723,-2.4806,-2.4766,-2.4432,-2.4459,-2.451,-4.2835,-4.2412,-4.197,-4.1546,0.0,-4.0689,-4.0496,-4.0458,-4.0073,-3.9631,-3.9219,-3.8823,-3.8642,-3.8604,-3.82,-3.8007,-3.7988,-3.7546,-3.7353,-3.7296,-3.6481,-3.6096,-3.6084,-3.5692,-3.5269,-3.4853,-3.4834,-3.4622,-3.418,-3.3737,-3.3122,-3.2295,-3.191,-3.12,-3.0225,-2.9869,-2.958,-2.9301,-2.8022,-2.7095,-2.6576,-2.5411,-2.441,-2.3611,-2.2795,0.0,0.0,0.0,0.0,0.0,0.0,0.0,0.0,0.0,0.0,-1.8126,-1.7472,-1.686,-1.6383,-1.7392,-1.8419,-1.9227,-2.0042,-2.0068,-1.8977,-2.0629,-2.2006,-2.274,-2.3657,-2.4025,-2.363,-2.3226,-2.3199,-2.3694,-2.4043,-2.474,-2.6235,-2.6565,-2.6576,-2.6688,-2.8307,-2.9692,-3.0038,-3.026,-3.0318,-3.0266,-3.0227,-3.0241,-3.0209,-2.8939,-2.7846,-2.7706,-2.6192,-2.5635,-2.639,-2.6582,-2.6631,-2.6625,-2.646,-2.5861,-2.4881,-2.4693,-2.4771,-2.4955,-2.5,-2.5253,-2.6147,-2.5678,-2.5114,-2.5404,-2.5323,-2.5075,-2.4759,-2.4727,-2.4716,-4.3451,-4.3239,-4.2547,-4.2154,-4.1989,-4.1277,-4.0881,-4.07,0.0,0.0,0.0,-3.9804,-3.9515,-3.9457,-3.8757,-3.843,-3.843,-3.8296,-3.8219,-3.818,-3.7161,-3.6712,-3.6654,-3.5885,-3.55,-3.55,-3.55,-3.55,-3.5481,-3.4776,-3.3891,-3.291,-3.2237,-3.1316,-3.0192,-2.9726,-2.9404,-2.9161,-2.833,-2.7463,-2.6612,-2.5815,-2.5026,-2.4218,-2.3428,-2.3006,-2.2988,-2.2235,-2.1794,-2.1776,-2.0564,-1.9701,-1.9334,-1.9572,-1.9756,-1.9701,-1.9014,-1.864,-1.8775,-1.9987,-2.0804,-2.0933,-2.173,-2.2143,-2.1978,-2.3061,-2.3712,-2.3501,-2.419,-2.4905,-2.5521,-2.5016,-2.5016,-2.597,-2.5456,-2.6161,-2.8546,-2.8987,-2.8893,-2.9112,-2.9272,-2.956,-2.9864,-3.009,-3.0286,-3.0355,-3.0361,-3.0404,-3.0404,-3.0244,-3.0077,-2.9865,-2.8058,-2.6808,-2.7659,-2.8236,-2.8357,-2.8146,-2.7892,-2.7191,-2.5977,-2.5519,-2.5694,-2.6409,-2.6206,-2.6874,-2.7923,-2.7311,-2.6261,-2.6339,-2.5789,-2.5248,-2.5111,-2.5013,-2.4935,-4.4797,-4.4105,-4.4008,-4.3547,-4.2912,-4.2797,-4.2316,-4.1566,-4.0835,-4.0496,-4.0496,-4.0381,-4.0323,-4.0323,-4.0208,-4.015,-4.0112,-3.9419,-3.9104,-3.9027,-3.7469,-3.6712,-3.6654,-3.5865,-3.55,-3.55,-3.55,-3.55,-3.5481,-3.5365,-3.45,-3.3064,-3.2776,-3.1774,-3.0056,-2.9707,-2.9464,-2.9192,-2.8287,-2.7412,-2.6612,-2.5815,-2.5007,-2.4226,-2.3428,-2.3006,-2.2988,-2.2244,-2.1794,-2.1794,-2.2014,-2.128,-1.9499,-2.0656,-2.1445,-2.1427,-2.0849,-2.0729,-2.1243,-2.15,-2.1914,-2.2621,-2.34,-2.3483,-2.2584,-2.2271,-2.3043,-2.5107,-2.5897,-2.63,-2.641,-2.63,-2.6418,-2.7115,-2.7868,-2.8546,-2.8968,-2.9017,-2.9178,-2.955,-2.9626,-2.971,-2.9866,-3.0007,-3.0142,-3.0286,-3.0367,-3.0404,-3.0404,-3.0404,-3.0404,-3.0404,-3.0058,-2.9404,-2.8904,-2.9462,-2.9379,-2.8168,-2.8055,-2.7948,-2.7572,-2.747,-2.7884,-2.9321,-2.9308,-2.9538,-2.9923,-2.9904,-2.8675,-2.722,-2.6119,-2.5518,-2.5386,-2.5304,-2.5174,-4.5383,-4.4951,-4.4489,-4.4085,-4.372,-4.3297,-4.2604,-4.1788,-4.1373,-4.0931,-4.0516,-4.0496,-4.0496,-4.0496,-4.0496,-4.0496,-4.0477,-4.0112,-3.9958,-3.9842,-3.82,-3.7404,-3.7296,-3.6103,-3.55,-3.55,-3.55,-3.55,-3.55,-3.55,-3.4596,-3.2949,-3.1975,-3.0981,-3.0034,-2.9801,-2.958,-2.931,-2.8776,-2.8096,-2.7273,-2.6465,-2.5658,-2.486,-2.4061,-2.3639,-2.3657,-2.329,-2.3088,-2.3098,-2.3336,-2.2997,-2.2033,-2.1867,-2.1923,-2.2198,-2.1978,-2.2014,-2.2428,-2.2859,-2.3263,-2.3639,-2.4392,-2.4732,-2.4373,-2.3566,-2.3859,-2.5658,-2.7024,-2.7703,-2.7291,-2.6869,-2.7042,-2.8161,-2.873,-2.8987,-2.901,-2.9141,-2.9443,-2.9953,-3.0079,-3.0003,-2.9816,-3.0038,-3.0228,-3.0329,-3.0373,-3.0404,-3.0404,-3.0404,-3.0404,-3.0404,-3.0385,-3.0192,-2.9725,-3.0,-3.0019,-2.9327,-2.925,-2.9256,-2.9256,-2.9256,-2.9563,-3.0192,-3.0404,-3.0404,-3.0404,-3.0385,-2.9615,-2.8525,-2.7563,-2.6981,-2.6288,-2.5673,-2.5278,-4.5594,-4.5518,-4.4883,-4.4605,-4.4509,-4.3701,-4.297,-4.2327,-4.1981,-4.1431,-4.0816,-4.0612,-4.0496,-4.0496,-4.0496,-4.0496,-4.0496,-4.0496,-4.0496,-4.0342,-3.8977,-3.818,-3.7873,-3.6442,-3.5673,-3.5519,-3.55,-3.55,-3.55,-3.55,-3.4615,-3.2904,-3.1354,-3.0406,-3.0035,-2.9896,-2.9707,-2.9434,-2.9246,-2.8706,-2.7816,-2.7181,-2.6421,-2.5429,-2.4824,-2.4373,-2.4226,-2.4199,-2.4199,-2.4199,-2.4199,-2.4199,-2.4144,-2.3043,-2.2528,-2.2932,-2.3318,-2.3584,-2.3813,-2.4364,-2.474,-2.4759,-2.5319,-2.5815,-2.6043,-2.5299,-2.5236,-2.6473,-2.8014,-2.8693,-2.8136,-2.7567,-2.7647,-2.884,-2.8987,-2.8987,-2.9028,-2.9272,-2.971,-3.0247,-3.0392,-3.024,-2.9964,-3.0116,-3.0343,-3.0392,-3.0404,-3.0404,-3.0404,-3.0404,-3.0404,-3.0404,-3.0404,-3.0385,-3.0404,-3.0385,-3.0365,-3.0404,-3.0346,-3.0231,-3.0269,-3.0346,-3.0385,-3.0404,-3.0404,-3.0404,-3.0404,-3.0404,-3.0,-2.9121,-2.8621,-2.8212,-2.7121,-2.6,-2.5365,-4.5594,-4.5594,-4.5479,-4.5479,-4.5344,-4.4547,-4.4105,-4.3816,-4.2489,-4.1777,-4.1585,-4.0835,-4.0516,-4.0496,-4.0496,-4.0496,-4.0496,-4.0496,-4.0496,-4.0419,-3.9592,-3.8757,-3.795,-3.7007,-3.6212,-3.5577,-3.55,-3.55,-3.55,-3.5462,-3.4596,-3.2987,-3.1956,-3.1021,-3.0271,-3.0045,-2.9811,-2.9514,-2.9365,-2.8788,-2.7864,-2.7732,-2.6972,-2.5439,-2.5338,-2.4952,-2.4346,-2.4199,-2.4208,-2.4199,-2.4245,-2.4236,-2.4208,-2.4034,-2.3988,-2.4116,-2.5383,-2.6264,-2.6245,-2.6345,-2.6308,-2.6392,-2.641,-2.6704,-2.7134,-2.6712,-2.7024,-2.8271,-2.8822,-2.8932,-2.8913,-2.873,-2.8712,-2.8895,-2.8987,-2.8987,-2.9051,-2.939,-2.9834,-3.0253,-3.0356,-3.0286,-3.0063,-3.0275,-3.0395,-3.0533,-3.0596,-3.0519,-3.0404,-3.0404,-3.0404,-3.0404,-3.0442,-3.0519,-3.0462,-3.0404,-3.0404,-3.0404,-3.0404,-3.0404,-3.0404,-3.0404,-3.0404,-3.0404,-3.0404,-3.0404,-3.0404,-3.0365,-3.0115,-2.9486,-2.9006,-2.8519,-2.7755,-2.6601,-2.5654,-4.5594,-4.5594,-4.5594,-4.5594,-4.5537,-4.5229,-4.4778,-4.422,-4.3585,-4.2758,-4.1827,-4.1412,-4.0989,-4.0516,-4.0496,-4.0496,-4.0496,-4.0496,-4.0496,-4.0419,-3.9681,-3.8842,-3.7969,-3.7103,-3.6269,-3.5538,-3.55,-3.55,-3.5404,-3.4988,-3.4103,-3.2949,-3.2051,-3.1206,-3.0382,-3.0192,-2.9942,-2.9606,-2.9484,-2.9103,-2.8537,-2.8044,-2.7486,-2.6862,-2.6355,-2.597,-2.5676,-2.5621,-2.5611,-2.5621,-2.5611,-2.5603,-2.5621,-2.4722,-2.463,-2.5548,-2.6198,-2.6602,-2.6602,-2.6602,-2.6602,-2.6602,-2.7034,-2.742,-2.764,-2.786,-2.8326,-2.884,-2.8987,-2.8987,-2.8987,-2.8987,-2.8987,-2.8987,-2.8987,-2.8987,-2.8998,-2.9286,-2.9673,-2.9945,-3.0213,-3.0318,-3.042,-3.1156,-3.154,-3.1346,-3.1269,-3.1173,-3.0596,-3.0404,-3.0404,-3.0673,-3.2,-3.2327,-3.0981,-3.0404,-3.0423,-3.0404,-3.0404,-3.0404,-3.0404,-3.0404,-3.0404,-3.0404,-3.0404,-3.0404,-3.0404,-3.0404,-3.0231,-2.975,-2.9294,-2.8852,-2.8646,-2.7684,-2.6659,-4.5594,-4.5594,-4.5594,-4.5594,-4.5594,-4.5594,-4.5248,-4.4662,-4.4412,-4.3605,-4.2508,-4.2019,-4.147,-4.0873,-4.0631,-4.0496,-4.0496,-4.0496,-4.0496,-4.0419,-3.9881,-3.9181,-3.8315,-3.7469,-3.6635,-3.5904,-3.5596,-3.55,-3.5423,-3.4911,-3.4109,-3.3276,-3.2679,-3.1948,-3.1142,-3.0758,-3.0381,-3.0043,-2.972,-2.933,-2.8971,-2.8418,-2.8026,-2.7787,-2.7236,-2.6833,-2.662,-2.6602,-2.6602,-2.6602,-2.6602,-2.6602,-2.6565,-2.5493,-2.5566,-2.6987,-2.7042,-2.7024,-2.7236,-2.7255,-2.7244,-2.731,-2.7824,-2.8117,-2.8227,-2.8686,-2.8968,-2.8987,-2.8987,-2.8987,-2.8987,-2.8987,-2.8987,-2.8987,-2.8987,-2.8987,-2.8998,-2.9197,-2.9574,-3.0151,-3.0238,-3.0373,-3.0919,-3.1962,-3.2564,-3.216,-3.2154,-3.2115,-3.1442,-3.1538,-3.1923,-3.1865,-3.4019,-3.3788,-3.1212,-3.1192,-3.1077,-3.0538,-3.0538,-3.0731,-3.05,-3.0404,-3.0404,-3.0404,-3.0404,-3.0404,-3.0404,-3.0404,-3.0404,-3.0269,-2.9885,-2.9448,-2.9467,-2.889,-2.8179,-4.5594,-4.5594,-4.5594,-4.5594,-4.5594,-4.5594,-4.5575,-4.5402,-4.4701,-4.4239,-4.3874,-4.2566,-4.1788,-4.1623,-4.092,-4.0516,-4.0496,-4.0496,-4.0496,-4.0496,-4.0419,-3.9996,-3.92,-3.8354,-3.7469,-3.6538,-3.5904,-3.5558,-3.55,-3.5423,-3.5007,-3.4148,-3.3994,-3.3583,-3.2641,-3.1761,-3.1207,-3.09,-3.0095,-2.9386,-2.9069,-2.8987,-2.8594,-2.7952,-2.7769,-2.742,-2.6796,-2.6638,-2.6657,-2.6638,-2.6712,-2.6675,-2.662,-2.6576,-2.7189,-2.8528,-2.8154,-2.8081,-2.8675,-2.8748,-2.8767,-2.8803,-2.8785,-2.8913,-2.8822,-2.8932,-2.8987,-2.8987,-2.8987,-2.8987,-2.8987,-2.8987,-2.8987,-2.8987,-2.8987,-2.8987,-2.8987,-2.9028,-2.9833,-3.0939,-3.0505,-3.0536,-3.1789,-3.2526,-3.2968,-3.2929,-3.2891,-3.2891,-3.3058,-3.4096,-3.4731,-3.4846,-3.4981,-3.4327,-3.1481,-3.1712,-3.2077,-3.1827,-3.1712,-3.1333,-3.0788,-3.0404,-3.0404,-3.0404,-3.0404,-3.0404,-3.0404,-3.0404,-3.0404,-3.0346,-3.0346,-3.0154,-3.0019,-3.0231,-2.9712,-4.5594,-4.5594,-4.5594,-4.5594,-4.5594,-4.5594,-4.5594,-4.5575,-4.5259,-4.4825,-4.4278,-4.3643,-4.2816,-4.1777,-4.147,-4.1027,-4.0535,-4.0496,-4.0496,-4.0496,-4.0496,-4.0073,-3.9323,-3.8957,-3.8046,-3.6808,-3.6392,-3.5981,-3.5538,-3.55,-3.5064,-3.434,-3.4205,-3.3782,-3.2961,-3.2469,-3.2083,-3.176,-3.1267,-3.0631,-2.9841,-2.9776,-2.939,-2.862,-2.8565,-2.8418,-2.8143,-2.8143,-2.8143,-2.8143,-2.8143,-2.8124,-2.8124,-2.8143,-2.8363,-2.8877,-2.873,-2.8693,-2.895,-2.8987,-2.8987,-2.8987,-2.8987,-2.9005,-2.8987,-2.8987,-2.8987,-2.9005,-2.9005,-2.8987,-2.8987,-2.8987,-2.9005,-2.8987,-2.9005,-2.9042,-2.8987,-2.9042,-3.002,-3.198,-3.1198,-3.0622,-3.2663,-3.3961,-3.4314,-3.391,-3.4199,-3.4442,-3.4596,-3.5192,-3.55,-3.55,-3.5462,-3.5096,-3.4154,-3.3135,-3.3038,-3.3365,-3.3269,-3.191,-3.1038,-3.0712,-3.0654,-3.0423,-3.0404,-3.0404,-3.0404,-3.0404,-3.0404,-3.0404,-3.0404,-3.0404,-3.0385,-3.0404,-3.0404,-4.5594,-4.5594,-4.5594,-4.5594,-4.5594,-4.5594,-4.5594,-4.5594,-4.5594,-4.5267,-4.4739,-4.4432,-4.3643,-4.2624,-4.2038,-4.1508,-4.092,-4.065,-4.0496,-4.0496,-4.0496,-4.0208,-3.9727,-3.9419,-3.8688,-3.7584,-3.6923,-3.6288,-3.5577,-3.55,-3.518,-3.4661,-3.4622,-3.4334,-3.3769,-3.335,-3.295,-3.26,-3.2148,-3.1448,-3.0662,-3.0338,-2.9953,-2.9445,-2.9152,-2.8987,-2.8987,-2.8987,-2.8987,-2.8987,-2.8987,-2.8987,-2.8987,-2.8987,-2.8987,-2.8987,-2.8987,-2.8987,-2.8987,-2.8987,-2.8987,-2.8987,-2.9005,-2.9078,-2.9299,-2.9152,-2.9005,-2.9115,-3.0143,-3.0454,-2.9898,-2.9794,-2.9574,-2.9244,-2.9464,-2.9512,-2.9152,-2.9996,-3.15,-3.2991,-3.2444,-3.2374,-3.3715,-3.4776,-3.5021,-3.4666,-3.5154,-3.5462,-3.55,-3.55,-3.55,-3.55,-3.55,-3.5481,-3.5019,-3.4404,-3.4173,-3.4442,-3.4115,-3.2699,-3.1769,-3.1365,-3.1019,-3.0654,-3.0481,-3.0442,-3.0404,-3.0423,-3.0423,-3.0442,-3.0404,-3.0404,-3.0404,-3.0404,-3.0404,-4.5594,-4.5594,-4.5594,-4.5594,-4.5594,-4.5594,-4.5594,-4.5594,-4.5594,-4.5537,-4.5344,-4.472,-4.4297,-4.3874,-4.2681,-4.1885,-4.1566,-4.095,-4.0593,-4.0496,-4.0496,-4.0477,-4.0362,-3.9727,-3.9265,-3.8834,-3.745,-3.6288,-3.5538,-3.55,-3.5442,-3.5442,-3.5365,-3.5269,-3.5404,-3.4416,-3.3796,-3.3346,-3.2608,-3.1875,-3.1372,-3.076,-3.0338,-3.0069,-2.9464,-2.906,-2.9005,-2.8987,-2.8987,-2.8987,-2.8987,-2.8987,-2.8987,-2.8987,-2.8987,-2.8987,-2.8987,-2.8987,-2.8987,-2.9005,-2.9042,-2.9225,-2.906,-2.9317,-2.9879,-2.9739,-2.9372,-2.9372,-3.1549,-3.2981,-3.1659,-3.1305,-3.0687,-2.9482,-3.0338,-3.0595,-2.9922,-3.1794,-3.3733,-3.3805,-3.3697,-3.4425,-3.4841,-3.5108,-3.5212,-3.5331,-3.5423,-3.55,-3.55,-3.55,-3.55,-3.55,-3.55,-3.55,-3.55,-3.5462,-3.5423,-3.5327,-3.4699,-3.3776,-3.3173,-3.2731,-3.2538,-3.2231,-3.2019,-3.1942,-3.1154,-3.1115,-3.0808,-3.075,-3.0615,-3.0462,-3.0404,-3.0404,-3.0404,-4.5594,-4.5594,-4.5594,-4.5594,-4.5594,-4.5594,-4.5594,-4.5594,-4.5594,-4.5594,-4.5556,-4.5325,-4.4874,-4.4316,-4.3701,-4.2893,-4.1827,-4.147,-4.1066,-4.0573,-4.0496,-4.0496,-4.0458,-4.0246,-3.9515,-3.8392,-3.7257,-3.6288,-3.5635,-3.55,-3.55,-3.55,-3.55,-3.55,-3.5474,-3.5059,-3.4644,-3.429,-3.3853,-3.3206,-3.2322,-3.1977,-3.1335,-3.0283,-2.9941,-2.9592,-2.9042,-2.8987,-2.8987,-2.9005,-2.8987,-2.8987,-2.8987,-2.8987,-2.8987,-2.8987,-2.8987,-2.8987,-2.8987,-2.906,-2.9555,-3.0155,-2.9666,-2.9555,-3.0534,-3.1604,-3.117,-2.9831,-3.188,-3.3513,-3.3073,-3.2351,-3.1458,-3.0228,-3.1182,-3.1182,-2.9971,-3.1911,-3.3532,-3.3829,-3.4074,-3.445,-3.4879,-3.5105,-3.5285,-3.5446,-3.55,-3.55,-3.55,-3.55,-3.55,-3.55,-3.55,-3.55,-3.55,-3.55,-3.55,-3.55,-3.5103,-3.4776,-3.4288,-3.4019,-3.3865,-3.3731,-3.3538,-3.3154,-3.2372,-3.1756,-3.1462,-3.1115,-3.0962,-3.075,-3.0481,-3.0404,-3.0404,-4.5594,-4.5594,-4.5594,-4.5594,-4.5594,-4.5594,-4.5594,-4.5594,-4.5594,-4.5594,-4.5594,-4.5594,-4.5325,-4.4797,-4.4451,-4.3547,-4.2327,-4.1981,-4.1335,-4.0612,-4.0496,-4.0496,-4.0496,-4.0496,-3.9631,-3.818,-3.7469,-3.6596,-3.5538,-3.55,-3.55,-3.55,-3.5467,-3.5453,-3.5405,-3.5207,-3.4963,-3.4643,-3.4405,-3.3901,-3.3169,-3.2748,-3.2124,-3.1201,-3.0797,-3.0393,-2.9934,-2.9867,-2.9622,-2.9133,-2.8987,-2.8987,-2.8987,-2.9005,-2.9244,-2.9739,-2.9592,-2.9335,-2.9115,-2.961,-3.0265,-3.0993,-3.0467,-3.0301,-3.1305,-3.2889,-3.2632,-3.1641,-3.2614,-3.3807,-3.3678,-3.3238,-3.248,-3.1911,-3.1984,-3.1788,-3.1164,-3.2624,-3.3734,-3.3921,-3.4161,-3.4494,-3.4783,-3.5079,-3.5277,-3.5446,-3.55,-3.55,-3.55,-3.55,-3.55,-3.55,-3.55,-3.55,-3.55,-3.55,-3.55,-3.55,-3.5423,-3.5288,-3.5038,-3.4981,-3.4885,-3.4827,-3.4673,-3.4538,-3.3846,-3.2776,-3.2192,-3.1808,-3.15,-3.1212,-3.1,-3.0538,-3.0442,-4.5586,-4.5594,-4.5594,-4.5594,-4.5594,-4.5594,-4.5594,-4.5594,-4.5594,-4.5594,-4.5594,-4.5594,-4.5575,-4.5383,-4.4786,-4.3951,-4.3047,-4.2335,-4.145,-4.0746,-4.0496,-4.0496,-4.0496,-4.0496,-3.9611,-3.82,-3.793,-3.7065,-3.5558,-3.55,-3.55,-3.5481,-3.5439,-3.5357,-3.527,-3.5108,-3.4812,-3.4497,-3.4298,-3.4037,-3.3692,-3.3109,-3.2619,-3.2454,-3.1825,-3.1366,-3.1164,-3.1127,-3.0577,-2.939,-2.9335,-2.928,-2.9078,-2.9042,-2.9953,-3.1085,-3.0632,-3.0008,-2.9666,-3.0393,-3.1397,-3.1678,-3.1458,-3.169,-3.2315,-3.3146,-3.3678,-3.3293,-3.3642,-3.3807,-3.3807,-3.3697,-3.3605,-3.3623,-3.2921,-3.2742,-3.3576,-3.3968,-3.403,-3.3998,-3.4309,-3.471,-3.4711,-3.5009,-3.5258,-3.5439,-3.55,-3.55,-3.55,-3.55,-3.55,-3.5577,-3.5731,-3.5712,-3.5788,-3.55,-3.55,-3.55,-3.55,-3.5519,-3.55,-3.55,-3.55,-3.55,-3.5481,-3.5442,-3.5115,-3.3981,-3.3218,-3.2891,-3.2487,-3.1981,-3.15,-3.1038,-3.0519,-4.5485,-4.5541,-4.5577,-4.5594,-4.5594,-4.5594,-4.5594,-4.5594,-4.5594,-4.5594,-4.5594,-4.5594,-4.5594,-4.5556,-4.5344,-4.447,-4.3335,-4.2854,-4.1893,-4.0669,-4.0496,-4.0496,-4.0496,-4.0477,-3.9642,-3.8238,-3.7988,-3.7142,-3.5596,-3.5519,-3.55,-3.55,-3.5398,-3.5278,-3.5147,-3.4944,-3.4634,-3.4341,-3.4203,-3.4023,-3.381,-3.3623,-3.317,-3.2601,-3.2399,-3.199,-3.1476,-3.1403,-3.1286,-3.0864,-3.0791,-3.0173,-2.9317,-3.0099,-3.0956,-3.1342,-3.1256,-3.1035,-3.0907,-3.1195,-3.1947,-3.2908,-3.2118,-3.1971,-3.3256,-3.3623,-3.3807,-3.3807,-3.3807,-3.3807,-3.3807,-3.3807,-3.3807,-3.3788,-3.3458,-3.3403,-3.3737,-3.4023,-3.4161,-3.4161,-3.4435,-3.478,-3.501,-3.5274,-3.5465,-3.56,-3.5615,-3.5519,-3.5538,-3.5519,-3.5538,-3.6058,-3.625,-3.6173,-3.6019,-3.5673,-3.55,-3.55,-3.55,-3.5538,-3.5519,-3.55,-3.55,-3.55,-3.55,-3.5462,-3.5462,-3.4942,-3.4487,-3.3891,-3.3468,-3.2942,-3.2212,-3.1654,-3.0904,-4.5332,-4.5448,-4.555,-4.5594,-4.5594,-4.5594,-4.5594,-4.5594,-4.5594,-4.5594,-4.5594,-4.5594,-4.5594,-4.5594,-4.5575,-4.4874,-4.3682,-4.3239,-4.2335,-4.12,-4.0669,-4.0516,-4.0496,-4.0477,-3.9823,-3.8642,-3.8161,-3.7276,-3.6154,-3.5692,-3.55,-3.5479,-3.5369,-3.5195,-3.5006,-3.4803,-3.4516,-3.4201,-3.4068,-3.3934,-3.382,-3.3807,-3.3623,-3.317,-3.3096,-3.2834,-3.2467,-3.2412,-3.2149,-3.1544,-3.1158,-3.0705,-3.0246,-3.1054,-3.1916,-3.2302,-3.2118,-3.2027,-3.2339,-3.2412,-3.2816,-3.3458,-3.2797,-3.2944,-3.355,-3.3807,-3.3807,-3.3807,-3.3807,-3.3807,-3.3807,-3.3807,-3.3807,-3.3807,-3.3807,-3.3825,-3.3825,-3.4055,-3.4233,-3.4442,-3.4881,-3.5249,-3.5399,-3.5914,-3.6343,-3.6498,-3.6442,-3.6038,-3.5654,-3.5654,-3.6173,-3.7135,-3.7661,-3.7777,-3.7065,-3.6481,-3.6642,-3.6546,-3.5942,-3.5904,-3.5519,-3.55,-3.55,-3.55,-3.55,-3.55,-3.55,-3.5481,-3.5212,-3.4692,-3.4327,-3.3872,-3.316,-3.2615,-3.1808,-4.5129,-4.5292,-4.5475,-4.5577,-4.5586,-4.5586,-4.5594,-4.5594,-4.5594,-4.5594,-4.5594,-4.5594,-4.5594,-4.5594,-4.5575,-4.5047,-4.4066,-4.3355,-4.2489,-4.1527,-4.0854,-4.0496,-4.0496,-4.0496,-3.9996,-3.9169,-3.8411,-3.7519,-3.6596,-3.5846,-3.5519,-3.5453,-3.5365,-3.5122,-3.4889,-3.4691,-3.4416,-3.4093,-3.3959,-3.3868,-3.382,-3.3807,-3.3752,-3.3697,-3.366,-3.366,-3.3623,-3.3605,-3.3109,-3.1733,-3.1195,-3.136,-3.169,-3.2149,-3.2724,-3.333,-3.3054,-3.2999,-3.3568,-3.3568,-3.3697,-3.3752,-3.3752,-3.3807,-3.3807,-3.3807,-3.3807,-3.3807,-3.3807,-3.3972,-3.4229,-3.4045,-3.3954,-3.4045,-3.4027,-3.388,-3.4283,-3.4406,-3.4509,-3.4666,-3.5557,-3.6032,-3.6477,-3.6998,-3.7951,-3.8108,-3.7738,-3.6885,-3.6776,-3.7084,-3.8046,-3.9392,-3.9662,-3.9708,-3.8584,-3.7373,-3.7738,-3.7892,-3.6942,-3.6423,-3.5654,-3.55,-3.55,-3.55,-3.55,-3.55,-3.55,-3.5481,-3.5442,-3.5308,-3.4827,-3.4564,-3.4244,-3.3853,-3.3192,-4.4922,-4.5162,-4.5351,-4.5476,-4.5522,-4.5577,-4.5594,-4.5594,-4.5594,-4.5594,-4.5594,-4.5594,-4.5594,-4.5594,-4.5537,-4.4806,-4.3585,-4.3104,-4.2297,-4.0843,-4.0631,-4.0496,-4.0496,-4.0496,-4.0054,-3.9323,-3.843,-3.7584,-3.6731,-3.6,-3.55,-3.5479,-3.53,-3.5053,-3.4754,-3.4534,-3.4245,-3.3934,-3.3847,-3.3834,-3.382,-3.3807,-3.3807,-3.3807,-3.3807,-3.3807,-3.3807,-3.3807,-3.3623,-3.333,-3.3091,-3.2926,-3.3109,-3.3275,-3.3513,-3.3642,-3.3678,-3.3605,-3.377,-3.3807,-3.3807,-3.3807,-3.3807,-3.3807,-3.3807,-3.3807,-3.3807,-3.3807,-3.3844,-3.4357,-3.5477,-3.4541,-3.4394,-3.4669,-3.4559,-3.4908,-3.6695,-3.6675,-3.5839,-3.5446,-3.626,-3.7735,-3.8989,-3.8146,-3.8762,-3.945,-3.8969,-3.7911,-3.8027,-3.843,-3.9315,-4.0496,-4.04,-4.0169,-3.9534,-3.8565,-3.8854,-3.8854,-3.7969,-3.6673,-3.5904,-3.55,-3.55,-3.55,-3.55,-3.55,-3.55,-3.5481,-3.5462,-3.5385,-3.5327,-3.5122,-3.4891,-3.4712,-3.4577,-4.4546,-4.4857,-4.5137,-4.5322,-4.54,-4.555,-4.5594,-4.5594,-4.5594,-4.5594,-4.5594,-4.5594,-4.5594,-4.5594,-4.5537,-4.4855,-4.3682,-4.2777,-4.1777,-4.0727,-4.0496,-4.0496,-4.0496,-4.0496,-4.0208,-3.9669,-3.8546,-3.7738,-3.7135,-3.6159,-3.5439,-3.5391,-3.5218,-3.4917,-3.4632,-3.4401,-3.413,-3.3887,-3.3807,-3.3807,-3.3807,-3.3807,-3.3807,-3.3807,-3.3807,-3.3807,-3.3807,-3.3807,-3.3807,-3.3807,-3.3807,-3.3807,-3.3807,-3.3807,-3.3807,-3.3807,-3.3807,-3.3807,-3.3807,-3.3807,-3.3807,-3.3807,-3.3807,-3.3807,-3.3807,-3.3807,-3.3807,-3.3807,-3.4009,-3.4669,-3.6945,-3.5954,-3.5459,-3.544,-3.5899,-3.6321,-3.653,-3.71,-3.7612,-3.7101,-3.7667,-3.8794,-3.938,-3.9176,-3.9282,-3.9872,-4.0069,-3.9154,-3.9258,-3.9642,-3.9835,-4.0496,-4.0496,-4.0342,-4.0054,-3.9823,-3.9996,-3.9669,-3.8873,-3.7296,-3.5885,-3.5635,-3.55,-3.55,-3.55,-3.55,-3.55,-3.55,-3.55,-3.5442,-3.5423,-3.5481,-3.5404,-3.5135,-3.5096,-4.4184,-4.4493,-4.4872,-4.5137,-4.5292,-4.5476,-4.5568,-4.5577,-4.5594,-4.5594,-4.5594,-4.5594,-4.5594,-4.5594,-4.5594,-4.5047,-4.3816,-4.2354,-4.1066,-4.0593,-4.0496,-4.0496,-4.0496,-4.0496,-4.0458,-4.0304,-3.9008,-3.8238,-3.755,-3.6476,-3.5618,-3.5319,-3.5072,-3.4783,-3.4486,-3.4267,-3.4061,-3.3847,-3.3807,-3.3807,-3.3807,-3.3807,-3.3807,-3.3807,-3.3807,-3.3807,-3.3807,-3.3807,-3.3807,-3.3807,-3.3807,-3.3807,-3.3807,-3.3807,-3.3807,-3.3807,-3.3807,-3.3807,-3.3807,-3.3807,-3.3807,-3.3807,-3.399,-3.3899,-3.3862,-3.3807,-3.3807,-3.4027,-3.4357,-3.5661,-3.8157,-3.7496,-3.6541,-3.6505,-3.7753,-3.7202,-3.5895,-3.7204,-3.8493,-3.9064,-3.8772,-3.9324,-3.9936,-4.003,-4.0136,-4.0177,-4.033,-4.0457,-4.0457,-4.0496,-4.0496,-4.0496,-4.0496,-4.0496,-4.0246,-4.0169,-4.0458,-4.0265,-3.9534,-3.843,-3.6873,-3.7238,-3.7219,-3.5731,-3.55,-3.55,-3.55,-3.55,-3.55,-3.55,-3.55,-3.55,-3.55,-3.55,-3.55,-4.4064,-4.4294,-4.463,-4.491,-4.5151,-4.5341,-4.5448,-4.5541,-4.5568,-4.5594,-4.5594,-4.5594,-4.5594,-4.5575,-4.5575,-4.4748,-4.3181,-4.1643,-4.0719,-4.0516,-4.0496,-4.0496,-4.0496,-4.0496,-4.0496,-4.0265,-3.9488,-3.8769,-3.7966,-3.6915,-3.5916,-3.5285,-3.4926,-3.4632,-3.4341,-3.4148,-3.4011,-3.3847,-3.3807,-3.3807,-3.3807,-3.3807,-3.3807,-3.3807,-3.3807,-3.3807,-3.3807,-3.3807,-3.3807,-3.3807,-3.3807,-3.3807,-3.3807,-3.3807,-3.3807,-3.3807,-3.3807,-3.3807,-3.3807,-3.3807,-3.3807,-3.3954,-3.4362,-3.4399,-3.4082,-3.3954,-3.4229,-3.4633,-3.5661,-3.7147,-3.8487,-3.8248,-3.8267,-3.8248,-3.8212,-3.8398,-3.7955,-3.8235,-3.8851,-3.9124,-3.9289,-3.9542,-3.9975,-4.0224,-4.0071,-3.997,-4.0031,-4.0196,-4.0279,-4.0392,-4.0496,-4.0496,-4.0496,-4.0496,-4.0439,-4.0419,-4.0496,-4.0496,-4.0131,-4.0131,-3.9219,-3.9642,-3.9161,-3.7507,-3.6038,-3.55,-3.55,-3.55,-3.55,-3.55,-3.55,-3.55,-3.55,-3.55,-3.55,-4.3832,-4.402,-4.4242,-4.4501,-4.4826,-4.5126,-4.5312,-4.541,-4.5531,-4.5594,-4.5594,-4.5594,-4.5594,-4.5498,-4.5075,-4.3989,-4.245,-4.1162,-4.0535,-4.0496,-4.0496,-4.0496,-4.0496,-4.0496,-4.0496,-4.0385,-4.0034,-3.9388,-3.8489,-3.7083,-3.6221,-3.5581,-3.4977,-3.4446,-3.4196,-3.4043,-3.3934,-3.3834,-3.3807,-3.3807,-3.3807,-3.3807,-3.3807,-3.3807,-3.3807,-3.3807,-3.3807,-3.3807,-3.3807,-3.3807,-3.3807,-3.3807,-3.3807,-3.3807,-3.3807,-3.3807,-3.3807,-3.3807,-3.3807,-3.3844,-3.4156,-3.5018,-3.5133,-3.5096,-3.5073,-3.5202,-3.5385,-3.6321,-3.6872,-3.812,-3.8652,-3.8689,-3.8707,-3.8707,-3.8707,-3.8707,-3.8707,-3.8707,-3.8795,-3.8935,-3.9189,-3.9486,-3.9889,-4.0008,-3.9876,-3.981,-3.9755,-3.9854,-4.0029,-4.0252,-4.0417,-4.0496,-4.0496,-4.0496,-4.0496,-4.0496,-4.0496,-4.0496,-4.0496,-4.0496,-4.0477,-4.04,-4.0027,-3.9027,-3.768,-3.6238,-3.55,-3.55,-3.55,-3.55,-3.55,-3.55,-3.55,-3.55,-3.55,-4.3618,-4.3769,-4.3918,-4.415,-4.4506,-4.4884,-4.5159,-4.5302,-4.5513,-4.5594,-4.5594,-4.5594,-4.5594,-4.5325,-4.447,-4.3297,-4.195,-4.1046,-4.0535,-4.0496,-4.0496,-4.0496,-4.0496,-4.05,-4.0492,-4.0441,-4.0264,-3.9874,-3.8835,-3.7632,-3.6604,-3.5746,-3.491,-3.4345,-3.4104,-3.3934,-3.386,-3.3834,-3.3807,-3.3807,-3.3807,-3.3807,-3.3807,-3.3807,-3.3807,-3.3807,-3.3807,-3.3807,-3.3807,-3.3807,-3.3807,-3.3807,-3.3807,-3.3807,-3.3807,-3.3807,-3.3807,-3.3807,-3.3844,-3.41,-3.4669,-3.5624,-3.5665,-3.5899,-3.6156,-3.6486,-3.7221,-3.8414,-3.8652,-3.8597,-3.8689,-3.8707,-3.8707,-3.8707,-3.8707,-3.8707,-3.8707,-3.8707,-3.8707,-3.8866,-3.912,-3.9304,-3.9539,-3.9705,-3.958,-3.9427,-3.9383,-3.9421,-3.9628,-4.007,-4.0278,-4.0441,-4.0496,-4.0496,-4.0496,-4.0496,-4.0496,-4.0496,-4.0496,-4.0496,-4.0496,-4.0477,-4.0085,-3.9758,-3.8911,-3.7546,-3.6546,-3.5538,-3.55,-3.55,-3.55,-3.55,-3.55,-3.55,-3.55,-4.3549,-4.3632,-4.383,-4.406,-4.436,-4.4751,-4.503,-4.5251,-4.5485,-4.5594,-4.5594,-4.5594,-4.5575,-4.5171,-4.3912,-4.3181,-4.2431,-4.1266,-4.0496,-4.0496,-4.0496,-4.0496,-4.0508,-4.0507,-4.0447,-4.0349,-4.0158,-3.9586,-3.8908,-3.8319,-3.7242,-3.5979,-3.5479,-3.4837,-3.4286,-3.4246,-3.382,-3.3862,-3.3899,-3.3917,-3.3954,-3.3972,-3.3972,-3.388,-3.3899,-3.3862,-3.3844,-3.3807,-3.3807,-3.3807,-3.3807,-3.3807,-3.3807,-3.3807,-3.3807,-3.3807,-3.3807,-3.3825,-3.4027,-3.4399,-3.5169,-3.6064,-3.6486,-3.6725,-3.6964,-3.7569,-3.8285,-3.856,-3.8707,-3.8707,-3.8707,-3.8707,-3.8707,-3.8707,-3.8707,-3.8707,-3.8707,-3.8707,-3.8707,-3.8723,-3.891,-3.8866,-3.895,-3.9142,-3.9259,-3.9096,-3.9017,-3.9087,-3.9259,-3.9732,-4.0215,-4.0383,-4.0489,-4.0496,-4.0496,-4.0496,-4.0496,-4.0496,-4.0496,-4.0496,-4.0496,-4.0496,-4.0496,-4.0073,-3.9361,-3.8565,-3.7353,-3.6423,-3.5808,-3.55,-3.55,-3.55,-3.55,-3.55,-3.5519,-4.3532,-4.3548,-4.3634,-4.3844,-4.4181,-4.4559,-4.4891,-4.5175,-4.5486,-4.5594,-4.5594,-4.5594,-4.5364,-4.4767,-4.3566,-4.2816,-4.2181,-4.1073,-4.0516,-4.0496,-4.0496,-4.0489,-4.05,-4.0463,-4.0377,-4.0186,-3.9962,-3.9611,-3.901,-3.8454,-3.7604,-3.6885,-3.6231,-3.5782,-3.5069,-3.5183,-3.5238,-3.5257,-3.5238,-3.5238,-3.5202,-3.5165,-3.4963,-3.4509,-3.4454,-3.4215,-3.3935,-3.3807,-3.3807,-3.3807,-3.3807,-3.3807,-3.3807,-3.3807,-3.3825,-3.388,-3.4798,-3.5073,-3.489,-3.4968,-3.5756,-3.678,-3.7367,-3.7294,-3.7643,-3.8193,-3.8707,-3.8707,-3.8707,-3.8707,-3.8707,-3.8707,-3.8707,-3.8707,-3.8707,-3.8707,-3.8707,-3.8707,-3.8707,-3.8707,-3.8707,-3.8707,-3.8707,-3.8837,-3.9031,-3.9031,-3.8935,-3.8921,-3.9106,-3.9439,-3.9927,-4.0377,-4.046,-4.0496,-4.0496,-4.0496,-4.0496,-4.0496,-4.0496,-4.0496,-4.0496,-4.0496,-4.0496,-4.0496,-4.0092,-3.9161,-3.8065,-3.6808,-3.5712,-3.5519,-3.55,-3.5692,-3.5865,-3.5596,-3.5596,-4.3479,-4.3479,-4.3479,-4.3682,-4.4005,-4.4402,-4.4752,-4.5053,-4.54,-4.5559,-4.5596,-4.5586,-4.5201,-4.4489,-4.3643,-4.2797,-4.2143,-4.0997,-4.0593,-4.0496,-4.05,-4.0492,-4.0444,-4.0358,-4.0186,-4.0011,-3.9755,-3.942,-3.9024,-3.8556,-3.8122,-3.7734,-3.6975,-3.6489,-3.6299,-3.6138,-3.6064,-3.6064,-3.6083,-3.6119,-3.6156,-3.6174,-3.5844,-3.5445,-3.5078,-3.4711,-3.4211,-3.3862,-3.3807,-3.3807,-3.3807,-3.3807,-3.3807,-3.3807,-3.4192,-3.4578,-3.5605,-3.6083,-3.5954,-3.6083,-3.6743,-3.7496,-3.8138,-3.7918,-3.8432,-3.8707,-3.8707,-3.8707,-3.8707,-3.8707,-3.8707,-3.8707,-3.8707,-3.8707,-3.8707,-3.8707,-3.8707,-3.8707,-3.8707,-3.8707,-3.8707,-3.8707,-3.8707,-3.8707,-3.8795,-3.8892,-3.8862,-3.8792,-3.8954,-3.9193,-3.9618,-4.011,-4.0392,-4.0457,-4.0481,-4.0489,-4.0489,-4.0481,-4.0481,-4.0496,-4.0496,-4.0496,-4.0496,-4.0496,-4.0496,-4.015,-3.9258,-3.7373,-3.5712,-3.6411,-3.6873,-3.6442,-3.6308,-3.6019,-3.5712,-4.3479,-4.3479,-4.3479,-4.3667,-4.391,-4.4279,-4.461,-4.4912,-4.527,-4.5467,-4.5541,-4.5568,-4.5537,-4.5086,-4.397,-4.3124,-4.2874,-4.1266,-4.0708,-4.0538,-4.0487,-4.0447,-4.0332,-4.0148,-3.9941,-3.9755,-3.9495,-3.924,-3.9008,-3.8773,-3.8191,-3.7595,-3.7522,-3.6978,-3.6707,-3.6725,-3.6688,-3.667,-3.6652,-3.6578,-3.656,-3.6523,-3.6376,-3.6119,-3.55,-3.4954,-3.4876,-3.4412,-3.4137,-3.4137,-3.3899,-3.3807,-3.3807,-3.4412,-3.5073,-3.5624,-3.6321,-3.678,-3.689,-3.6997,-3.7327,-3.7731,-3.8083,-3.8432,-3.867,-3.8707,-3.8707,-3.8707,-3.8707,-3.8707,-3.8707,-3.8707,-3.8707,-3.8707,-3.8707,-3.8707,-3.8707,-3.8707,-3.8707,-3.8707,-3.8707,-3.8707,-3.8707,-3.8707,-3.8707,-3.8792,-3.8807,-3.8735,-3.8777,-3.9011,-3.9317,-3.9755,-4.0195,-4.0372,-4.0457,-4.0457,-4.0417,-4.0425,-4.0441,-4.0465,-4.0496,-4.0496,-4.0496,-4.0496,-4.0496,-4.0496,-4.0285,-3.8507,-3.7507,-3.8104,-3.8257,-3.7796,-3.7296,-3.6981,-3.6462,-4.3479,-4.3479,-4.3479,-4.3634,-4.3851,-4.4053,-4.4355,-4.4682,-4.5041,-4.5352,-4.5568,-4.5586,-4.5594,-4.5248,-4.447,-4.3528,-4.2989,-4.1912,-4.1085,-4.0608,-4.0463,-4.0332,-4.0186,-3.997,-3.9721,-3.9408,-3.9168,-3.9003,-3.8822,-3.8762,-3.8624,-3.8285,-3.8157,-3.8102,-3.7826,-3.7606,-3.7661,-3.7698,-3.7716,-3.7753,-3.7771,-3.7734,-3.7533,-3.6982,-3.685,-3.6248,-3.5862,-3.5532,-3.5385,-3.5073,-3.4357,-3.4082,-3.4394,-3.5569,-3.6376,-3.6597,-3.7129,-3.7569,-3.7492,-3.7584,-3.7694,-3.823,-3.8542,-3.8707,-3.8707,-3.8707,-3.8707,-3.8707,-3.8707,-3.8707,-3.8744,-3.8726,-3.8707,-3.8707,-3.8707,-3.8707,-3.8707,-3.8707,-3.8707,-3.8707,-3.8707,-3.8707,-3.8707,-3.8707,-3.8707,-3.8723,-3.8707,-3.8707,-3.875,-3.878,-3.9059,-3.9311,-3.9728,-4.0071,-4.0148,-4.0233,-4.0295,-4.0321,-4.0358,-4.0433,-4.0465,-4.0496,-4.0496,-4.0496,-4.0496,-4.0496,-4.0169,-3.9373,-3.9008,-3.9015,-3.9111,-3.9104,-3.8584,-3.8027,-3.7584,-4.3479,-4.3479,-4.3479,-4.3583,-4.3751,-4.3902,-4.414,-4.4479,-4.4872,-4.5253,-4.5586,-4.5594,-4.5594,-4.5364,-4.4682,-4.3835,-4.3028,-4.2143,-4.1296,-4.0765,-4.0411,-4.0233,-4.0031,-3.978,-3.9489,-3.9136,-3.8966,-3.8833,-3.8738,-3.8707,-3.8652,-3.8634,-3.8689,-3.8615,-3.8615,-3.8707,-3.8707,-3.8707,-3.8707,-3.8707,-3.8652,-3.8597,-3.8487,-3.7808,-3.7547,-3.7162,-3.6648,-3.6285,-3.6119,-3.5807,-3.5312,-3.4706,-3.5514,-3.6652,-3.7753,-3.7826,-3.7845,-3.834,-3.801,-3.79,-3.8102,-3.8542,-3.8652,-3.8707,-3.8707,-3.8726,-3.8799,-3.9258,-3.9038,-3.8836,-3.8982,-3.9001,-3.8762,-3.8707,-3.8707,-3.8707,-3.8707,-3.8707,-3.8707,-3.8707,-3.8707,-3.8707,-3.8707,-3.8707,-3.8707,-3.8707,-3.8707,-3.8707,-3.8723,-3.8719,-3.8765,-3.8979,-3.9219,-3.9539,-3.9792,-3.9886,-3.9963,-4.0012,-4.011,-4.0366,-4.0433,-4.0465,-4.0496,-4.0496,-4.0496,-4.0496,-4.0246,-3.9823,-3.9611,-3.9477,-3.9631,-3.9804,-3.9688,-3.9161,-3.9046,-4.3479,-4.3479,-4.3479,-4.3531,-4.3634,-4.3816,-4.4048,-4.4332,-4.477,-4.5191,-4.5558,-4.5594,-4.5594,-4.5421,-4.4797,-4.4008,-4.3104,-4.2277,-4.1412,-4.0676,-4.0349,-4.0139,-3.9889,-3.9621,-3.9318,-3.9041,-3.8892,-3.8777,-3.8707,-3.8707,-3.8707,-3.8707,-3.8707,-3.8707,-3.8707,-3.8707,-3.8707,-3.8707,-3.8707,-3.8707,-3.8707,-3.8707,-3.8597,-3.8414,-3.7991,-3.7621,-3.7437,-3.7033,-3.6835,-3.6633,-3.6523,-3.6229,-3.6541,-3.7716,-3.8469,-3.8524,-3.8542,-3.8652,-3.8634,-3.8634,-3.8634,-3.867,-3.8707,-3.8707,-3.8707,-3.8781,-3.9129,-3.968,-3.9735,-3.9588,-3.9551,-3.935,-3.8909,-3.8707,-3.8707,-3.8707,-3.8707,-3.8707,-3.8707,-3.8707,-3.8707,-3.8707,-3.8707,-3.8707,-3.8707,-3.8707,-3.8707,-3.8707,-3.8707,-3.8707,-3.8707,-3.8765,-3.895,-3.917,-3.9452,-3.9561,-3.9648,-3.9713,-3.9886,-4.0167,-4.0383,-4.0484,-4.0508,-4.0489,-4.0496,-4.0496,-4.0496,-4.0419,-4.0189,-3.9977,-4.0169,-4.0304,-4.0304,-4.0208,-3.9919,-4.3479,-4.3479,-4.3479,-4.3515,-4.3531,-4.3617,-4.3795,-4.4181,-4.4739,-4.525,-4.5531,-4.5594,-4.5594,-4.546,-4.522,-4.4393,-4.3181,-4.2912,-4.2047,-4.0569,-4.0323,-4.0012,-3.9739,-3.9489,-3.9183,-3.8877,-3.8735,-3.8735,-3.8707,-3.8707,-3.8707,-3.8707,-3.8707,-3.8707,-3.8707,-3.8707,-3.8707,-3.8707,-3.8707,-3.8707,-3.8707,-3.8707,-3.8707,-3.8707,-3.8377,-3.823,-3.8212,-3.7771,-3.7716,-3.7698,-3.7679,-3.7698,-3.7734,-3.8634,-3.867,-3.8707,-3.8707,-3.8707,-3.8707,-3.8689,-3.8689,-3.8707,-3.8707,-3.8707,-3.8726,-3.8707,-3.9313,-4.0396,-4.1185,-4.0983,-4.0212,-3.9276,-3.8781,-3.8707,-3.8707,-3.8707,-3.8707,-3.8707,-3.8707,-3.8707,-3.8707,-3.8707,-3.8707,-3.8707,-3.8707,-3.8707,-3.8707,-3.8707,-3.8707,-3.8707,-3.8707,-3.8689,-3.8807,-3.895,-3.9096,-3.9227,-3.9358,-3.9489,-3.9721,-4.0029,-4.0233,-4.0392,-4.05,-4.0489,-4.0489,-4.0496,-4.0496,-4.0496,-4.0496,-4.0477,-4.0496,-4.0496,-4.0439,-4.04,-4.0342,-4.3479,-4.3479,-4.3479,-4.3479,-4.3479,-4.3479,-4.3749,-4.4196,-4.4758,-4.5227,-4.5476,-4.554,-4.5558,-4.5586,-4.546,-4.4682,-4.322,-4.3047,-4.2143,-4.0665,-4.0297,-3.9963,-3.9652,-3.9389,-3.9101,-3.881,-3.8707,-3.8707,-3.8707,-3.8707,-3.8707,-3.8707,-3.8726,-3.8707,-3.8707,-3.8707,-3.8707,-3.8707,-3.8707,-3.8707,-3.8707,-3.8707,-3.8707,-3.8707,-3.8652,-3.867,-3.8689,-3.8707,-3.8707,-3.8707,-3.8707,-3.8707,-3.8707,-3.8707,-3.8707,-3.8707,-3.8707,-3.8707,-3.8707,-3.8707,-3.8707,-3.8707,-3.8707,-3.8909,-3.9001,-3.8964,-3.979,-4.0983,-4.2561,-4.2158,-4.0983,-3.9863,-3.9166,-3.9129,-3.9111,-3.9129,-3.8872,-3.8872,-3.8854,-3.8836,-3.8707,-3.8707,-3.8707,-3.8707,-3.8707,-3.8707,-3.8707,-3.8707,-3.8707,-3.8707,-3.8707,-3.8689,-3.8689,-3.8807,-3.8866,-3.8848,-3.9027,-3.924,-3.9508,-3.9773,-4.0059,-4.0233,-4.0366,-4.0508,-4.0489,-4.0489,-4.0496,-4.0496,-4.0489,-4.0489,-4.0496,-4.0496,-4.0496,-4.0496,-4.0496,-4.3479,-4.3479,-4.3479,-4.3479,-4.3479,-4.3496,-4.3823,-4.4388,-4.472,-4.5057,-4.539,-4.5448,-4.5522,-4.5586,-4.5594,-4.4652,-4.3374,-4.3124,-4.197,-4.0864,-4.0297,-3.9953,-3.9641,-3.9371,-3.9073,-3.8822,-3.8707,-3.8707,-3.8707,-3.8946,-3.8927,-3.8982,-3.9184,-3.9203,-3.9184,-3.9019,-3.8909,-3.8781,-3.8707,-3.8707,-3.8707,-3.8707,-3.8707,-3.8707,-3.8707,-3.8707,-3.8707,-3.8707,-3.8707,-3.8707,-3.8707,-3.8707,-3.8707,-3.8707,-3.8707,-3.8707,-3.8707,-3.8707,-3.8707,-3.8707,-3.8909,-3.8982,-3.8891,-3.9371,-3.9664,-3.9606,-4.0414,-4.1625,-4.302,-4.2745,-4.2158,-4.102,-3.9937,-3.99,-3.9845,-3.9606,-3.9221,-3.9111,-3.9093,-3.8982,-3.8762,-3.8707,-3.8707,-3.8707,-3.8854,-3.8707,-3.8707,-3.8707,-3.8707,-3.8707,-3.8707,-3.8707,-3.8707,-3.8707,-3.8723,-3.8719,-3.8807,-3.9041,-3.9146,-3.9389,-3.9702,-4.002,-4.0242,-4.0392,-4.0457,-4.0508,-4.0489,-4.0489,-4.0508,-4.0508,-4.0496,-4.0496,-4.0496,-4.0496,-4.0496,-4.3479,-4.3479,-4.3479,-4.3479,-4.3496,-4.3548,-4.3793,-4.4154,-4.4465,-4.4812,-4.5182,-4.5293,-4.5448,-4.5586,-4.5575,-4.4528,-4.3682,-4.2854,-4.1893,-4.1069,-4.0538,-4.0038,-3.9735,-3.9514,-3.911,-3.8895,-3.8799,-3.8927,-3.8927,-3.9203,-3.9937,-4.0361,-4.0159,-4.0233,-4.0068,-3.9827,-3.9331,-3.8964,-3.8891,-3.8872,-3.8872,-3.8927,-3.8909,-3.8927,-3.8927,-3.8927,-3.8927,-3.8836,-3.8799,-3.8762,-3.8726,-3.8707,-3.8707,-3.8707,-3.8707,-3.8707,-3.8707,-3.8707,-3.8707,-3.8726,-3.9001,-3.957,-3.9643,-3.9772,-4.0139,-4.0561,-4.1167,-4.2396,-4.3185,-4.3002,-4.2837,-4.2011,-4.1203,-4.0983,-4.1056,-4.113,-4.0836,-4.0855,-4.0616,-3.8909,-3.8707,-3.8854,-3.8836,-3.9004,-3.9114,-3.8854,-3.8726,-3.8762,-3.8707,-3.8707,-3.8707,-3.8707,-3.8707,-3.8707,-3.8707,-3.8707,-3.8765,-3.8833,-3.8942,-3.9022,-3.9227,-3.9573,-4.0021,-4.0242,-4.0314,-4.0408,-4.0496,-4.0481,-4.046,-4.05,-4.0496,-4.0496,-4.0496,-4.0496,-4.0496,-4.3479,-4.3479,-4.3479,-4.3479,-4.3496,-4.3549,-4.3662,-4.3868,-4.4198,-4.4599,-4.4931,-4.5126,-4.5351,-4.5495,-4.5473,-4.4857,-4.372,-4.3598,-4.287,-4.189,-4.1113,-4.0948,-4.0583,-4.0216,-4.0092,-3.9731,-3.9609,-3.9848,-3.9738,-4.0029,-4.0708,-4.0948,-4.1113,-4.1132,-4.0912,-4.0561,-4.0178,-3.9756,-3.9481,-3.9423,-3.9478,-3.9588,-3.9646,-3.9572,-3.957,-3.9572,-3.9499,-3.9405,-3.9184,-3.9056,-3.9001,-3.8707,-3.8817,-3.8946,-3.9478,-3.9606,-3.9756,-3.9646,-3.9554,-3.9682,-3.9921,-4.023,-4.0543,-4.091,-4.0928,-4.1185,-4.2047,-4.302,-4.324,-4.3369,-4.324,-4.3057,-4.2616,-4.2194,-4.2561,-4.2928,-4.2965,-4.3002,-4.1423,-3.9313,-3.8817,-3.9019,-3.9184,-3.9407,-3.9499,-3.9423,-3.9276,-3.9166,-3.8964,-3.8707,-3.8707,-3.8707,-3.8707,-3.8707,-3.8707,-3.8707,-3.8719,-3.8747,-3.8792,-3.8862,-3.8925,-3.9129,-3.9561,-3.9886,-4.0139,-4.0233,-4.0339,-4.0402,-4.0394,-4.046,-4.0496,-4.0496,-4.0496,-4.0496,-4.0496,-4.3479,-4.3479,-4.3479,-4.3479,-4.3479,-4.3496,-4.3496,-4.3548,-4.3968,-4.4313,-4.4637,-4.4917,-4.5164,-4.5351,-4.539,-4.5022,-4.4301,-4.4053,-4.3482,-4.2823,-4.2174,-4.1815,-4.1528,-4.152,-4.091,-4.1006,-4.1003,-4.071,-4.1058,-4.1224,-4.1277,-4.126,-4.1462,-4.1644,-4.1662,-4.135,-4.1167,-4.1258,-4.0726,-4.0432,-4.0747,-4.1003,-4.1113,-4.0985,-4.0948,-4.0948,-4.0783,-4.0469,-3.9974,-3.9735,-3.935,-3.8927,-3.8927,-3.9588,-4.0286,-4.0781,-4.0912,-4.0545,-4.038,-4.049,-4.0765,-4.1056,-4.1368,-4.1827,-4.1919,-4.1937,-4.2727,-4.3167,-4.3406,-4.3442,-4.3351,-4.3332,-4.3057,-4.2892,-4.3094,-4.3277,-4.3296,-4.3222,-4.2396,-4.0414,-3.9129,-3.9441,-4.0396,-4.0689,-4.0726,-4.0377,-3.957,-3.9331,-3.9148,-3.8744,-3.8707,-3.8707,-3.8707,-3.8707,-3.8707,-3.8707,-3.8707,-3.8704,-3.8719,-3.8735,-3.8795,-3.8954,-3.912,-3.9401,-3.9644,-3.9989,-4.0139,-4.0233,-4.0341,-4.0457,-4.0496,-4.0496,-4.0496,-4.0496,-4.0496,-4.3479,-4.3479,-4.3479,-4.3479,-4.3479,-4.3479,-4.3479,-4.3515,-4.3666,-4.3899,-4.4194,-4.4519,-4.4856,-4.5159,-4.5273,-4.4969,-4.4495,-4.4317,-4.3551,-4.299,-4.2542,-4.2403,-4.1824,-4.1798,-4.1462,-4.1174,-4.1187,-4.1554,-4.1902,-4.2084,-4.2341,-4.28,-4.2763,-4.2653,-4.2635,-4.2323,-4.2194,-4.2506,-4.2047,-4.1405,-4.1315,-4.1187,-4.1113,-4.1168,-4.1205,-4.1279,-4.1168,-4.1003,-4.0818,-4.0689,-4.001,-3.9386,-3.8799,-4.0068,-4.146,-4.2415,-4.1864,-4.1352,-4.1187,-4.1334,-4.1625,-4.2084,-4.245,-4.2633,-4.2799,-4.2855,-4.302,-4.3314,-4.3479,-4.3479,-4.3479,-4.3479,-4.3479,-4.3479,-4.3479,-4.3479,-4.3479,-4.3259,-4.302,-4.168,-4.0047,-4.0377,-4.1405,-4.1791,-4.1846,-4.1001,-3.9551,-3.8909,-3.8927,-3.8707,-3.8707,-3.8707,-3.8707,-3.8707,-3.8707,-3.8707,-3.8707,-3.8707,-3.8704,-3.8689,-3.8707,-3.881,-3.8939,-3.8954,-3.9137,-3.9585,-3.997,-4.0148,-4.0278,-4.0441,-4.0496,-4.0496,-4.0496,-4.0496,-4.0496,-4.3479,-4.3479,-4.3479,-4.3479,-4.3479,-4.3479,-4.3479,-4.3515,-4.3531,-4.3629,-4.382,-4.4184,-4.4572,-4.4915,-4.5082,-4.5088,-4.4681,-4.462,-4.4263,-4.3646,-4.3089,-4.3016,-4.2653,-4.2331,-4.2431,-4.2211,-4.2194,-4.2506,-4.2727,-4.2855,-4.313,-4.3442,-4.3479,-4.3479,-4.3442,-4.3075,-4.3019,-4.3423,-4.2965,-4.2543,-4.2066,-4.2103,-4.2158,-4.2176,-4.2139,-4.2103,-4.2011,-4.1901,-4.1644,-4.1423,-4.0855,-4.0414,-4.023,-4.1003,-4.2176,-4.2855,-4.2727,-4.2176,-4.2121,-4.2231,-4.2488,-4.2909,-4.3129,-4.3166,-4.3203,-4.3222,-4.3222,-4.3479,-4.3479,-4.3479,-4.3479,-4.3479,-4.3479,-4.3479,-4.3479,-4.3479,-4.3479,-4.3387,-4.3277,-4.2855,-4.1846,-4.1901,-4.2653,-4.2745,-4.2782,-4.2708,-4.1056,-3.9478,-3.9258,-3.8707,-3.8707,-3.8836,-3.8909,-3.8781,-3.8707,-3.8707,-3.8707,-3.8707,-3.8707,-3.8707,-3.8707,-3.8707,-3.8719,-3.881,-3.9003,-3.9414,-3.9739,-4.0031,-4.0269,-4.0449,-4.0481,-4.0496,-4.0496,-4.0496,-4.0496,-4.3479,-4.3479,-4.3479,-4.3479,-4.3479,-4.3479,-4.3479,-4.3496,-4.3479,-4.3496,-4.3582,-4.3952,-4.4322,-4.461,-4.482,-4.5019,-4.5019,-4.4725,-4.4593,-4.4376,-4.4083,-4.3636,-4.3474,-4.35,-4.3289,-4.322,-4.3221,-4.3222,-4.3314,-4.3351,-4.3351,-4.3461,-4.3479,-4.3479,-4.3479,-4.3461,-4.3479,-4.3496,-4.3332,-4.3406,-4.3424,-4.3479,-4.3349,-4.3386,-4.3479,-4.3479,-4.324,-4.2947,-4.2488,-4.2249,-4.1846,-4.1313,-4.1295,-4.1809,-4.258,-4.3258,-4.3351,-4.3149,-4.324,-4.3185,-4.3314,-4.3442,-4.3479,-4.3479,-4.3479,-4.3479,-4.3479,-4.3479,-4.3479,-4.3479,-4.3479,-4.3479,-4.3479,-4.3479,-4.3479,-4.3479,-4.3479,-4.3479,-4.3479,-4.3479,-4.3406,-4.3331,-4.3386,-4.3461,-4.3479,-4.3479,-4.2818,-4.135,-4.0065,-3.9184,-3.8707,-3.9056,-3.9368,-3.9166,-3.8836,-3.8762,-3.8781,-3.8707,-3.8707,-3.8707,-3.8707,-3.8707,-3.8723,-3.8735,-3.8989,-3.9364,-3.9671,-3.9991,-4.0204,-4.0441,-4.0481,-4.0496,-4.0496,-4.0496,-4.0496,-4.3479,-4.3479,-4.3479,-4.3479,-4.3479,-4.3479,-4.3479,-4.3479,-4.3479,-4.3479,-4.3531,-4.3632,-4.3886,-4.415,-4.436,-4.4552,-4.472,-4.4591,-4.4369,-4.4102,-4.4011,-4.383,-4.3667,-4.3582,-4.3532,-4.3515,-4.3479,-4.3479,-4.3479,-4.3479,-4.3479,-4.3479,-4.3479,-4.3479,-4.3479,-4.3479,-4.3479,-4.3479,-4.3479,-4.3479,-4.3479,-4.3479,-4.3479,-4.3479,-4.3479,-4.3479,-4.3406,-4.3368,-4.3294,-4.3221,-4.3001,-4.2268,-4.2121,-4.2433,-4.3112,-4.3368,-4.3479,-4.3479,-4.3479,-4.3479,-4.3479,-4.3479,-4.3479,-4.3479,-4.3479,-4.3479,-4.3479,-4.3479,-4.3479,-4.3479,-4.3479,-4.3479,-4.3479,-4.3479,-4.3479,-4.3479,-4.3479,-4.3479,-4.3479,-4.3479,-4.3461,-4.3424,-4.3424,-4.3479,-4.3479,-4.3479,-4.3479,-4.2066,-4.0689,-3.9735,-3.8799,-3.9276,-3.9772,-3.9405,-3.9019,-3.8909,-3.8872,-3.8781,-3.8707,-3.8707,-3.8707,-3.8707,-3.8723,-3.8738,-3.896,-3.9326,-3.9644,-3.9991,-4.0177,-4.0381,-4.0465,-4.0496,-4.0496,-4.0496,-4.0496]},{"header":{"parameterUnit":"m.s-1","parameterCategory":1,"la1":31.0,"la2":29.5877,"lo1":-88.7671,"lo2":-86.6584,"dy":0.0162,"dx":0.0185,"nx":115,"ny":88,"refTime":"2026-05-24T00:00:00:Z","depth":0,"parameterNumber":3,"parameterNumberName":"V-component_of_WINDS"},"data":[0.0,0.0,0.0,0.0,0.0,0.0,0.0,0.0,0.0,0.0,0.0,0.0,0.0,0.0,0.0,0.0,0.0,0.0,0.0,0.0,0.0,0.0,0.0,0.0,0.0,0.0,0.0,0.0,0.0,0.0,0.0,0.0,0.0,0.0,0.0,0.0,0.0,0.0,0.0,0.0,0.0,0.0,0.0,0.0,0.0,0.0,0.0,0.0,0.0,0.0,0.0,0.0,0.0,0.0,0.0,0.0,0.0,0.0,0.0,0.0,0.0,0.0,0.0,0.0,0.0,0.0,0.0,0.0,0.0,0.0,0.0,0.0,0.0,0.0,0.0,0.0,0.0,0.0,0.0,0.0,0.0,0.0,0.0,0.0,0.0,0.0,0.0,0.0,0.0,0.0,0.0,0.0,0.0,0.0,0.0,0.0,0.0,0.0,0.0,0.0,0.0,0.0,0.0,0.0,0.0,0.0,0.0,0.0,0.0,0.0,0.0,0.0,0.0,0.0,0.0,0.0,0.0,0.0,0.0,0.0,0.0,0.0,0.0,0.0,0.0,0.0,0.0,0.0,0.0,0.0,0.0,0.0,0.0,0.0,0.0,0.0,0.0,0.0,0.0,0.0,0.0,0.0,0.0,0.0,0.0,0.0,0.0,0.0,0.0,0.0,0.0,0.0,0.0,0.0,0.0,0.0,0.0,0.0,0.0,0.0,0.0,0.0,0.0,0.0,0.0,0.0,0.0,0.0,0.0,0.0,0.0,0.0,0.0,0.0,0.0,0.0,0.0,0.0,0.0,0.0,0.0,0.0,0.0,0.0,0.0,0.0,0.0,0.0,0.0,0.0,0.0,0.0,0.0,0.0,0.0,0.0,0.0,0.0,0.0,0.0,0.0,0.0,0.0,0.0,0.0,0.0,0.0,0.0,0.0,0.0,0.0,0.0,0.0,0.0,0.0,0.0,0.0,0.0,0.0,0.0,0.0,0.0,0.0,0.0,0.0,0.0,0.0,0.0,0.0,0.0,0.0,0.0,0.0,0.0,0.0,0.0,0.0,0.0,0.0,0.0,0.0,0.0,0.0,0.0,0.0,0.0,0.0,0.0,0.0,0.0,0.0,0.0,0.0,0.0,0.0,0.0,0.0,0.0,0.0,0.0,0.0,0.0,0.0,0.0,0.0,0.0,0.0,0.0,0.0,0.0,0.0,0.0,0.0,0.0,0.0,0.0,0.0,0.0,0.0,0.0,0.0,0.0,0.0,0.0,0.0,0.0,0.0,0.0,0.0,0.0,0.0,0.0,0.0,0.0,0.0,0.0,0.0,0.0,0.0,0.0,0.0,0.0,0.0,0.0,0.0,0.0,0.0,0.0,0.0,0.0,0.0,0.0,0.0,0.0,0.0,0.0,0.0,0.0,0.0,0.0,0.0,0.0,0.0,0.0,0.0,0.0,0.0,0.0,0.0,0.0,0.0,0.0,0.0,0.0,0.0,0.0,0.0,0.0,0.0,0.0,0.0,0.0,0.0,0.0,0.0,0.0,0.0,0.0,0.0,0.0,0.0,0.0,0.0,0.0,0.0,0.0,0.0,0.0,0.0,0.0,0.0,0.0,0.0,0.0,0.0,0.0,0.0,0.0,0.0,0.0,0.0,0.0,0.0,0.0,0.0,0.0,0.0,0.0,0.0,0.0,0.0,0.0,0.0,0.0,0.0,0.0,0.0,0.0,0.0,0.0,0.0,0.0,0.0,0.0,0.0,0.0,0.0,0.0,0.0,0.0,0.0,0.0,0.0,0.0,0.0,0.0,0.0,0.0,0.0,0.0,0.0,0.0,0.0,0.0,0.0,0.0,0.0,0.0,0.0,0.0,0.0,0.0,0.0,0.0,0.0,0.0,0.0,0.0,0.0,0.0,0.0,0.0,0.0,0.0,0.0,0.0,0.0,0.0,0.0,0.0,0.0,0.0,0.0,0.0,0.0,0.0,0.0,0.0,0.0,0.0,0.0,0.0,0.0,0.0,0.0,0.0,0.0,0.0,0.0,0.0,0.0,0.0,0.0,0.0,0.0,0.0,0.0,0.0,0.0,0.0,0.0,0.0,0.0,0.0,0.0,0.0,0.0,0.0,0.0,0.0,0.0,0.0,0.0,0.0,0.0,0.0,0.0,0.0,0.0,0.0,0.0,0.0,0.0,0.0,0.0,0.0,0.0,0.0,0.0,0.0,0.0,0.0,0.0,0.0,0.0,0.0,0.0,0.0,0.0,0.0,0.0,0.0,0.0,0.0,0.0,0.0,0.0,0.0,0.0,0.0,0.0,0.0,0.0,0.0,0.0,0.0,0.0,0.0,0.0,0.0,0.0,0.0,0.0,0.0,0.0,0.0,0.0,0.0,0.0,0.0,0.0,0.0,0.0,0.0,0.0,0.0,0.0,0.0,0.0,0.0,0.0,0.0,0.0,0.0,0.0,0.0,0.0,0.0,0.0,0.0,0.0,0.0,0.0,0.0,0.0,0.0,0.0,0.0,0.0,0.0,0.0,0.0,0.0,0.0,0.0,0.0,0.0,0.0,0.0,0.0,0.0,0.0,0.0,0.0,0.0,0.0,0.0,0.0,0.0,0.0,0.0,0.0,0.0,0.0,0.0,0.0,0.0,0.0,0.0,0.0,0.0,0.0,0.0,0.0,0.0,0.0,0.0,0.0,0.0,0.0,0.0,0.0,0.0,0.0,0.0,0.0,0.0,0.0,0.0,0.0,0.0,0.0,0.0,0.0,0.0,0.0,0.0,0.0,0.0,0.0,0.0,0.0,0.0,0.0,0.0,0.0,0.0,0.0,0.0,0.0,0.0,0.0,0.0,0.0,0.0,0.0,0.0,0.0,0.0,0.0,0.0,0.0,0.0,0.0,0.0,0.0,0.0,0.0,0.0,0.0,0.0,0.0,0.0,0.0,0.0,0.0,0.0,0.0,0.0,0.0,0.0,0.0,0.0,0.0,0.0,0.0,0.0,0.0,0.0,0.0,0.0,0.0,0.0,0.0,0.0,0.0,0.0,0.0,0.0,0.0,0.0,0.0,0.0,0.0,0.0,0.0,0.0,0.0,0.0,0.0,0.0,0.0,0.0,0.0,0.0,0.0,0.0,0.0,0.0,0.0,0.0,0.0,0.0,0.0,0.0,0.0,0.0,0.0,0.0,0.0,0.0,0.0,0.0,0.0,0.0,0.0,0.0,0.0,0.0,0.0,0.0,0.0,0.0,0.0,0.0,0.0,0.0,0.0,0.0,0.0,0.0,0.0,0.0,0.0,0.0,0.0,0.0,0.0,0.0,0.0,0.0,0.0,0.0,0.0,0.0,0.0,0.0,0.0,0.0,0.0,0.0,0.0,0.0,0.0,0.0,0.0,0.0,0.0,0.0,0.0,0.0,0.0,0.0,0.0,0.0,0.0,0.0,0.0,0.0,0.0,0.0,0.0,0.0,0.0,0.0,0.0,0.0,0.0,0.0,0.0,0.0,0.0,0.0,0.0,0.0,0.0,0.0,0.0,0.0,0.0,0.0,0.0,0.0,0.0,0.0,0.0,0.0,0.0,0.0,0.0,0.0,0.0,0.0,0.0,0.0,0.0,0.0,0.0,0.0,0.0,0.0,0.0,0.0,0.0,0.0,0.0,0.0,0.0,0.0,0.0,0.0,0.0,0.0,0.0,0.0,0.0,0.0,0.0,0.0,0.0,0.0,0.0,0.0,0.0,0.0,0.0,0.0,0.0,0.0,0.0,0.0,0.0,0.0,0.0,0.0,0.0,0.0,0.0,0.0,0.0,0.0,0.0,0.0,0.0,0.0,0.0,0.0,0.0,0.0,0.0,0.0,0.0,0.0,0.0,0.0,0.0,0.0,0.0,0.0,0.0,0.0,0.0,0.0,0.0,0.0,0.0,0.0,0.0,0.0,0.0,0.0,0.0,0.0,0.0,0.0,0.0,0.0,0.0,0.0,0.0,0.0,0.0,0.0,0.0,0.0,0.0,0.0,0.0,0.0,0.0,0.0,0.0,0.0,0.0,0.0,0.0,0.0,0.0,0.0,0.0,0.0,0.0,0.0,0.0,0.0,0.0,0.0,0.0,0.0,0.0,0.0,0.0,0.0,0.0,0.0,0.0,0.0,0.0,0.0,0.0,0.0,0.0,0.0,0.0,0.0,0.0,0.0,0.0,0.0,0.0,0.0,0.0,0.0,0.0,0.0,0.0,0.0,0.0,0.0,0.0,0.0,0.0,0.0,0.0,0.0,0.0,0.5016,0.0,0.0,0.0,0.0,0.0,0.0,0.0,0.0,0.0,0.0,0.0,0.0,0.0,0.0,0.0,0.0,0.0,0.0,0.0,0.0,0.0,0.0,0.0,0.0,0.0,0.0,0.0,0.0,0.0,0.0,0.0,0.0,0.0,0.0,0.0,0.0,0.0,0.0,0.0,0.0,0.0,0.0,0.0,0.0,0.0,0.0,0.0,0.0,0.0,0.0,0.0,0.0,0.0,0.0,0.0,0.0,0.0,0.0,0.0,0.0,0.0,0.0,0.0,0.0,0.0,0.0,0.0,0.0,0.0,0.0,0.0,0.0,0.0,0.0,0.0,0.0,0.0,0.0,0.0,0.0,0.0,0.0,0.0,0.0,0.0,0.0,0.0,0.0,0.0,0.0,0.0,0.0,0.0,0.0,0.0,0.0,0.0,0.0,0.0,0.0,0.0,0.0,0.0,0.0,0.0,0.0,0.0,0.0,0.0,0.0,0.501,0.5825,0.5883,0.5863,0.5883,0.0,0.0,0.0,0.0,0.0,0.0,0.0,0.0,0.0,0.0,0.0,0.0,0.0,0.0,0.0,0.0,0.0,0.0,0.0,0.0,0.0,0.0,0.0,0.0,0.0,0.0,0.0,0.0,0.0,0.0,0.0,0.0,0.0,0.0,0.0,0.0,0.0,0.0,0.0,0.0,0.0,0.0,0.0,0.0,0.0,0.0,0.0,0.0,0.0,0.0,0.0,0.0,0.0,0.0,0.0,0.0,0.0,0.0,0.0,0.0,0.0,0.0,0.0,0.0,0.0,0.0,0.0,0.0,0.0,0.0,0.0,0.0,0.0,0.0,0.0,0.0,0.0,0.0,0.0,0.0,0.0,0.0,0.0,0.0,0.0,0.0,0.0,0.0,0.0,0.0,0.0,0.0,0.0,0.0,0.0,0.0,0.0,0.0,0.0,0.0,0.0,0.0,0.0,0.0,0.0,0.0,0.0,0.0,0.0,0.0,0.0,0.0,0.659,0.659,0.659,0.0,0.0,0.0,0.0,0.0,0.0,0.0,0.0,0.0,0.0,0.0,0.0,0.0,0.0,0.0,0.0,0.0,0.0,0.0,0.0,0.0,0.0,0.0,0.0,0.0,0.0,0.0,0.0,0.0,0.0,0.0,0.0,0.0,0.0,0.0,0.0,0.0,0.0,0.0,0.0,0.0,0.0,0.0,0.0,0.0,0.0,0.0,0.0,0.0,0.0,0.0,0.0,0.0,0.0,0.0,0.0,0.0,0.0,0.0,0.0,0.0,0.0,0.0,0.0,0.0,0.0,0.0,0.0,0.0,0.0,0.0,0.0,0.0,0.0,0.0,0.0,0.0,0.0,0.0,0.0,0.0,0.0,0.0,0.0,0.0,0.0,0.0,0.0,0.0,0.0,0.0,0.0,0.0,0.0,0.0,0.0,0.0,0.0,0.0,0.0,0.0,0.0,0.0,0.0,0.0,0.0,0.0,0.0,0.0,0.0,0.552,0.6553,0.659,0.0,0.659,0.0,0.0,0.0,0.0,0.0,0.0,0.0,0.0,0.0,0.0,0.0,0.0,0.0,0.0,0.0,0.0,0.0,0.0,0.0,0.0,0.0,0.0,0.0,0.0,0.0,0.0,0.0,0.0,0.0,0.0,0.0,0.0,0.0,0.0,0.0,0.0,0.0,0.0,0.0,0.0,0.0,0.0,0.0,0.0,0.0,0.0,0.0,0.0,0.0,0.0,0.0,0.0,0.0,0.0,0.0,0.0,0.0,0.0,0.0,0.0,0.0,0.0,0.0,0.0,0.0,0.0,0.0,0.0,0.0,0.0,0.0,0.0,0.0,0.0,0.0,0.0,0.0,0.0,0.0,0.0,0.0,0.0,0.0,0.0,0.0,0.0,0.0,0.0,0.0,0.0,0.0,0.0,0.0,0.0,0.0,0.0,0.0,0.0,0.0,0.0,0.0,0.0,0.0,0.0,0.0,0.0,0.0,0.0,0.0,0.0,0.5671,0.7053,0.7078,0.7069,0.0,0.0,0.0,0.0,0.0,0.0,0.0,0.0,0.0,0.0,0.0,0.0,0.0,0.0,0.0,0.0,0.0,0.0,0.0,0.0,0.0,0.0,0.0,0.0,0.0,0.0,0.0,0.0,0.0,0.0,0.0,0.0,0.0,0.0,0.0,0.0,0.0,0.0,0.0,0.0,0.0,0.0,0.0,0.0,0.0,0.0,0.0,0.0,0.0,0.0,0.0,0.0,0.0,0.0,0.0,0.0,0.0,0.0,0.0,0.0,0.0,0.0,0.0,0.0,0.0,0.0,0.0,0.0,0.0,0.0,0.0,0.0,0.0,0.0,0.0,0.0,0.0,0.0,0.0,0.0,0.0,0.0,0.0,0.0,0.0,0.0,0.0,0.0,0.0,0.0,0.0,0.0,0.0,0.0,0.0,0.0,0.0,0.0,0.0,0.0,0.0,0.0,0.0,0.0,0.0,0.0,0.0,0.0,0.0,0.0,0.4909,0.5695,0.7069,0.7191,0.7116,0.6975,0.0,0.0,0.0,0.0,0.0,0.0,0.0,0.0,0.0,0.0,0.0,0.0,0.0,0.0,0.0,0.0,0.0,0.0,0.0,0.0,0.0,0.0,0.0,0.0,0.0,0.0,0.0,0.0,0.0,0.0,0.0,0.0,0.0,0.0,0.0,0.0,0.0,0.0,0.0,0.0,0.0,0.0,0.0,0.0,0.0,0.0,0.0,0.0,0.0,0.0,0.0,0.0,0.0,0.0,0.0,0.0,0.0,0.0,0.0,0.0,0.0,0.0,0.0,0.0,0.0,0.0,0.0,0.0,0.0,0.0,0.0,0.0,0.0,0.0,0.0,0.0,0.0,0.0,0.0,0.0,0.0,0.0,0.0,0.0,0.0,0.0,0.0,0.0,0.0,0.0,0.0,0.0,0.0,0.0,0.0,0.0,0.0,0.0,0.0,0.0,0.0,0.0,0.0,0.0,0.0,0.0,0.0,0.0,0.0,0.4701,0.554,0.6586,0.6649,0.6407,0.0,0.0,0.0,0.0,0.0,0.0,0.0,0.0,0.0,0.0,0.0,0.0,0.0,0.0,0.0,0.0,0.0,0.0,0.0,0.0,0.0,0.0,0.0,0.0,0.0,0.0,0.0,0.0,0.0,0.0,0.0,0.0,0.0,0.0,0.0,0.0,0.0,0.0,0.0,0.0,0.0,0.0,0.0,0.0,0.0,0.0,0.0,0.0,0.0,0.0,0.0,0.0,0.0,0.0,0.0,0.0,0.0,0.0,0.0,0.0,0.0,0.0,0.0,0.0,0.0,0.0,0.0,0.0,0.0,0.0,0.0,0.0,0.0,0.0,0.0,0.0,0.0,0.0,0.0,0.0,0.0,0.0,0.0,0.0,0.0,0.0,0.0,0.0,0.0,0.0,0.0,0.0,0.0,0.0,0.0,0.0,0.0,0.0,0.0,0.0,0.0,0.0,0.0,0.0,0.0,0.0,0.0,0.0,0.0,0.413,0.5341,0.6039,0.6094,0.6411,0.6344,0.0,0.0,0.0,0.0,0.0,0.0,0.0,0.0,0.0,0.0,0.0,0.0,0.0,0.0,0.0,0.0,0.0,0.0,0.0,0.0,0.0,0.0,0.0,0.0,0.0,0.0,0.0,0.0,0.0,0.0,0.0,0.0,0.0,0.0,0.0,0.0,0.0,0.0,0.0,0.0,0.0,0.0,0.0,0.0,0.0,0.0,0.0,0.0,0.0,0.0,0.0,0.0,0.0,0.0,0.0,0.0,0.0,0.0,0.0,0.0,0.0,0.0,0.0,0.0,0.0,0.0,0.0,0.0,0.0,0.0,0.0,0.0,0.0,0.0,0.0,0.0,0.0,0.0,0.0,0.0,0.0,0.0,0.0,0.0,0.0,0.0,0.0,0.0,0.0,0.0,0.0,0.0,0.0,0.0,0.0,0.0,0.0,0.0,0.0,0.0,0.0,0.0,0.0,0.0,0.0,0.0,0.0,0.0,0.0,0.4566,0.0,0.6146,0.6001,0.6306,0.6166,0.0,0.0,0.0,0.0,0.0,0.0,0.0,0.0,0.0,0.0,0.0,0.0,0.0,0.0,0.0,0.0,0.0,0.0,0.0,0.0,0.0,0.0,0.0,0.0,0.0,0.0,0.0,0.0,0.0,0.0,0.0,0.0,0.0,0.0,0.0,0.0,0.0,0.0,0.0,0.0,0.0,0.0,0.0,0.0,0.0,0.0,0.0,0.0,0.0,0.0,0.0,0.0,0.0,0.0,0.0,0.0,0.0,0.0,0.0,0.0,0.0,0.0,0.0,0.0,0.0,0.0,0.0,0.0,0.0,0.0,0.0,0.0,0.0,0.0,0.0,0.0,0.0,0.0,0.0,0.0,0.0,0.0,0.0,0.0,0.0,0.0,0.0,0.0,0.0,0.0,0.0,0.0,0.0,0.0,0.0,0.0,0.0,0.0,0.0,0.0,0.0,0.0,0.0,0.0,0.0,0.0,0.0,0.0,0.4416,0.5421,0.5521,0.5807,0.6251,0.6274,0.5816,0.0,0.0,0.0,0.0,0.0,0.0,0.0,0.0,0.0,0.0,0.0,0.0,0.0,0.0,0.0,0.0,0.0,0.0,0.0,0.0,0.0,0.0,0.0,0.0,0.0,0.0,0.0,0.0,0.0,0.0,0.0,0.0,0.0,0.0,0.0,0.0,0.0,0.0,0.0,0.0,0.0,0.0,0.0,0.0,0.0,0.0,0.0,0.0,0.0,0.0,0.0,0.0,0.0,0.0,0.0,0.0,0.0,0.0,0.0,0.0,0.0,0.0,0.0,0.0,0.0,0.0,0.0,0.0,0.0,0.0,0.0,0.0,0.0,0.0,0.0,0.0,0.0,0.0,0.0,0.0,0.0,0.0,0.0,0.0,0.0,0.0,0.0,0.0,0.0,0.0,0.0,0.0,0.0,0.0,0.0,0.0,0.0,0.0,0.0,0.0,0.0,0.0,0.0,0.0,0.0,0.0,0.0,0.0,0.0,0.5108,0.6035,0.6145,0.5408,0.5702,0.5453,0.0,0.0,0.0,0.0,0.0,0.0,0.0,0.0,0.0,0.0,0.0,0.0,0.0,0.0,0.0,0.0,0.0,0.0,0.0,0.0,0.0,0.0,0.0,0.0,0.0,0.0,0.0,0.0,0.0,0.0,0.0,0.0,0.0,0.0,0.0,0.0,0.0,0.0,0.0,0.0,0.0,0.0,0.0,0.0,0.0,0.0,0.0,0.0,0.0,0.0,0.0,0.0,0.0,0.0,0.0,0.0,0.0,0.0,0.0,0.0,0.0,0.0,0.0,0.0,0.0,0.0,0.0,0.0,0.0,0.0,0.0,0.0,0.0,0.0,0.0,0.0,0.0,0.0,0.0,0.0,0.0,0.0,0.0,0.0,0.0,0.0,0.0,0.0,0.0,0.0,0.0,0.0,0.0,0.0,0.0,0.0,0.0,0.0,0.0,0.0,0.0,0.0,0.0,0.0,0.0,0.0,0.0,0.0,0.0,0.6001,0.692,0.6938,0.5907,0.6052,0.5735,0.4898,0.0,0.0,0.0,0.0,0.0,0.0,0.0,0.0,0.0,0.0,0.0,0.0,0.0,0.0,0.0,0.0,0.0,0.0,0.0,0.0,0.0,0.0,0.0,0.0,0.0,0.0,0.0,0.0,0.0,0.0,0.0,0.0,0.0,0.0,0.0,0.0,0.0,0.0,0.0,0.0,0.0,0.0,0.0,0.0,0.0,0.0,0.0,0.0,0.0,0.0,0.0,0.0,0.0,0.0,0.0,0.0,0.0,0.0,0.0,0.0,0.0,0.0,0.0,0.0,0.0,0.0,0.0,0.0,0.0,0.0,0.0,0.0,0.0,0.0,0.0,0.0,0.0,0.0,0.0,0.0,0.0,0.0,0.0,0.0,0.0,0.0,0.0,0.0,0.0,0.0,0.0,0.0,0.0,0.0,0.0,0.0,0.0,0.0,0.0,0.0,0.0,0.0,0.0,0.0,0.0,0.0,0.0,0.0,0.7763,0.8122,0.8055,0.7485,0.7139,0.6517,0.0,0.0,0.0,0.0,0.0,0.0,0.0,0.0,0.0,0.0,0.0,0.0,0.0,0.0,0.0,0.0,0.0,0.0,0.0,0.0,0.0,0.0,0.0,0.0,0.0,0.0,0.0,0.0,0.0,0.0,0.0,0.0,0.0,0.0,0.0,0.0,0.0,0.0,0.0,0.0,0.0,0.0,0.0,0.0,0.0,0.0,0.0,0.0,0.0,0.0,0.0,0.0,0.0,0.0,0.0,0.0,0.0,0.0,0.0,0.0,0.0,0.0,0.0,0.0,0.0,0.0,0.0,0.0,0.0,0.0,0.0,0.0,0.0,0.0,0.0,0.0,0.0,0.0,0.0,0.0,0.0,0.0,0.0,0.0,0.0,0.0,0.0,0.0,0.0,0.0,0.0,0.0,0.0,0.0,0.0,0.0,0.0,0.0,0.0,0.0,0.0,0.0,0.0,0.0,0.0,0.0,0.0,0.0,0.0,0.8652,0.9375,0.9073,0.7728,0.7554,0.6968,0.0,0.0,0.0,0.0,0.0,0.0,0.0,0.0,0.0,0.0,0.0,0.0,0.0,0.0,0.0,0.0,0.0,0.0,0.0,0.0,0.0,0.0,0.0,0.0,0.0,0.0,0.0,0.0,0.0,0.0,0.0,0.0,0.0,0.0,0.0,0.0,0.0,0.0,0.0,0.0,0.0,0.0,0.0,0.0,0.0,0.0,0.0,0.0,0.0,0.0,0.0,0.0,0.0,0.0,0.0,0.0,0.0,0.0,0.0,0.0,0.0,0.0,0.0,0.0,0.0,0.0,0.0,0.0,0.0,0.0,0.0,0.0,0.0,0.0,0.0,0.0,0.0,0.0,0.0,0.0,0.0,0.0,0.0,0.0,0.0,0.0,0.0,0.0,0.0,0.0,0.0,0.0,0.0,0.0,0.0,0.0,0.0,0.0,0.0,0.0,0.0,0.0,0.0,0.0,0.0,0.0,0.0,0.0,0.8129,0.8984,0.9862,0.9717,0.8548,0.8184,0.7513,0.0,0.0,0.0,0.0,0.0,0.0,0.0,0.0,0.0,0.0,0.0,0.0,0.0,0.0,0.0,0.0,0.0,0.0,0.0,0.0,0.0,0.0,0.0,0.0,0.0,0.0,0.0,0.0,0.0,0.0,0.0,0.0,0.0,0.0,0.0,0.0,0.0,0.0,0.0,0.0,0.0,0.0,0.0,0.0,0.0,0.0,0.0,0.0,0.0,0.0,0.0,0.0,0.0,0.0,0.0,0.0,0.0,0.0,0.0,0.0,0.0,0.0,0.0,0.0,0.0,0.0,0.0,0.0,0.0,0.0,0.0,0.0,0.0,0.0,0.0,0.0,0.0,0.0,0.0,0.0,0.0,0.0,0.0,0.0,0.0,0.0,0.0,0.0,0.0,0.0,0.0,0.0,0.0,0.0,0.0,0.0,0.0,0.0,0.0,0.0,0.0,0.0,0.0,0.0,0.0,0.0,0.0,0.0,0.8135,0.8994,0.9817,1.0021,0.9624,0.8909,0.8132,0.0,0.0,0.0,0.0,0.0,0.0,0.0,0.0,0.0,0.0,0.0,0.0,0.0,0.0,0.0,0.0,0.0,0.0,0.0,0.0,0.0,0.0,0.0,0.0,0.0,0.0,0.0,0.0,0.0,0.0,0.0,0.0,0.0,0.0,0.0,0.0,0.0,0.0,0.0,0.0,0.0,0.0,0.0,0.0,0.0,0.0,0.0,0.0,0.0,0.0,0.0,0.0,0.0,0.0,0.0,0.0,0.0,0.0,0.0,0.0,0.0,0.0,0.0,0.0,0.0,0.0,0.0,0.0,0.0,0.0,0.0,0.0,0.0,0.0,0.0,0.0,0.0,0.0,0.0,0.0,0.0,0.0,0.0,0.0,0.0,0.0,0.0,0.0,0.0,0.0,0.0,0.0,0.0,0.0,0.0,0.0,0.0,0.0,0.0,0.0,0.0,0.0,0.0,0.0,0.0,0.0,0.0,0.0,0.8181,0.8985,0.9543,0.9805,0.977,0.9493,0.8792,0.0,0.0,0.0,0.0,0.0,0.0,0.0,0.0,0.0,0.0,0.0,0.0,0.0,0.0,0.0,0.0,0.0,0.0,0.0,0.0,0.0,0.0,0.0,0.0,0.0,0.0,0.0,0.0,0.0,0.0,0.0,0.0,0.0,0.0,0.0,0.0,0.0,0.0,0.0,0.0,0.0,0.0,0.0,0.0,0.0,0.0,0.0,0.0,0.4105,0.0,0.0,0.0,0.0,0.0,0.0,0.0,0.0,0.0,0.0,0.0,0.0,0.0,0.0,0.0,0.0,0.0,0.0,0.0,0.0,0.0,0.0,0.0,0.0,0.0,0.0,0.0,0.0,0.0,0.0,0.0,0.0,0.0,0.0,0.0,0.0,0.0,0.0,0.0,0.0,0.0,0.0,0.0,0.0,0.0,0.0,0.0,0.0,0.0,0.0,0.0,0.0,0.0,0.0,0.0,0.0,0.0,0.0,0.0,0.7757,0.852,0.8987,0.9297,0.941,0.9513,0.9043,0.0,0.0,0.0,0.0,0.0,0.0,0.0,0.0,0.0,0.0,0.0,0.0,0.0,0.0,0.0,0.0,0.0,0.0,0.0,0.0,0.0,0.0,0.0,0.0,0.0,0.0,0.0,0.0,0.0,0.0,0.0,0.0,0.0,0.0,0.0,0.0,0.0,0.0,0.0,0.0,0.0,0.0,0.0,0.0,0.0,0.0,0.0,0.0,0.0,0.0,0.0,0.0,0.0,0.0,0.0,0.0,0.0,0.0,0.0,0.0,0.0,0.0,0.0,0.0,0.0,0.0,0.0,0.0,0.0,0.0,0.0,0.0,0.0,0.0,0.0,0.0,0.0,0.0,0.0,0.0,0.0,0.0,0.0,0.0,0.0,0.0,0.0,0.0,0.0,0.0,0.0,0.0,0.0,0.0,0.0,0.0,0.0,0.0,0.0,0.0,0.0,0.0,0.0,0.0,0.0,0.0,0.0,0.669,0.7388,0.8057,0.8517,0.8816,0.8966,0.9246,0.8966,0.813,0.0,0.0,0.0,0.0,0.0,0.0,0.0,0.0,0.0,0.0,0.0,0.0,0.0,0.0,0.0,0.0,0.0,0.0,0.0,0.0,0.0,0.0,0.0,0.0,0.0,0.0,0.0,0.0,0.0,0.0,0.0,0.0,0.0,0.0,0.0,0.0,0.0,0.0,0.4085,0.4445,0.0,0.0,0.0,0.0,0.0,0.0,0.0,0.0,0.3259,0.0,0.0,0.0,0.0,0.0,0.0,0.0,0.0,0.0,0.0,0.0,0.0,0.0,0.0,0.0,0.0,0.0,0.0,0.0,0.0,0.0,0.0,0.0,0.0,0.0,0.0,0.0,0.0,0.0,0.0,0.0,0.0,0.0,0.0,0.0,0.0,0.0,0.0,0.0,0.0,0.0,0.0,0.0,0.0,0.0,0.0,0.0,0.0,0.0,0.0,0.0,0.0,0.0,0.0,0.0,0.0,0.6398,0.7285,0.7954,0.8399,0.8707,0.8842,0.8845,0.882,0.843,0.7676,0.0,0.0,0.0,0.0,0.0,0.0,0.0,0.0,0.0,0.0,0.0,0.0,0.0,0.0,0.0,0.0,0.0,0.0,0.0,0.0,0.0,0.0,0.0,0.0,0.0,0.0,0.0,0.0,0.0,0.0,0.0,0.0,0.0,0.0,0.0,0.0,0.0,0.0,0.0,0.4406,0.4498,0.0,0.0,0.0,0.0,0.0,0.0,0.0,0.0,0.4007,0.0,0.0,0.0,0.0,0.0,0.0,0.0,0.0,0.0,0.0,0.0,0.0,0.0,0.0,0.0,0.0,0.0,0.0,0.0,0.0,0.0,0.0,0.0,0.0,0.0,0.0,0.0,0.0,0.0,0.0,0.0,0.0,0.0,0.0,0.0,0.0,0.0,0.0,0.0,0.0,0.0,0.0,0.0,0.0,0.0,0.0,0.0,0.0,0.0,0.0,0.0,0.0,0.0,0.0,0.0,0.6055,0.6973,0.7596,0.7966,0.8242,0.8348,0.8298,0.8288,0.7942,0.0,0.0,0.0,0.0,0.0,0.0,0.0,0.0,0.0,0.0,0.0,0.0,0.0,0.0,0.0,0.0,0.0,0.0,0.0,0.0,0.0,0.0,0.0,0.0,0.0,0.0,0.0,0.0,0.0,0.0,0.0,0.0,0.0,0.0,0.0,0.0,0.0,0.0,0.0,0.0,0.4583,0.4753,0.5127,0.0,0.0,0.0,0.0,0.0,0.0,0.3741,0.4004,0.0,0.0,0.0,0.0,0.0,0.0,0.0,0.0,0.0,0.0,0.0,0.0,0.0,0.0,0.0,0.0,0.0,0.0,0.0,0.0,0.0,0.0,0.0,0.0,0.0,0.0,0.0,0.0,0.0,0.0,0.0,0.0,0.0,0.0,0.0,0.0,0.0,0.0,0.0,0.0,0.0,0.0,0.0,0.0,0.0,0.0,0.0,0.0,0.0,0.0,0.0,0.0,0.0,0.0,0.0,0.5792,0.6707,0.7293,0.7584,0.7892,0.8007,0.7863,0.7816,0.7408,0.0,0.0,0.0,0.0,0.0,0.0,0.0,0.0,0.0,0.0,0.0,0.0,0.0,0.0,0.0,0.0,0.0,0.0,0.0,0.0,0.0,0.0,0.0,0.0,0.0,0.0,0.0,0.0,0.0,0.0,0.0,0.0,0.0,0.0,0.0,0.0,0.0,0.0,0.0,0.0,0.0,0.504,0.4882,0.476,0.0,0.0,0.0,0.0,0.4803,0.415,0.0,0.0,0.0,0.0,0.0,0.0,0.0,0.0,0.0,0.0,0.0,0.0,0.0,0.0,0.0,0.0,0.0,0.0,0.0,0.0,0.0,0.0,0.0,0.0,0.0,0.0,0.0,0.0,0.0,0.0,0.0,0.0,0.0,0.0,0.0,0.0,0.0,0.0,0.0,0.0,0.0,0.0,0.0,0.0,0.0,0.0,0.0,0.0,0.0,0.0,0.0,0.0,0.0,0.0,0.0,0.0,0.6142,0.7219,0.7819,0.7872,0.8417,0.8494,0.8071,0.7678,0.6996,0.0,0.0,0.0,0.0,0.0,0.0,0.0,0.0,0.0,0.0,0.0,0.0,0.0,0.0,0.0,0.0,0.0,0.0,0.0,0.0,0.0,0.0,0.0,0.0,0.0,0.0,0.0,0.0,0.0,0.0,0.0,0.0,0.0,0.0,0.0,0.0,0.0,0.0,0.0,0.0,0.0,0.503,0.5059,0.4629,0.4472,0.0,0.0,0.5105,0.5561,0.4844,0.0,0.0,0.0,0.0,0.0,0.0,0.0,0.0,0.0,0.0,0.0,0.0,0.0,0.0,0.0,0.0,0.0,0.0,0.0,0.0,0.0,0.0,0.0,0.0,0.0,0.0,0.0,0.0,0.0,0.0,0.0,0.0,0.0,0.0,0.0,0.0,0.0,0.0,0.0,0.0,0.0,0.0,0.0,0.0,0.0,0.0,0.0,0.0,0.0,0.0,0.0,0.0,0.0,0.0,0.0,0.5454,0.6228,0.7306,0.7905,0.7919,0.8478,0.8549,0.799,0.7643,0.7008,0.0,0.0,0.0,0.0,0.0,0.0,0.0,0.0,0.0,0.0,0.0,0.0,0.0,0.0,0.0,0.0,0.0,0.0,0.0,0.0,0.0,0.0,0.0,0.0,0.0,0.0,0.0,0.0,0.0,0.0,0.0,0.0,0.0,0.0,0.0,0.0,0.0,0.0,0.0,0.0,0.0,0.0,0.4988,0.4953,0.0,0.0,0.0,0.57,0.5521,0.0,0.0,0.0,0.0,0.0,0.0,0.0,0.0,0.0,0.0,0.0,0.0,0.0,0.0,0.0,0.0,0.0,0.0,0.0,0.0,0.0,0.0,0.0,0.0,0.0,0.0,0.0,0.0,0.0,0.0,0.0,0.0,0.0,0.0,0.0,0.0,0.0,0.0,0.0,0.0,0.0,0.0,0.0,0.0,0.0,0.0,0.0,0.0,0.0,0.0,0.0,0.0,0.0,0.0,0.0,0.0,0.0,0.631,0.7361,0.7945,0.8025,0.8512,0.8505,0.7925,0.7651,0.0,0.0,0.0,0.0,0.0,0.0,0.0,0.0,0.0,0.0,0.0,0.0,0.0,0.0,0.0,0.0,0.0,0.0,0.0,0.0,0.0,0.0,0.0,0.0,0.0,0.0,0.0,0.0406,0.0,0.0,0.0,0.0,0.0,0.0,0.0,0.0,0.0,0.0,0.0,0.0,0.0,0.0,0.5001,0.5036,0.5273,0.5686,0.0,0.0,0.6215,0.5793,0.5562,0.5269,0.0,0.0,0.0,0.0,0.0,0.0,0.0,0.0,0.0,0.0,0.0,0.0,0.0,0.0,0.0,0.0,0.0,0.0,0.0,0.0,0.0,0.0,0.0,0.0,0.0,0.0,0.0,0.0,0.0,0.0,0.0,0.0,0.0,0.0,0.0,0.0,0.0,0.0,0.0,0.0,0.0,0.0,0.0,0.0,0.0,0.0,0.0,0.0,0.0,0.0,0.0,0.0,0.0,0.0,0.5715,0.656,0.7446,0.8039,0.8368,0.8651,0.8498,0.7925,0.7629,0.7059,0.0,0.0,0.0,0.0,0.0,0.0,0.0,0.0,0.0,0.0,0.0,0.0,0.0,0.0,0.0,0.0,0.0,0.0,0.0,0.0,0.0,0.0,0.0,0.0,0.0,0.0,0.0,0.0,0.0,0.0,0.0,0.0,0.0,0.0,0.0,0.0,0.0,0.0,0.0,0.0,0.0,0.5444,0.5444,0.5376,0.5331,0.0,0.5882,0.6364,0.6827,0.5985,0.5207,0.4913,0.0,0.0,0.0,0.0,0.0,0.0,0.0,0.0,0.0,0.0,0.0,0.0,0.0,0.0,0.0,0.0,0.0,0.0,0.0,0.0,0.0,0.0,0.0,0.0,0.0,0.0,0.0,0.0,0.0,0.0,0.0,0.0,0.0,0.0,0.0,0.0,0.0,0.0,0.0,0.0,0.0,0.0,0.0,0.0,0.0,0.0,0.0,0.0,0.0,0.0,0.0,0.0,0.0,0.5711,0.6606,0.7453,0.8052,0.8395,0.8657,0.8524,0.7919,0.7816,0.7345,0.0,0.0,0.0,0.0,0.0,0.0,0.0,0.0,0.0,0.0,0.0,0.0,0.0,0.0,0.0,0.0,0.0,0.0,0.0,0.0,0.0,0.0,0.0,0.0,0.0,0.0,0.0,0.0,0.2593,0.2593,0.2588,0.0,0.0,0.0,0.0,0.0,0.0,0.0,0.0,0.0,0.0,0.5508,0.5868,0.5888,0.0,0.0,0.6097,0.676,0.6966,0.6365,0.5685,0.5229,0.455,0.0,0.0,0.0,0.0,0.0,0.0,0.0,0.0,0.0,0.0,0.0,0.0,0.0,0.0,0.0,0.0,0.0,0.0,0.0,0.0,0.0,0.0,0.0,0.0,0.0,0.0,0.0,0.0,0.0,0.0,0.0,0.0,0.0,0.0,0.0,0.0,0.0,0.0,0.0,0.0,0.0,0.0,0.0,0.0,0.0,0.0,0.0,0.0,0.0,0.0,0.0,0.0,0.5775,0.6713,0.7499,0.8092,0.8523,0.8704,0.8571,0.8083,0.7952,0.7548,0.0,0.0,0.0,0.0,0.0,0.0,0.0,0.0,0.0,0.0,0.0,0.0,0.0,0.0,0.0,0.0,0.0,0.0,0.0,0.0,0.0,0.0,0.0,0.0,0.0,0.0,0.0,0.0,0.2655,0.2519,0.2509,0.0,0.0,0.0,0.0,0.0,0.0,0.0,0.0,0.0,0.0,0.5809,0.6149,0.6344,0.6291,0.5876,0.6493,0.6993,0.6993,0.6559,0.5994,0.5403,0.0,0.0,0.0,0.0,0.0,0.0,0.0,0.0,0.0,0.0,0.0,0.0,0.0,0.0,0.0,0.0,0.0,0.0,0.0,0.0,0.0,0.0,0.0,0.0,0.0,0.0,0.0,0.4004,0.0,0.0,0.3556,0.0,0.0,0.0,0.0,0.0,0.0,0.0,0.0,0.0,0.0,0.0,0.0,0.0,0.0,0.0,0.0,0.0,0.0,0.0,0.0,0.0,0.0,0.5858,0.698,0.7606,0.8192,0.8745,0.8778,0.8664,0.8395,0.8059,0.7621,0.6987,0.0,0.0,0.0,0.0,0.0,0.0,0.0,0.0,0.0,0.0,0.0,0.0,0.0,0.0,0.0,0.0,0.0,0.0,0.0,0.0,0.0,0.0,0.0,0.0,0.0,0.0,0.3363,0.2812,0.2424,0.0,0.0,0.0,0.0,0.0,0.0,0.0,0.0,0.0,0.5429,0.6086,0.646,0.6268,0.666,0.694,0.6954,0.6973,0.6993,0.6993,0.6559,0.5994,0.0,0.0,0.0,0.0,0.0,0.0,0.0,0.0,0.0,0.0,0.0,0.0,0.0,0.0,0.0,0.0,0.0,0.0,0.0,0.0,0.0,0.0,0.0,0.0,0.0,0.0,0.0,0.4478,0.4399,0.0,0.0,0.0,0.0,0.0,0.0,0.0,0.0,0.0,0.0,0.0,0.5292,0.4857,0.0,0.0,0.0,0.0,0.0,0.0,0.0,0.0,0.0,0.0,0.0,0.0,0.6384,0.7316,0.794,0.8417,0.8765,0.8778,0.8671,0.8402,0.8065,0.7431,0.6442,0.0,0.0,0.0,0.0,0.0,0.0,0.0,0.0,0.0,0.0,0.0,0.0,0.0,0.0,0.0,0.0,0.0,0.0,0.0,0.0,0.0,0.0,0.0,0.0,0.0,0.3789,0.0,0.0,0.0,0.0,0.0,0.0,0.0,0.0,0.0,0.0,0.0,0.5638,0.6384,0.6512,0.6573,0.6713,0.6873,0.6993,0.0,0.0,0.0,0.0,0.0,0.0,0.0,0.0,0.0,0.0,0.0,0.0,0.0,0.0,0.6855,0.6632,0.5844,0.5263,0.5318,0.0,0.0,0.0,0.0,0.0,0.0,0.0,0.0,0.0,0.0,0.0,0.0,0.0,0.0,0.4795,0.0,0.483,0.0,0.0,0.0,0.0,0.0,0.0,0.0,0.0,0.615,0.5829,0.5397,0.4941,0.4649,0.0,0.4454,0.4163,0.0,0.0,0.0,0.0,0.0,0.0,0.0,0.0,0.6466,0.7276,0.7911,0.8376,0.8705,0.8778,0.8717,0.8549,0.8053,0.7344,0.6442,0.6098,0.5731,0.0,0.0,0.0,0.0,0.0,0.0,0.0,0.0,0.0,0.0,0.0,0.0,0.0,0.0,0.0,0.0,0.0,0.0,0.0,0.0,0.0,0.0,0.0,0.4218,0.0,0.0,0.0,0.0,0.0,0.0,0.0,0.0,0.0,0.526,0.5551,0.6037,0.6886,0.6807,0.676,0.6966,0.0,0.0,0.0,0.0,0.0,0.0,0.0,0.6412,0.6248,0.6526,0.6727,0.6532,0.5997,0.5916,0.6833,0.0,0.0,0.6993,0.6586,0.6236,0.6212,0.6054,0.5947,0.605,0.6006,0.5878,0.0,0.0,0.0,0.0,0.0,0.0,0.0,0.0,0.5334,0.5178,0.0,0.5085,0.0,0.0,0.0,0.0,0.6241,0.6812,0.0,0.0,0.616,0.5749,0.5262,0.4883,0.4545,0.4234,0.4426,0.4334,0.4027,0.3889,0.0,0.0,0.0,0.0,0.0,0.0,0.6163,0.6892,0.7566,0.812,0.8567,0.8718,0.8804,0.8764,0.8021,0.7416,0.6995,0.6258,0.5958,0.6183,0.5349,0.0,0.0,0.0,0.0,0.0,0.0,0.0,0.0,0.0,0.0,0.0,0.0,0.0,0.0,0.0,0.0,0.0,0.0,0.0,0.0,0.4163,0.0,0.0,0.0,0.0,0.0,0.0,0.0,0.0,0.0,0.0,0.5394,0.6035,0.6633,0.6986,0.0,0.0,0.0,0.0,0.7273,0.7846,0.7446,0.706,0.7006,0.6993,0.6834,0.6357,0.0,0.0,0.7093,0.6553,0.6398,0.6921,0.706,0.7053,0.7093,0.7041,0.6974,0.6994,0.6767,0.6586,0.6613,0.6497,0.6437,0.5612,0.0,0.0,0.0,0.0,0.5548,0.5627,0.5796,0.5791,0.5762,0.5698,0.5819,0.0,0.0,0.0,0.0,0.0,0.0,0.6793,0.637,0.5921,0.5517,0.5172,0.494,0.4779,0.4695,0.4685,0.4552,0.4354,0.4164,0.3972,0.3736,0.0,0.0,0.0,0.0,0.6084,0.6701,0.7384,0.7943,0.8321,0.8613,0.8711,0.8497,0.8067,0.7567,0.7003,0.6684,0.6389,0.614,0.6051,0.0,0.0,0.0,0.0,0.0,0.0,0.0,0.0,0.0,0.0,0.0,0.0,0.0,0.0,0.0,0.0,0.0,0.0,0.0,0.409,0.4152,0.4164,0.0,0.0,0.0,0.0,0.0,0.0,0.0,0.0,0.0,0.6473,0.6713,0.704,0.0,0.0,0.6993,0.6993,0.7749,0.8332,0.853,0.8378,0.0,0.7148,0.6993,0.7093,0.7359,0.7692,0.7712,0.71,0.6887,0.6827,0.6993,0.7699,0.8272,0.8218,0.7566,0.7174,0.7355,0.7462,0.7515,0.7506,0.7475,0.7306,0.6139,0.5995,0.5666,0.5571,0.5666,0.5639,0.5761,0.591,0.5938,0.591,0.5931,0.6053,0.6121,0.6164,0.6481,0.0,0.0,0.0,0.6644,0.6264,0.5847,0.5585,0.5354,0.5242,0.5155,0.5087,0.4938,0.4789,0.4643,0.4527,0.4375,0.4198,0.0,0.0,0.4648,0.5352,0.5995,0.6524,0.7378,0.7954,0.8248,0.8598,0.8671,0.8409,0.8065,0.7672,0.7214,0.6922,0.6669,0.6478,0.6465,0.6105,0.0,0.0,0.0,0.0,0.0,0.0,0.0,0.0,0.0,0.0,0.0,0.1812,0.0983,0.0,0.0,0.0,0.3769,0.4362,0.4737,0.4411,0.0,0.0,0.0,0.0,0.0,0.0,0.0,0.6981,0.672,0.6827,0.7592,0.7706,0.7815,0.805,0.7663,0.7359,0.7366,0.0,0.8778,0.8778,0.8586,0.8262,0.7772,0.7513,0.7559,0.8159,0.7997,0.7851,0.7759,0.7526,0.7453,0.7726,0.8323,0.8778,0.8778,0.8179,0.7766,0.8005,0.8183,0.8179,0.7965,0.7905,0.7792,0.6559,0.6458,0.5958,0.5684,0.5661,0.5696,0.5742,0.5871,0.5861,0.5857,0.588,0.5969,0.6105,0.6255,0.6821,0.0,0.6691,0.6672,0.652,0.6187,0.5916,0.58,0.5793,0.5667,0.5528,0.5405,0.522,0.5042,0.4908,0.4891,0.4918,0.4901,0.4638,0.4591,0.4729,0.5276,0.5803,0.6362,0.742,0.8085,0.8347,0.8629,0.8671,0.8409,0.8083,0.7782,0.7491,0.6989,0.6812,0.6963,0.6632,0.6307,0.5987,0.0,0.0,0.0,0.0,0.0,0.0,0.0,0.0,0.0,0.0,0.0,0.0,0.0,0.0,0.0,0.4823,0.0,0.5387,0.4884,0.0,0.0,0.0,0.658,0.5554,0.6366,0.704,0.7126,0.0,0.0,0.8626,0.8798,0.8691,0.8377,0.8125,0.7924,0.79,0.8305,0.8672,0.8593,0.8096,0.7951,0.8306,0.8029,0.7918,0.854,0.8193,0.8013,0.8546,0.8332,0.8238,0.8611,0.8771,0.8778,0.8778,0.8725,0.8778,0.8731,0.8751,0.8624,0.8145,0.8025,0.7988,0.6876,0.6807,0.6668,0.6474,0.6303,0.6261,0.6346,0.6474,0.6399,0.6351,0.6334,0.6257,0.6307,0.6449,0.6831,0.6848,0.6533,0.6603,0.6459,0.6111,0.5893,0.58,0.5796,0.5769,0.5674,0.5532,0.5412,0.523,0.5049,0.4941,0.4918,0.4881,0.4831,0.4817,0.4879,0.5008,0.5373,0.6024,0.6983,0.7952,0.8933,0.8871,0.8671,0.8409,0.8059,0.7782,0.7497,0.7142,0.6941,0.6983,0.6915,0.6632,0.6168,0.5358,0.0,0.0,0.0,0.0,0.0,0.0,0.0,0.0,0.0,0.3131,0.3206,0.0,0.4242,0.0,0.5591,0.6048,0.6196,0.5947,0.0,0.0,0.6506,0.69,0.662,0.6833,0.7346,0.8283,0.7559,0.7386,0.8451,0.8652,0.8485,0.7887,0.8056,0.8197,0.7957,0.7662,0.7488,0.7434,0.6831,0.661,0.7343,0.7211,0.7308,0.8323,0.8254,0.8261,0.8699,0.8704,0.8651,0.8778,0.8778,0.8778,0.8752,0.8778,0.8778,0.8778,0.8778,0.8751,0.8591,0.8481,0.8449,0.7051,0.698,0.698,0.6879,0.6759,0.663,0.662,0.6692,0.661,0.6617,0.66,0.6443,0.6435,0.6496,0.6634,0.6571,0.6401,0.6445,0.6374,0.6196,0.6081,0.6044,0.6003,0.5932,0.5861,0.5779,0.5665,0.5511,0.5423,0.5251,0.5216,0.5213,0.5148,0.5213,0.5332,0.5265,0.5632,0.6397,0.741,0.8387,0.9376,0.9025,0.8731,0.859,0.8156,0.7832,0.7675,0.7255,0.6993,0.6993,0.6993,0.676,0.6223,0.5615,0.4876,0.0,0.0,0.0,0.0,0.0,0.0,0.0,0.0,0.0,0.0,0.0,0.4911,0.597,0.66,0.6955,0.6942,0.67,0.6647,0.6941,0.7446,0.7799,0.7792,0.7319,0.7459,0.8657,0.797,0.7408,0.7491,0.7737,0.7731,0.7264,0.7665,0.781,0.7193,0.6475,0.5932,0.5909,0.5527,0.5691,0.6896,0.6404,0.6312,0.7375,0.7729,0.8023,0.8672,0.8778,0.8778,0.8778,0.8778,0.8593,0.8189,0.848,0.8725,0.8401,0.8368,0.8501,0.8725,0.8639,0.8527,0.7146,0.717,0.7125,0.7115,0.7075,0.6865,0.6756,0.6756,0.6736,0.6719,0.6692,0.6603,0.6542,0.6532,0.6412,0.6358,0.6358,0.6334,0.6323,0.6327,0.6306,0.63,0.6293,0.6122,0.601,0.5986,0.5895,0.582,0.5796,0.5677,0.5606,0.5583,0.5491,0.5582,0.5918,0.5904,0.6362,0.7276,0.825,0.9032,0.9673,0.9112,0.8784,0.8731,0.8199,0.7885,0.7832,0.7299,0.6993,0.6993,0.6993,0.6773,0.633,0.5802,0.526,0.0,0.4842,0.0,0.0,0.0,0.0,0.0,0.0,0.0,0.0,0.4856,0.5972,0.706,0.7686,0.7879,0.7584,0.7288,0.7326,0.7829,0.8425,0.8778,0.8738,0.7852,0.7626,0.8691,0.8313,0.7519,0.6419,0.6508,0.6655,0.6766,0.7174,0.718,0.6285,0.5302,0.4625,0.4491,0.4491,0.5117,0.6182,0.5664,0.5308,0.6372,0.6885,0.7503,0.8474,0.8639,0.8639,0.8566,0.848,0.8162,0.7112,0.783,0.8295,0.7696,0.7557,0.7791,0.8421,0.8401,0.8295,0.7438,0.7378,0.7326,0.7255,0.7092,0.7038,0.7014,0.7007,0.6893,0.6817,0.6702,0.6671,0.6658,0.6654,0.663,0.6617,0.661,0.6528,0.647,0.6467,0.6354,0.63,0.63,0.6269,0.6152,0.5996,0.5966,0.5885,0.58,0.5772,0.5705,0.5593,0.5562,0.5752,0.6152,0.0,0.0,0.0,0.8854,0.9143,0.9637,0.9105,0.8697,0.8482,0.8092,0.0,0.7578,0.7208,0.6993,0.6993,0.6993,0.0,0.0,0.0,0.0,0.0,0.0,0.0,0.0,0.0,0.0,0.0,0.6439,0.6231,0.5541,0.6206,0.7033,0.7885,0.8365,0.8424,0.7872,0.7749,0.7756,0.7912,0.8457,0.8778,0.8798,0.8597,0.8577,0.8751,0.8557,0.7754,0.6286,0.5789,0.5957,0.6561,0.6879,0.6724,0.6046,0.5126,0.4511,0.4491,0.4518,0.4601,0.4956,0.4778,0.4958,0.5814,0.614,0.6745,0.7744,0.8037,0.7851,0.7488,0.7408,0.7106,0.6218,0.681,0.7268,0.6885,0.6502,0.6578,0.7791,0.7771,0.761,0.7553,0.7478,0.74,0.7326,0.0,0.7129,0.7095,0.7088,0.7021,0.6943,0.6915,0.6802,0.6814,0.6807,0.6736,0.6702,0.6698,0.662,0.6586,0.6576,0.6474,0.6405,0.6363,0.6334,0.6259,0.6146,0.6142,0.6105,0.6027,0.5949,0.584,0.5694,0.5627,0.5818,0.6321,0.7517,0.8587,0.9556,0.9444,0.9495,0.9673,0.9217,0.8884,0.8623,0.8297,0.0,0.0,0.0,0.0,0.0,0.0,0.0,0.0,0.0,0.0,0.662,0.6359,0.6157,0.5983,0.6352,0.6727,0.7022,0.7295,0.7279,0.6907,0.7508,0.8009,0.8277,0.8611,0.8744,0.8571,0.8425,0.8444,0.8624,0.8751,0.9005,0.9581,0.9702,0.9673,0.9648,0.9266,0.8409,0.69,0.6053,0.5756,0.602,0.6115,0.605,0.5701,0.5266,0.4941,0.4948,0.4648,0.4549,0.4653,0.4687,0.4966,0.569,0.5896,0.6149,0.6754,0.6848,0.6637,0.5991,0.58,0.5656,0.5498,0.5634,0.5914,0.6128,0.5701,0.5559,0.6605,0.6799,0.6912,0.7662,0.7624,0.7502,0.748,0.7404,0.7278,0.7162,0.7177,0.0,0.0,0.0,0.6974,0.6923,0.6913,0.6834,0.6776,0.6776,0.6753,0.6739,0.6732,0.6552,0.6515,0.6504,0.6368,0.63,0.63,0.63,0.63,0.6296,0.6132,0.5976,0.5803,0.5684,0.5945,0.6659,0.8139,0.9236,0.9793,0.9928,0.986,0.9686,0.9364,0.9078,0.8785,0.8556,0.8402,0.8395,0.8065,0.7905,0.7899,0.7459,0.7146,0.7013,0.71,0.7166,0.7146,0.6921,0.6807,0.6834,0.7275,0.7598,0.7645,0.7909,0.8032,0.7972,0.8365,0.8631,0.8583,0.8804,0.9065,0.9257,0.9105,0.9105,0.9452,0.9265,0.9554,1.0425,1.0586,1.0445,1.0238,0.9582,0.8861,0.7619,0.6671,0.5921,0.5557,0.5524,0.5395,0.5395,0.5401,0.5337,0.53,0.4979,0.4757,0.4877,0.4979,0.5192,0.5567,0.5643,0.5656,0.564,0.5628,0.5374,0.4984,0.468,0.4829,0.4955,0.4939,0.4926,0.5629,0.5101,0.4708,0.5395,0.5746,0.6073,0.7899,0.7777,0.776,0.7678,0.7567,0.7546,0.7461,0.7329,0.72,0.7095,0.7095,0.7075,0.7065,0.7065,0.7045,0.7034,0.7028,0.6906,0.6895,0.6881,0.6607,0.6515,0.6504,0.6364,0.63,0.63,0.63,0.63,0.6296,0.6276,0.6122,0.583,0.5779,0.6248,0.725,0.8134,0.9043,0.9945,1.0052,0.9943,0.9686,0.9364,0.9071,0.8818,0.8556,0.8402,0.8395,0.8096,0.7905,0.7905,0.7985,0.7719,0.7073,0.7493,0.7779,0.7772,0.7589,0.7519,0.7706,0.7799,0.7976,0.8261,0.8517,0.8518,0.8192,0.8079,0.8358,0.9138,0.9426,0.9573,0.9613,0.9573,0.9648,0.9903,1.0177,1.0425,1.0579,1.0561,1.0047,0.8894,0.8705,0.8344,0.7689,0.7031,0.6338,0.5818,0.5491,0.5395,0.5395,0.5395,0.5395,0.5395,0.5334,0.5218,0.5129,0.5228,0.5246,0.503,0.5105,0.5148,0.5141,0.5153,0.5168,0.5236,0.5201,0.5242,0.531,0.5306,0.5185,0.5106,0.4723,0.4643,0.482,0.4833,0.5093,0.7951,0.7926,0.7845,0.7773,0.7709,0.7634,0.7512,0.7415,0.7295,0.7217,0.7098,0.7095,0.7095,0.7095,0.7095,0.7095,0.7092,0.7028,0.7001,0.698,0.6736,0.6637,0.6576,0.6366,0.63,0.63,0.63,0.63,0.63,0.63,0.6139,0.581,0.5818,0.6233,0.7003,0.7707,0.8587,0.9594,1.0014,1.0122,0.9927,0.9633,0.9339,0.9018,0.8758,0.8604,0.8611,0.8477,0.8404,0.8378,0.8465,0.837,0.7992,0.7932,0.7952,0.8052,0.7972,0.7985,0.8163,0.8292,0.8438,0.8604,0.8878,0.8971,0.8871,0.8577,0.8684,0.9339,0.9869,1.0117,0.9933,0.978,0.9876,1.0285,1.0492,1.0586,1.0523,1.0212,0.9177,0.726,0.6806,0.7134,0.7954,0.69,0.6013,0.5587,0.5458,0.5395,0.5395,0.5395,0.5395,0.5395,0.5392,0.5358,0.5308,0.5324,0.5327,0.5204,0.519,0.5159,0.5159,0.5159,0.5213,0.5358,0.5395,0.5395,0.5395,0.5392,0.5255,0.503,0.486,0.4788,0.4665,0.4556,0.4656,0.7988,0.7975,0.7864,0.7865,0.7848,0.7706,0.7577,0.7511,0.745,0.7305,0.7197,0.7115,0.7095,0.7095,0.7095,0.7095,0.7095,0.7095,0.7095,0.7068,0.6829,0.6732,0.6678,0.6467,0.633,0.6303,0.63,0.63,0.63,0.63,0.6143,0.5839,0.5847,0.6117,0.6556,0.7246,0.8134,0.9139,0.9786,1.0095,1.009,0.9893,0.9584,0.9224,0.9004,0.8871,0.8818,0.8778,0.8778,0.8778,0.8778,0.8778,0.8758,0.8358,0.8172,0.8318,0.8458,0.8584,0.8697,0.8898,0.9005,0.9011,0.9184,0.9364,0.9479,0.9239,0.9185,0.9668,1.0231,1.0479,1.0241,1.0033,1.0097,1.0533,1.0586,1.0586,1.053,0.983,0.8344,0.6017,0.5462,0.6152,0.7297,0.6642,0.5624,0.5462,0.5395,0.5395,0.5395,0.5395,0.5395,0.5395,0.5395,0.5392,0.5395,0.5392,0.5388,0.5395,0.5385,0.5365,0.5371,0.5385,0.5392,0.5395,0.5395,0.5395,0.5395,0.5395,0.5324,0.5135,0.5047,0.5006,0.4782,0.4614,0.4501,0.7988,0.7988,0.7968,0.7968,0.7944,0.7855,0.7777,0.7726,0.7492,0.7366,0.7333,0.72,0.7098,0.7095,0.7095,0.7095,0.7095,0.7095,0.7095,0.7082,0.6937,0.6834,0.6692,0.6525,0.6426,0.6313,0.63,0.63,0.63,0.6293,0.6139,0.5817,0.5815,0.5925,0.6193,0.6868,0.7744,0.8742,0.9294,0.9737,1.0073,1.0094,0.9784,0.9196,0.9191,0.9051,0.8831,0.8778,0.8811,0.8778,0.8824,0.8791,0.8811,0.8718,0.8731,0.8778,0.9239,0.9559,0.9552,0.9621,0.9608,0.9606,0.9613,0.9719,0.9909,0.9755,0.9869,1.0325,1.0526,1.0566,1.0559,1.0492,1.0486,1.0553,1.0586,1.0586,1.0466,0.9408,0.7889,0.6086,0.566,0.5818,0.6699,0.6366,0.5874,0.5452,0.5429,0.5416,0.5395,0.5395,0.5395,0.5395,0.5402,0.5416,0.5405,0.5395,0.5395,0.5395,0.5395,0.5395,0.5395,0.5395,0.5395,0.5395,0.5395,0.5395,0.5395,0.5388,0.5344,0.5199,0.5114,0.5061,0.4894,0.4691,0.4552,0.7988,0.7988,0.7988,0.7988,0.7978,0.7924,0.7896,0.7797,0.7685,0.7539,0.7422,0.7302,0.7227,0.7098,0.7095,0.7095,0.7095,0.7095,0.7095,0.7082,0.6997,0.6805,0.6695,0.6542,0.6436,0.6306,0.63,0.63,0.6282,0.6169,0.6013,0.581,0.5724,0.5678,0.5734,0.6383,0.7223,0.828,0.8909,0.9597,1.0281,1.0207,0.997,0.9744,0.9593,0.9452,0.9345,0.9325,0.9353,0.9325,0.9353,0.9319,0.9325,0.8998,0.8965,0.9299,0.9568,0.9715,0.9715,0.9715,0.9715,0.9715,0.984,0.998,1.006,1.014,1.0345,1.0533,1.0586,1.0586,1.0586,1.0586,1.0586,1.0586,1.0586,1.0586,1.0555,0.9728,0.8544,0.7293,0.6284,0.5756,0.5948,0.595,0.581,0.5562,0.5549,0.5532,0.5429,0.5395,0.5395,0.5443,0.5678,0.5736,0.5498,0.5395,0.5399,0.5395,0.5395,0.5395,0.5395,0.5395,0.5395,0.5395,0.5395,0.5395,0.5395,0.5395,0.5365,0.5279,0.5165,0.5087,0.5019,0.485,0.4701,0.7988,0.7988,0.7988,0.7988,0.7988,0.7988,0.7928,0.7875,0.7831,0.7689,0.7495,0.7456,0.7312,0.7207,0.7119,0.7095,0.7095,0.7095,0.7095,0.7082,0.6987,0.6909,0.6756,0.6607,0.6501,0.6371,0.6317,0.63,0.6286,0.6156,0.5976,0.5867,0.5762,0.5633,0.5596,0.6153,0.6979,0.8015,0.8663,0.953,1.0401,1.0378,1.02,1.0114,0.9913,0.9766,0.9722,0.9715,0.9715,0.9715,0.9715,0.9715,0.9702,0.9279,0.9305,0.9856,0.9876,0.9869,0.9913,0.992,0.995,0.994,1.0127,1.0234,1.0274,1.0441,1.0579,1.0586,1.0586,1.0586,1.0586,1.0586,1.0586,1.0586,1.0586,1.0586,1.0555,1.0053,0.9538,0.8788,0.7574,0.6283,0.573,0.5672,0.5742,0.5671,0.5706,0.5699,0.5579,0.5597,0.5665,0.5655,0.6037,0.5996,0.5539,0.5535,0.5515,0.5419,0.5419,0.5453,0.5412,0.5395,0.5395,0.5395,0.5395,0.5395,0.5395,0.5395,0.5395,0.5371,0.5303,0.5192,0.5196,0.5094,0.4969,0.7988,0.7988,0.7988,0.7988,0.7988,0.7988,0.7985,0.7955,0.7882,0.7801,0.7736,0.7506,0.7415,0.7339,0.7169,0.7098,0.7095,0.7095,0.7095,0.7095,0.7082,0.7007,0.6912,0.6763,0.6607,0.6484,0.6371,0.631,0.63,0.6286,0.6173,0.5983,0.5956,0.5922,0.5866,0.6318,0.7133,0.8135,0.8772,0.9548,1.0473,1.0586,1.0408,1.0174,1.0107,0.998,0.9753,0.9729,0.9735,0.9729,0.9755,0.9742,0.9722,0.9673,0.993,1.0419,1.0247,1.0221,1.0472,1.0499,1.0506,1.0519,1.0512,1.0559,1.0526,1.0566,1.0586,1.0586,1.0586,1.0586,1.0586,1.0586,1.0586,1.0586,1.0586,1.0586,1.0586,1.053,1.0601,1.039,0.9108,0.7507,0.5964,0.5735,0.5813,0.5806,0.58,0.58,0.5866,0.605,0.6163,0.6184,0.6207,0.6091,0.5586,0.5627,0.5692,0.5648,0.5627,0.5525,0.5463,0.5395,0.5395,0.5395,0.5395,0.5395,0.5395,0.5395,0.5395,0.5385,0.5385,0.5351,0.5327,0.5365,0.5272,0.7988,0.7988,0.7988,0.7988,0.7988,0.7988,0.7988,0.7985,0.798,0.7853,0.7807,0.7695,0.755,0.7366,0.7312,0.7234,0.7102,0.7095,0.7095,0.7095,0.7095,0.7021,0.6889,0.6825,0.6709,0.6532,0.6417,0.6385,0.6306,0.63,0.6183,0.6016,0.5993,0.5919,0.596,0.6459,0.7333,0.8399,0.915,0.9952,1.0751,1.0874,1.0734,1.0452,1.0432,1.0378,1.0278,1.0278,1.0278,1.0278,1.0278,1.0271,1.0271,1.0278,1.0358,1.0546,1.0492,1.0479,1.0573,1.0586,1.0586,1.0586,1.0586,1.0593,1.0586,1.0586,1.0586,1.0593,1.0593,1.0586,1.0586,1.0586,1.0593,1.0586,1.0593,1.0606,1.0586,1.0606,1.0889,1.1207,0.9911,0.7884,0.6683,0.6141,0.6051,0.5979,0.603,0.6112,0.6139,0.6245,0.63,0.63,0.6293,0.6228,0.6061,0.588,0.5863,0.5921,0.5904,0.5627,0.5508,0.545,0.544,0.5399,0.5395,0.5395,0.5395,0.5395,0.5395,0.5395,0.5395,0.5395,0.5392,0.5395,0.5395,0.7988,0.7988,0.7988,0.7988,0.7988,0.7988,0.7988,0.7988,0.7988,0.7931,0.7889,0.7834,0.7695,0.7516,0.746,0.7319,0.7169,0.7122,0.7095,0.7095,0.7095,0.7045,0.696,0.6906,0.6778,0.6627,0.6552,0.6439,0.6313,0.63,0.6203,0.6112,0.6105,0.6054,0.6106,0.6634,0.7569,0.8583,0.9408,1.0218,1.1009,1.1042,1.0902,1.0754,1.0646,1.0586,1.0586,1.0586,1.0586,1.0586,1.0586,1.0586,1.0586,1.0586,1.0586,1.0586,1.0586,1.0586,1.0586,1.0586,1.0586,1.0586,1.0593,1.062,1.07,1.0646,1.0593,1.0633,1.1008,1.1122,1.0882,1.0881,1.0801,1.068,1.076,1.0742,1.0646,1.0955,1.1504,1.1804,1.0503,0.8674,0.7282,0.6878,0.653,0.6191,0.6238,0.6293,0.63,0.63,0.63,0.63,0.63,0.6296,0.6214,0.6105,0.6064,0.6112,0.6054,0.5766,0.5638,0.5566,0.5504,0.544,0.5409,0.5402,0.5395,0.5399,0.5399,0.5402,0.5395,0.5395,0.5395,0.5395,0.5395,0.7988,0.7988,0.7988,0.7988,0.7988,0.7988,0.7988,0.7988,0.7988,0.7978,0.7944,0.7885,0.7811,0.7736,0.7526,0.7433,0.7329,0.7221,0.7112,0.7095,0.7095,0.7092,0.7071,0.696,0.6879,0.6848,0.6603,0.6439,0.6306,0.63,0.6289,0.6289,0.6276,0.6259,0.6282,0.6885,0.7725,0.874,0.9504,1.0357,1.1225,1.1196,1.1042,1.0981,1.076,1.0613,1.0593,1.0586,1.0586,1.0586,1.0586,1.0586,1.0586,1.0586,1.0586,1.0586,1.0586,1.0586,1.0586,1.0593,1.0606,1.0673,1.0613,1.0707,1.0875,1.0861,1.0727,1.0727,1.1483,1.2004,1.1523,1.1355,1.1169,1.0767,1.1042,1.1136,1.0928,1.1611,1.2278,1.2137,1.1071,0.983,0.8485,0.7583,0.7084,0.6468,0.6286,0.63,0.63,0.63,0.63,0.63,0.63,0.63,0.63,0.6293,0.6286,0.6269,0.6118,0.5956,0.5887,0.5808,0.5774,0.5719,0.5682,0.5668,0.5528,0.5521,0.5467,0.5457,0.5433,0.5405,0.5395,0.5395,0.5395,0.7988,0.7988,0.7988,0.7988,0.7988,0.7988,0.7988,0.7988,0.7988,0.7988,0.7982,0.7941,0.7913,0.7814,0.7706,0.7563,0.7422,0.7312,0.7241,0.7109,0.7095,0.7095,0.7088,0.7051,0.6923,0.677,0.6569,0.6439,0.6323,0.63,0.63,0.63,0.63,0.63,0.6335,0.7053,0.7959,0.9068,0.9907,1.0749,1.1645,1.1678,1.1444,1.1022,1.0935,1.0807,1.0606,1.0586,1.0586,1.0593,1.0586,1.0586,1.0586,1.0586,1.0586,1.0586,1.0586,1.0586,1.0586,1.0613,1.0794,1.0975,1.0834,1.0794,1.1076,1.1503,1.1383,1.0894,1.1603,1.2198,1.2037,1.1735,1.145,1.1002,1.1349,1.1349,1.0909,1.1575,1.2204,1.2187,1.1484,1.0164,0.8575,0.7783,0.7219,0.649,0.63,0.63,0.63,0.63,0.63,0.63,0.63,0.63,0.63,0.63,0.63,0.63,0.619,0.6132,0.6085,0.6037,0.6009,0.5986,0.5951,0.5883,0.5708,0.5599,0.5583,0.5521,0.5494,0.5457,0.5409,0.5395,0.5395,0.7988,0.7988,0.7988,0.7988,0.7988,0.7988,0.7988,0.7988,0.7988,0.7988,0.7988,0.7988,0.7941,0.7899,0.7838,0.7678,0.7511,0.745,0.7288,0.7115,0.7095,0.7095,0.7095,0.7095,0.6943,0.6732,0.6607,0.6494,0.6306,0.63,0.63,0.63,0.6374,0.6451,0.6602,0.7403,0.8394,0.9485,1.0314,1.1138,1.1827,1.196,1.1732,1.1356,1.1209,1.1062,1.0895,1.0908,1.0782,1.064,1.0586,1.0586,1.0586,1.0593,1.068,1.0861,1.0807,1.0713,1.0633,1.0814,1.1015,1.1242,1.1089,1.1029,1.1355,1.1971,1.1877,1.1516,1.187,1.2305,1.2258,1.2098,1.1782,1.1575,1.1602,1.157,1.1343,1.1553,1.1987,1.1929,1.1223,1.0013,0.9036,0.7897,0.7257,0.649,0.63,0.63,0.63,0.63,0.63,0.63,0.63,0.63,0.63,0.63,0.63,0.63,0.6286,0.6262,0.6218,0.6207,0.619,0.618,0.6153,0.6129,0.6006,0.5779,0.5713,0.5644,0.559,0.5539,0.5501,0.5419,0.5402,0.8038,0.7988,0.7988,0.7988,0.7988,0.7988,0.7988,0.7988,0.7988,0.7988,0.7988,0.7988,0.7985,0.7951,0.7847,0.775,0.759,0.7465,0.7309,0.7139,0.7095,0.7095,0.7095,0.7095,0.694,0.6736,0.6688,0.6536,0.631,0.63,0.63,0.6296,0.6528,0.6753,0.7096,0.7944,0.8922,0.9933,1.0732,1.1471,1.2221,1.2051,1.1913,1.1852,1.1583,1.1416,1.1343,1.1329,1.1129,1.0734,1.0713,1.0693,1.062,1.0606,1.0902,1.1275,1.1149,1.0922,1.0834,1.1062,1.1389,1.153,1.145,1.1495,1.1722,1.2064,1.2258,1.2118,1.2245,1.2305,1.2305,1.2265,1.2231,1.2238,1.1941,1.1917,1.2138,1.1613,1.1552,1.1706,1.0694,0.9463,0.9382,0.8203,0.7253,0.6528,0.63,0.63,0.63,0.63,0.63,0.6313,0.634,0.6337,0.6351,0.63,0.63,0.63,0.63,0.6303,0.63,0.63,0.63,0.63,0.6296,0.6289,0.6231,0.603,0.5857,0.58,0.5728,0.5675,0.559,0.5508,0.5416,0.8482,0.8287,0.8088,0.7988,0.7988,0.7988,0.7988,0.7988,0.7988,0.7988,0.7988,0.7988,0.7988,0.7982,0.7944,0.7841,0.7641,0.7556,0.7387,0.7125,0.7095,0.7095,0.7095,0.7092,0.699,0.6742,0.6698,0.6549,0.6317,0.6303,0.63,0.63,0.6641,0.7057,0.7591,0.8389,0.9442,1.0458,1.1031,1.1632,1.2181,1.2238,1.2114,1.1906,1.1832,1.1643,1.1456,1.143,1.1349,1.1196,1.1169,1.0982,1.0707,1.0955,1.1229,1.1369,1.1376,1.1296,1.1249,1.1315,1.1588,1.1977,1.169,1.1637,1.2104,1.2238,1.2305,1.2305,1.2305,1.2305,1.2305,1.2305,1.2305,1.2298,1.2178,1.2158,1.2154,1.1632,1.1223,1.1223,1.0282,0.9279,0.8284,0.7739,0.7014,0.6518,0.632,0.6303,0.6306,0.6303,0.6306,0.6399,0.6433,0.6419,0.6392,0.633,0.63,0.63,0.63,0.6306,0.6303,0.63,0.63,0.63,0.63,0.6293,0.6293,0.6201,0.6081,0.5976,0.5901,0.5846,0.5716,0.5617,0.5484,0.9069,0.868,0.8237,0.7988,0.7988,0.7988,0.7988,0.7988,0.7988,0.7988,0.7988,0.7988,0.7988,0.7988,0.7985,0.7913,0.7702,0.7624,0.7465,0.7265,0.7125,0.7098,0.7095,0.7092,0.6977,0.6814,0.6729,0.6573,0.6416,0.6334,0.63,0.6416,0.6795,0.7361,0.8042,0.896,0.9938,1.0907,1.144,1.1892,1.2268,1.2305,1.2238,1.2114,1.2087,1.1951,1.1817,1.1797,1.1662,1.1442,1.1302,1.1176,1.1009,1.1303,1.1617,1.1757,1.169,1.1657,1.177,1.1797,1.1944,1.2178,1.1937,1.1991,1.2211,1.2305,1.2305,1.2305,1.2305,1.2305,1.2305,1.2305,1.2305,1.2305,1.2305,1.2311,1.2311,1.1601,1.0999,1.053,0.9796,0.8707,0.7242,0.7062,0.69,0.66,0.6467,0.6395,0.6327,0.6327,0.6419,0.659,0.6641,0.6661,0.6536,0.6474,0.6461,0.6444,0.6378,0.6371,0.6303,0.63,0.63,0.63,0.63,0.63,0.63,0.6296,0.6248,0.6156,0.6091,0.5973,0.5847,0.5788,0.5644,0.985,0.9266,0.8428,0.8088,0.8038,0.8038,0.7988,0.7988,0.7988,0.7988,0.7988,0.7988,0.7988,0.7988,0.7985,0.7943,0.777,0.7645,0.7492,0.7322,0.7204,0.7095,0.7095,0.7095,0.7007,0.6862,0.6773,0.6658,0.6494,0.6361,0.6303,0.6451,0.6914,0.7706,0.8537,0.9458,1.0481,1.1366,1.1818,1.2077,1.2268,1.2305,1.2285,1.2265,1.2251,1.2251,1.2238,1.2231,1.2051,1.155,1.1315,1.1375,1.1495,1.1662,1.1911,1.2131,1.2031,1.2011,1.2218,1.2218,1.2265,1.2285,1.2285,1.2305,1.2305,1.2305,1.2305,1.2305,1.2305,1.2365,1.2458,1.2392,1.2358,1.2392,1.2385,1.2331,1.2309,1.1721,1.0839,0.9981,0.932,0.8112,0.7132,0.669,0.6905,0.6805,0.6654,0.6545,0.6485,0.6539,0.6709,0.6946,0.6993,0.6957,0.6803,0.659,0.6654,0.6681,0.6555,0.6463,0.6327,0.63,0.63,0.63,0.63,0.63,0.63,0.6296,0.6289,0.6265,0.618,0.6095,0.6,0.5969,0.589,1.0837,1.0064,0.9072,0.8531,0.8283,0.8088,0.7988,0.7988,0.7988,0.7988,0.7988,0.7988,0.7988,0.7988,0.7978,0.785,0.7685,0.76,0.7458,0.7156,0.7119,0.7095,0.7095,0.7095,0.7018,0.6889,0.6776,0.6627,0.6518,0.6388,0.63,0.6416,0.7142,0.8012,0.9069,0.9943,1.0962,1.1892,1.2194,1.2231,1.2268,1.2305,1.2305,1.2305,1.2305,1.2305,1.2305,1.2305,1.2238,1.2131,1.2044,1.1984,1.2051,1.2111,1.2198,1.2245,1.2258,1.2231,1.2291,1.2305,1.2305,1.2305,1.2305,1.2305,1.2305,1.2305,1.2305,1.2305,1.2318,1.2505,1.2913,1.2572,1.2518,1.2619,1.2579,1.2705,1.322,1.2449,1.13,1.0164,0.9251,0.8279,0.7094,0.6812,0.6922,0.6956,0.6871,0.6685,0.6705,0.6776,0.6932,0.7095,0.7078,0.7038,0.6927,0.68,0.6851,0.6851,0.6695,0.6508,0.6371,0.63,0.63,0.63,0.63,0.63,0.63,0.6296,0.6293,0.6279,0.6269,0.6193,0.6152,0.616,0.6136,1.2145,1.1184,0.9903,0.9118,0.8722,0.8237,0.7988,0.7988,0.7988,0.7988,0.7988,0.7988,0.7988,0.7988,0.7978,0.7909,0.7702,0.7543,0.7366,0.7136,0.7095,0.7095,0.7095,0.7095,0.7045,0.695,0.6797,0.6654,0.659,0.6498,0.6528,0.6679,0.7446,0.8504,0.9523,1.0395,1.1254,1.2083,1.2305,1.2305,1.2305,1.2305,1.2305,1.2305,1.2305,1.2305,1.2305,1.2305,1.2305,1.2305,1.2305,1.2305,1.2305,1.2305,1.2305,1.2305,1.2305,1.2305,1.2305,1.2305,1.2305,1.2305,1.2305,1.2305,1.2305,1.2305,1.2305,1.2305,1.2378,1.2619,1.3447,1.3086,1.2906,1.2899,1.3066,1.322,1.316,1.2775,1.204,1.077,0.9741,0.8556,0.7655,0.7261,0.7547,0.7886,0.7155,0.6948,0.6922,0.699,0.7024,0.7095,0.7095,0.7068,0.7018,0.6977,0.7007,0.695,0.6854,0.6576,0.6368,0.6323,0.63,0.63,0.63,0.63,0.63,0.63,0.63,0.6289,0.6286,0.6296,0.6282,0.6235,0.6228,1.3403,1.2339,1.0877,0.9903,0.9266,0.8531,0.8137,0.8088,0.7988,0.7988,0.7988,0.7988,0.7988,0.7988,0.7988,0.7943,0.7726,0.7468,0.7241,0.7112,0.7095,0.7095,0.7095,0.7095,0.7088,0.7061,0.6878,0.6742,0.6706,0.6719,0.6843,0.7146,0.8016,0.9036,0.997,1.0763,1.1521,1.2194,1.2305,1.2305,1.2305,1.2305,1.2305,1.2305,1.2305,1.2305,1.2305,1.2305,1.2305,1.2305,1.2305,1.2305,1.2305,1.2305,1.2305,1.2305,1.2305,1.2305,1.2305,1.2305,1.2305,1.2305,1.2371,1.2338,1.2325,1.2305,1.2305,1.2385,1.2505,1.2979,1.3888,1.3647,1.33,1.3287,1.3741,1.354,1.302,1.3129,1.274,1.171,1.0525,0.9305,0.8261,0.769,0.8257,0.8632,0.7885,0.7316,0.7316,0.7095,0.7095,0.7095,0.7095,0.7095,0.7051,0.7038,0.7088,0.7055,0.6927,0.6776,0.6502,0.6566,0.6563,0.634,0.63,0.63,0.63,0.63,0.63,0.63,0.63,0.63,0.63,0.63,0.63,1.4052,1.3173,1.1907,1.0886,1.0113,0.9122,0.8577,0.8287,0.8137,0.7988,0.7988,0.7988,0.7988,0.7985,0.7985,0.784,0.7614,0.7343,0.718,0.7098,0.7095,0.7095,0.7095,0.7095,0.7095,0.7055,0.6963,0.688,0.6823,0.6925,0.7348,0.7782,0.8546,0.9523,1.0458,1.1136,1.1669,1.2194,1.2305,1.2305,1.2305,1.2305,1.2305,1.2305,1.2305,1.2305,1.2305,1.2305,1.2305,1.2305,1.2305,1.2305,1.2305,1.2305,1.2305,1.2305,1.2305,1.2305,1.2305,1.2305,1.2305,1.2358,1.2549,1.2563,1.2405,1.2358,1.2458,1.2605,1.2979,1.352,1.4008,1.3921,1.3928,1.3921,1.3908,1.4023,1.3814,1.3728,1.3568,1.2571,1.1359,1.0134,0.9091,0.8504,0.9021,0.9458,0.9196,0.8544,0.8241,0.7669,0.7095,0.7095,0.7095,0.7095,0.7085,0.7082,0.7095,0.7095,0.7031,0.7031,0.6915,0.699,0.6905,0.6614,0.6395,0.63,0.63,0.63,0.63,0.63,0.63,0.63,0.63,0.63,0.63,1.4879,1.425,1.321,1.2237,1.1228,0.9953,0.9167,0.8775,0.8233,0.7988,0.7988,0.7988,0.7988,0.7971,0.7897,0.7756,0.7485,0.7258,0.7102,0.7095,0.7095,0.7095,0.7095,0.7095,0.7095,0.7166,0.7239,0.73,0.722,0.7587,0.8071,0.8665,0.9372,1.0244,1.0987,1.1515,1.1892,1.2231,1.2305,1.2305,1.2305,1.2305,1.2305,1.2305,1.2305,1.2305,1.2305,1.2305,1.2305,1.2305,1.2305,1.2305,1.2305,1.2305,1.2305,1.2305,1.2305,1.2305,1.2305,1.2318,1.2432,1.2746,1.2831,1.2817,1.2766,1.2812,1.2879,1.322,1.342,1.3874,1.4068,1.4082,1.4088,1.4088,1.4088,1.4088,1.4088,1.4088,1.3786,1.3264,1.2169,1.095,0.9715,0.9467,0.985,1.0111,1.0328,0.9937,0.9379,0.8372,0.7536,0.7095,0.7095,0.7095,0.7095,0.7095,0.7095,0.7095,0.7095,0.7095,0.7092,0.7078,0.7058,0.6881,0.6644,0.639,0.63,0.63,0.63,0.63,0.63,0.63,0.63,0.63,0.63,1.5553,1.5124,1.4376,1.3445,1.229,1.0828,0.9805,0.9217,0.8333,0.7988,0.7988,0.7988,0.7988,0.7941,0.7841,0.7634,0.7397,0.7238,0.7102,0.7095,0.7095,0.7095,0.7095,0.7187,0.7231,0.7404,0.7918,0.7977,0.7989,0.8472,0.9084,0.9745,1.0465,1.1035,1.1577,1.1892,1.2157,1.2231,1.2305,1.2305,1.2305,1.2305,1.2305,1.2305,1.2305,1.2305,1.2305,1.2305,1.2305,1.2305,1.2305,1.2305,1.2305,1.2305,1.2305,1.2305,1.2305,1.2305,1.2318,1.2412,1.2619,1.2966,1.3025,1.3066,1.316,1.328,1.3547,1.3981,1.4068,1.4048,1.4082,1.4088,1.4088,1.4088,1.4088,1.4088,1.4088,1.4088,1.4088,1.3525,1.2711,1.2063,1.1198,1.0593,1.0977,1.1445,1.1666,1.1537,1.0804,0.9113,0.8149,0.7404,0.7095,0.7095,0.7095,0.7095,0.7095,0.7095,0.7095,0.7095,0.7095,0.7092,0.7068,0.701,0.6861,0.662,0.6444,0.6306,0.63,0.63,0.63,0.63,0.63,0.63,0.63,1.5689,1.5397,1.4825,1.3998,1.2877,1.1365,1.0293,0.9464,0.8482,0.7988,0.7988,0.7988,0.7985,0.7914,0.7743,0.7614,0.7482,0.723,0.7095,0.7095,0.7095,0.7095,0.7143,0.737,0.7588,0.7889,0.8627,0.8776,0.9027,0.9554,1.0197,1.0914,1.14,1.191,1.2184,1.2296,1.2268,1.2325,1.2338,1.2345,1.2358,1.2365,1.2365,1.2331,1.2338,1.2325,1.2318,1.2305,1.2305,1.2305,1.2305,1.2305,1.2305,1.2305,1.2305,1.2305,1.2305,1.2311,1.2385,1.2563,1.2844,1.3126,1.328,1.3367,1.3454,1.3674,1.3935,1.4035,1.4088,1.4088,1.4088,1.4088,1.4088,1.4088,1.4088,1.4088,1.4088,1.4088,1.4088,1.4046,1.3398,1.3525,1.3222,1.2577,1.2143,1.2656,1.296,1.2747,1.2143,1.0414,0.8548,0.7713,0.7139,0.7095,0.7095,0.7095,0.7095,0.7095,0.7095,0.7095,0.7095,0.7095,0.7095,0.7021,0.6896,0.68,0.6586,0.6463,0.6354,0.63,0.63,0.63,0.63,0.63,0.6303,1.5737,1.5635,1.5452,1.4723,1.3613,1.2096,1.0881,0.9912,0.8584,0.7988,0.7988,0.7988,0.7948,0.7843,0.7682,0.755,0.7438,0.7196,0.7098,0.7095,0.7095,0.7139,0.7187,0.7499,0.7848,0.8588,0.941,1.0336,1.0544,1.08,1.1273,1.194,1.2299,1.2583,1.2721,1.2806,1.2826,1.2832,1.2826,1.2826,1.2812,1.2799,1.2726,1.2603,1.2583,1.2496,1.2351,1.2305,1.2305,1.2305,1.2305,1.2305,1.2305,1.2305,1.2311,1.2331,1.2665,1.2766,1.2699,1.277,1.3058,1.3387,1.3601,1.3574,1.3701,1.3901,1.4088,1.4088,1.4088,1.4088,1.4088,1.4088,1.4088,1.4088,1.4088,1.4088,1.4088,1.4088,1.4088,1.4088,1.4088,1.4088,1.4088,1.361,1.2918,1.2918,1.3264,1.3307,1.2753,1.1682,0.9724,0.7848,0.7408,0.7095,0.7095,0.7095,0.7095,0.7095,0.7095,0.7095,0.7095,0.7095,0.7095,0.7095,0.7024,0.6905,0.6712,0.6532,0.6337,0.6303,0.63,0.6334,0.6364,0.6317,0.6317,1.5825,1.5825,1.5825,1.5255,1.4298,1.2732,1.1521,1.0453,0.8928,0.8187,0.8091,0.8038,0.797,0.7845,0.7695,0.7546,0.7431,0.7183,0.7112,0.7095,0.7187,0.7231,0.7496,0.7845,0.8588,0.9283,1.0328,1.1257,1.1977,1.2295,1.2432,1.2855,1.2957,1.3101,1.3167,1.3153,1.3126,1.3126,1.3133,1.3146,1.316,1.3166,1.3046,1.2945,1.2811,1.2677,1.2452,1.2325,1.2305,1.2305,1.2305,1.2305,1.2305,1.2305,1.2445,1.2585,1.2959,1.3133,1.3086,1.3133,1.3373,1.3647,1.3881,1.3801,1.3988,1.4088,1.4088,1.4088,1.4088,1.4088,1.4088,1.4088,1.4088,1.4088,1.4088,1.4088,1.4088,1.4088,1.4088,1.4088,1.4088,1.4088,1.4088,1.4088,1.3786,1.3392,1.3476,1.3737,1.327,1.2546,1.0987,0.8938,0.7669,0.7316,0.7183,0.7139,0.7139,0.7183,0.7183,0.7095,0.7095,0.7095,0.7095,0.7095,0.7095,0.7034,0.6922,0.659,0.6337,0.642,0.6502,0.6467,0.6443,0.6392,0.6337,1.5825,1.5825,1.5825,1.5356,1.4586,1.3221,1.2058,1.1042,0.9468,0.8581,0.8287,0.8137,0.7978,0.795,0.7753,0.7604,0.756,0.723,0.7132,0.7194,0.7367,0.7588,0.7977,0.8671,0.9497,1.0328,1.1278,1.2137,1.2863,1.3256,1.3384,1.3544,1.3518,1.3413,1.336,1.3367,1.3353,1.3347,1.334,1.3313,1.3307,1.3293,1.324,1.3146,1.2965,1.2808,1.2737,1.2525,1.2425,1.2425,1.2338,1.2305,1.2305,1.2525,1.2766,1.2966,1.322,1.3387,1.3427,1.342,1.354,1.3686,1.3861,1.3988,1.4075,1.4088,1.4088,1.4088,1.4088,1.4088,1.4088,1.4088,1.4088,1.4088,1.4088,1.4088,1.4088,1.4088,1.4088,1.4088,1.4088,1.4088,1.4088,1.4088,1.4088,1.3737,1.3695,1.3955,1.3779,1.31,1.202,1.0328,0.8452,0.7665,0.7316,0.7316,0.7536,0.7492,0.7404,0.7272,0.7095,0.7095,0.7095,0.7095,0.7095,0.7095,0.7058,0.679,0.6614,0.6719,0.6746,0.6664,0.6576,0.6562,0.647,1.5825,1.5825,1.5825,1.5452,1.4885,1.389,1.2823,1.1712,1.0243,0.897,0.8137,0.8038,0.7988,0.7928,0.7841,0.7675,0.758,0.739,0.7244,0.7252,0.7499,0.7977,0.8588,0.9458,1.0458,1.144,1.2303,1.3003,1.3652,1.3822,1.3915,1.3935,1.3888,1.3868,1.3768,1.3687,1.3707,1.3721,1.3728,1.3741,1.3748,1.3734,1.3661,1.346,1.3367,1.3193,1.3053,1.2933,1.2879,1.2766,1.2505,1.2405,1.2518,1.2946,1.324,1.332,1.3514,1.3674,1.36,1.3633,1.3673,1.3915,1.4028,1.4088,1.4088,1.4088,1.4088,1.4088,1.4088,1.4088,1.4102,1.4095,1.4088,1.4088,1.4088,1.4088,1.4088,1.4088,1.4088,1.4088,1.4088,1.4088,1.4088,1.4088,1.4088,1.4046,1.4088,1.4088,1.3913,1.3828,1.2833,1.1972,1.0274,0.9021,0.8671,0.8368,0.8061,0.7929,0.7845,0.7448,0.7272,0.7095,0.7095,0.7095,0.7095,0.7095,0.7038,0.6943,0.6878,0.6836,0.6852,0.6895,0.6803,0.6705,0.6627,1.5825,1.5825,1.5825,1.5594,1.5118,1.4424,1.3547,1.2387,1.0877,0.9361,0.8038,0.7988,0.7988,0.7948,0.7879,0.7729,0.7587,0.7431,0.7282,0.7371,0.7672,0.8368,0.9196,1.0149,1.123,1.2339,1.2991,1.3561,1.4004,1.4088,1.4068,1.4062,1.4082,1.4055,1.4055,1.4088,1.4088,1.4088,1.4088,1.4088,1.4068,1.4048,1.4008,1.3761,1.362,1.348,1.3293,1.3206,1.3146,1.3033,1.2852,1.2632,1.2926,1.334,1.3741,1.3768,1.3774,1.3955,1.3834,1.3794,1.3868,1.4028,1.4068,1.4088,1.4088,1.4095,1.4122,1.4289,1.4208,1.4135,1.4188,1.4195,1.4108,1.4088,1.4088,1.4088,1.4088,1.4088,1.4088,1.4088,1.4088,1.4088,1.4088,1.4088,1.4088,1.4088,1.4088,1.4088,1.4046,1.3997,1.387,1.3137,1.2272,1.1198,1.0337,0.9806,0.9318,0.9192,0.8846,0.7801,0.7448,0.7272,0.7095,0.7095,0.7095,0.7095,0.7051,0.6977,0.694,0.6916,0.6943,0.6974,0.6953,0.6905,0.6885,1.5825,1.5825,1.5825,1.5683,1.5452,1.4927,1.41,1.2974,1.137,0.9657,0.8084,0.7988,0.7988,0.7958,0.7899,0.776,0.76,0.7455,0.7302,0.731,0.7889,0.8715,0.9715,1.0755,1.188,1.2826,1.3392,1.3779,1.4088,1.4088,1.4088,1.4088,1.4088,1.4088,1.4088,1.4088,1.4088,1.4088,1.4088,1.4088,1.4088,1.4088,1.4048,1.3981,1.3828,1.3646,1.358,1.3433,1.3407,1.3333,1.3293,1.3186,1.33,1.3728,1.4001,1.4021,1.4028,1.4068,1.4062,1.4062,1.4062,1.4075,1.4088,1.4088,1.4088,1.4115,1.4242,1.4442,1.4462,1.4409,1.4396,1.4322,1.4162,1.4088,1.4088,1.4088,1.4088,1.4088,1.4088,1.4088,1.4088,1.4088,1.4088,1.4088,1.4088,1.4088,1.4088,1.4088,1.4088,1.4088,1.4088,1.387,1.3222,1.2491,1.1499,1.0971,1.0577,1.0409,0.9806,0.8675,0.7713,0.7275,0.7143,0.7139,0.7095,0.7095,0.7095,0.7082,0.7041,0.7004,0.7038,0.7061,0.7061,0.7045,0.6994,1.5825,1.5825,1.5825,1.5784,1.5683,1.5499,1.4867,1.3613,1.157,0.9567,0.8233,0.7988,0.7988,0.7965,0.7974,0.7828,0.7614,0.7567,0.7414,0.7245,0.8021,0.9192,1.0231,1.123,1.2448,1.3434,1.3955,1.3955,1.4088,1.4088,1.4088,1.4088,1.4088,1.4088,1.4088,1.4088,1.4088,1.4088,1.4088,1.4088,1.4088,1.4088,1.4088,1.4088,1.3968,1.3915,1.3908,1.3748,1.3728,1.3721,1.3714,1.3721,1.3734,1.4062,1.4075,1.4088,1.4088,1.4088,1.4088,1.4082,1.4082,1.4088,1.4088,1.4088,1.4095,1.4088,1.4309,1.4703,1.499,1.4917,1.4636,1.4295,1.4115,1.4088,1.4088,1.4088,1.4088,1.4088,1.4088,1.4088,1.4088,1.4088,1.4088,1.4088,1.4088,1.4088,1.4088,1.4088,1.4088,1.4088,1.4088,1.4082,1.3695,1.3222,1.2656,1.218,1.1612,1.123,1.0458,0.9379,0.846,0.7669,0.7187,0.7139,0.7139,0.7095,0.7095,0.7095,0.7095,0.7092,0.7095,0.7095,0.7085,0.7078,0.7068,1.5825,1.5825,1.5825,1.5825,1.5825,1.5825,1.5064,1.3565,1.1575,0.9768,0.8531,0.8184,0.8084,0.8038,0.7965,0.7879,0.7621,0.759,0.7431,0.7262,0.8153,0.9318,1.0486,1.1574,1.2705,1.3743,1.4088,1.4088,1.4088,1.4088,1.4088,1.4088,1.4095,1.4088,1.4088,1.4088,1.4088,1.4088,1.4088,1.4088,1.4088,1.4088,1.4088,1.4088,1.4068,1.4075,1.4082,1.4088,1.4088,1.4088,1.4088,1.4088,1.4088,1.4088,1.4088,1.4088,1.4088,1.4088,1.4088,1.4088,1.4088,1.4088,1.4088,1.4162,1.4195,1.4182,1.4482,1.4917,1.5491,1.5344,1.4917,1.4509,1.4255,1.4242,1.4235,1.4242,1.4148,1.4148,1.4142,1.4135,1.4088,1.4088,1.4088,1.4088,1.4088,1.4088,1.4088,1.4088,1.4088,1.4088,1.4088,1.4082,1.4082,1.3695,1.3525,1.3519,1.2869,1.2137,1.1235,1.0332,0.9248,0.846,0.7801,0.7143,0.7139,0.7139,0.7095,0.7095,0.7139,0.7139,0.7095,0.7095,0.7095,0.7095,0.7095,1.5825,1.5825,1.5825,1.5825,1.5825,1.5778,1.4663,1.278,1.1722,1.035,0.8874,0.8577,0.8283,0.8038,0.7988,0.7823,0.7648,0.7604,0.74,0.7481,0.8153,0.9362,1.0529,1.1569,1.279,1.3652,1.4088,1.4088,1.4088,1.4175,1.4168,1.4188,1.4262,1.4269,1.4262,1.4202,1.4162,1.4115,1.4088,1.4088,1.4088,1.4088,1.4088,1.4088,1.4088,1.4088,1.4088,1.4088,1.4088,1.4088,1.4088,1.4088,1.4088,1.4088,1.4088,1.4088,1.4088,1.4088,1.4088,1.4088,1.4162,1.4188,1.4155,1.4378,1.4486,1.4416,1.471,1.515,1.5658,1.5558,1.5344,1.493,1.4536,1.4522,1.4502,1.4416,1.4275,1.4235,1.4229,1.4188,1.4108,1.4088,1.4088,1.4088,1.4142,1.4088,1.4088,1.4088,1.4088,1.4088,1.4088,1.4088,1.4088,1.4088,1.4046,1.3997,1.3695,1.2826,1.2437,1.1574,1.0453,0.9331,0.8324,0.7669,0.7316,0.7143,0.7139,0.7139,0.7143,0.7143,0.7095,0.7095,0.7095,0.7095,0.7095,1.5825,1.5825,1.5825,1.5825,1.5778,1.5635,1.4813,1.3499,1.2436,1.1121,0.9604,0.9164,0.868,0.8038,0.7985,0.7851,0.7702,0.7556,0.7387,0.7658,0.834,0.9428,1.0554,1.1705,1.2802,1.3678,1.4122,1.4168,1.4168,1.4269,1.4536,1.474,1.4666,1.4693,1.4633,1.4496,1.4315,1.4182,1.4155,1.4148,1.4148,1.4168,1.4162,1.4168,1.4168,1.4168,1.4168,1.4135,1.4122,1.4108,1.4095,1.4088,1.4088,1.4088,1.4088,1.4088,1.4088,1.4088,1.4088,1.4095,1.4195,1.4402,1.4429,1.4476,1.4609,1.4763,1.4983,1.5431,1.5718,1.5651,1.5591,1.5291,1.4997,1.4917,1.4943,1.497,1.4863,1.487,1.4783,1.4162,1.4088,1.4142,1.4135,1.4244,1.4285,1.4142,1.4095,1.4108,1.4088,1.4088,1.4088,1.4088,1.4088,1.4088,1.4088,1.4088,1.387,1.3561,1.3124,1.282,1.218,1.0928,0.924,0.8324,0.8065,0.758,0.7095,0.7183,0.7408,0.7187,0.7095,0.7095,0.7095,0.7095,0.7095,1.5825,1.5825,1.5825,1.5825,1.5778,1.5689,1.5194,1.4465,1.3355,1.195,1.0632,0.9953,0.9175,0.8432,0.8223,0.801,0.7709,0.7835,0.7801,0.8048,0.8739,1.0067,1.1159,1.2151,1.3317,1.4069,1.4465,1.4553,1.4512,1.4569,1.4816,1.4955,1.5015,1.5022,1.4941,1.4763,1.4673,1.4519,1.4419,1.4349,1.4369,1.4409,1.4479,1.4452,1.4402,1.4452,1.4425,1.4342,1.4262,1.4215,1.4195,1.4088,1.4128,1.4175,1.4369,1.4416,1.4519,1.4479,1.4445,1.4492,1.4579,1.4643,1.4756,1.489,1.4897,1.499,1.5304,1.5658,1.5738,1.5785,1.5738,1.5671,1.5511,1.5357,1.5491,1.5625,1.5638,1.5651,1.5077,1.4309,1.4128,1.4202,1.4262,1.4392,1.4425,1.4349,1.4295,1.4255,1.4182,1.4088,1.4088,1.4088,1.4088,1.4088,1.4088,1.4088,1.3997,1.3864,1.3737,1.3476,1.3355,1.2619,1.0971,0.9806,0.8899,0.8368,0.7841,0.7716,0.776,0.7408,0.7095,0.7095,0.7095,0.7095,0.7095,1.5825,1.5825,1.5825,1.5825,1.5825,1.5778,1.5778,1.5635,1.4286,1.2969,1.1804,1.0939,0.9961,0.9072,0.8669,0.8192,0.8011,0.8065,0.8354,0.8567,0.964,1.0863,1.2055,1.3091,1.3887,1.4622,1.4975,1.4867,1.4995,1.5055,1.5023,1.5068,1.5142,1.5157,1.5164,1.505,1.4983,1.5017,1.4823,1.4716,1.4881,1.4975,1.5015,1.4968,1.4955,1.4955,1.4894,1.473,1.4549,1.4462,1.4322,1.4168,1.4168,1.4409,1.4663,1.4843,1.4941,1.4807,1.4747,1.4787,1.4888,1.4943,1.5057,1.5224,1.5257,1.5264,1.5551,1.5712,1.5798,1.5812,1.5778,1.5772,1.5671,1.5611,1.5685,1.5752,1.5758,1.5732,1.5431,1.471,1.4242,1.4355,1.4703,1.481,1.4823,1.4696,1.4402,1.4315,1.4249,1.4102,1.4088,1.4088,1.4088,1.4088,1.4088,1.4088,1.4088,1.4039,1.3997,1.3955,1.3786,1.327,1.2711,1.1671,1.0669,0.9462,0.8807,0.846,0.7933,0.7316,0.7095,0.7095,0.7095,0.7095,0.7095,1.5825,1.5825,1.5825,1.5825,1.5825,1.5825,1.5825,1.5784,1.5302,1.437,1.3301,1.2242,1.1028,0.9805,0.9262,0.869,0.8146,0.8564,0.8811,0.9482,1.0459,1.176,1.2837,1.3631,1.4327,1.4732,1.5042,1.5176,1.5303,1.5317,1.5411,1.5578,1.5565,1.5524,1.5518,1.5404,1.5357,1.5471,1.5304,1.507,1.5089,1.5042,1.5015,1.5035,1.5048,1.5075,1.5035,1.4975,1.4856,1.481,1.4563,1.4335,1.4122,1.4633,1.509,1.5438,1.5237,1.5102,1.5042,1.5095,1.515,1.5317,1.5398,1.5465,1.5525,1.5598,1.5658,1.5765,1.5825,1.5825,1.5825,1.5825,1.5825,1.5825,1.5825,1.5825,1.5825,1.5745,1.5658,1.517,1.4576,1.4696,1.507,1.5211,1.5231,1.4923,1.4396,1.4162,1.4168,1.4088,1.4088,1.4088,1.4088,1.4088,1.4088,1.4088,1.4088,1.4088,1.4039,1.4082,1.4088,1.3743,1.3313,1.327,1.2528,1.0885,0.9458,0.8763,0.8149,0.7404,0.7095,0.7095,0.7095,0.7095,0.7095,1.5825,1.5825,1.5825,1.5825,1.5825,1.5825,1.5825,1.5784,1.5683,1.5289,1.4609,1.3403,1.2047,1.0783,1.0149,0.9481,0.8837,0.9332,0.9965,1.063,1.1546,1.2742,1.3653,1.4318,1.4869,1.5311,1.5357,1.5471,1.5551,1.5598,1.5698,1.5812,1.5825,1.5825,1.5812,1.5678,1.5604,1.5751,1.5638,1.5484,1.5311,1.5324,1.5344,1.5351,1.5337,1.5324,1.5291,1.5251,1.5157,1.5077,1.487,1.471,1.4643,1.4975,1.5351,1.5598,1.5551,1.5351,1.5331,1.5371,1.5464,1.5565,1.5644,1.5658,1.5671,1.5732,1.5732,1.5825,1.5825,1.5825,1.5825,1.5825,1.5825,1.5825,1.5825,1.5825,1.5825,1.5792,1.5752,1.5598,1.5231,1.5251,1.5524,1.5558,1.5571,1.5545,1.4943,1.4369,1.4289,1.4088,1.4088,1.4135,1.4162,1.4115,1.4088,1.4088,1.4088,1.4088,1.4088,1.4088,1.4088,1.4088,1.3997,1.3743,1.3003,1.1488,1.0231,0.9196,0.8193,0.736,0.7183,0.7095,0.7095,0.7095,0.7095,1.5825,1.5825,1.5825,1.5825,1.5825,1.5825,1.5825,1.5778,1.5825,1.5778,1.554,1.4334,1.3076,1.2058,1.1331,1.06,1.0342,1.0738,1.1273,1.2098,1.3058,1.3915,1.4599,1.5244,1.5489,1.5624,1.5678,1.5732,1.5765,1.5778,1.5778,1.5818,1.5825,1.5825,1.5825,1.5818,1.5825,1.5778,1.5772,1.5798,1.5805,1.5825,1.5724,1.5738,1.5825,1.5825,1.5738,1.5631,1.5464,1.5378,1.5231,1.5037,1.503,1.5217,1.5498,1.5691,1.5778,1.5705,1.5738,1.5718,1.5765,1.5812,1.5825,1.5825,1.5825,1.5825,1.5825,1.5825,1.5825,1.5825,1.5825,1.5825,1.5825,1.5825,1.5825,1.5825,1.5825,1.5825,1.5825,1.5825,1.5798,1.5718,1.5738,1.5818,1.5825,1.5825,1.5585,1.505,1.4583,1.4262,1.4088,1.4215,1.4329,1.4255,1.4135,1.4108,1.4115,1.4088,1.4088,1.4088,1.4088,1.4088,1.4046,1.3955,1.3045,1.166,1.0491,0.9371,0.8408,0.7404,0.7183,0.7095,0.7095,0.7095,0.7095,1.5825,1.5825,1.5825,1.5825,1.5825,1.5825,1.5825,1.5825,1.5825,1.5825,1.5683,1.5397,1.4472,1.3445,1.2877,1.2198,1.1565,1.2052,1.2775,1.3536,1.4088,1.4825,1.5356,1.554,1.5737,1.5784,1.5825,1.5825,1.5825,1.5825,1.5825,1.5825,1.5825,1.5825,1.5825,1.5825,1.5825,1.5825,1.5825,1.5825,1.5825,1.5825,1.5825,1.5825,1.5825,1.5825,1.5798,1.5731,1.5704,1.5678,1.5598,1.5384,1.5331,1.5444,1.5691,1.5731,1.5825,1.5825,1.5825,1.5825,1.5825,1.5825,1.5825,1.5825,1.5825,1.5825,1.5825,1.5825,1.5825,1.5825,1.5825,1.5825,1.5825,1.5825,1.5825,1.5825,1.5825,1.5825,1.5825,1.5825,1.5818,1.5805,1.5805,1.5825,1.5825,1.5825,1.5825,1.5311,1.481,1.4462,1.4122,1.4295,1.4476,1.4342,1.4202,1.4162,1.4148,1.4115,1.4088,1.4088,1.4088,1.4088,1.4046,1.4004,1.313,1.1789,1.0669,0.9371,0.854,0.7621,0.7272,0.7095,0.7095,0.7095,0.7095]}]]